Darstellungsparameter: Aktuell verwendete Einstellungen:
Skalierung der Graphiken ... ?
xyx+y,   Skalierungsfaktor:      Skalierung: Modus: x, Faktor: 1
Darstellungszeitraum ... ?
Vom - - bis: - -   Zeitraum: 15.07.2015 - 14.08.2015
Min/Max/Avg-Anzeige ... ?
Zeige MMA aktuell
Zeige MMA Monat
Zeige MMA alles
Zeige --A aktuell
Zeige --A Monat
Zeige --A alles
Keine MMA-Anzeige
MMA:
Minimum Maximum Average (ber die Originaldaten)
MMA-Basis: 15.07.2015 - 14.08.2015
Quicknavigation für Darstellung... ?
Tage:      1T, 2T, 3T, 5T -1T -2T -3T -5T +1T +2T +3T +5T
Wochen: 1W, 2W, 3W -1W -2W -3W +1W +2W +3W
Monate: 1M, 3M, 6M -1M -3M -6M +1M +3M +6M
Jahre:    1J, 3J, 5J, 10J -1J -3J -5J -10J +1J +3J +5J +10J
Nutze für die Darstellung ... ?
Originaldaten oder Mittelwerte auf ...
Stundenbasis Tagesbasis Wochenbasis
Monatsbasis Jahresbasis      Datenbasis: Original-Daten
Darstellen als:
Statistik (Auto) Statistik J:M      Darstellung:
Zur Graphik,    zurück zur Übersicht aller Sensoren.
 
Tabellarische Datenbersicht: ?
 
Sensor: Nr:Datum:Temp:Feuchte:Taupunkt:
Aussen-T/F 1 15-07-2015 00:00:00 19.6 C 80 % 16.06 C
2 15-07-2015 00:05:00 19.6 C 81 % 16.25 C
3 15-07-2015 00:10:00 19.5 C 81 % 16.15 C
4 15-07-2015 00:15:00 19.4 C 81 % 16.06 C
5 15-07-2015 00:20:00 19.4 C 81 % 16.06 C
6 15-07-2015 00:25:00 19.3 C 81 % 15.96 C
7 15-07-2015 00:30:00 19.3 C 82 % 16.15 C
8 15-07-2015 00:35:00 19.2 C 82 % 16.05 C
9 15-07-2015 00:40:00 19.1 C 82 % 15.96 C
10 15-07-2015 00:45:00 19.1 C 82 % 15.96 C
11 15-07-2015 00:50:00 19 C 82 % 15.86 C
12 15-07-2015 00:55:00 19 C 82 % 15.86 C
13 15-07-2015 01:00:00 18.9 C 83 % 15.95 C
14 15-07-2015 01:05:00 18.8 C 83 % 15.85 C
15 15-07-2015 01:10:00 18.7 C 84 % 15.94 C
16 15-07-2015 01:15:00 18.7 C 84 % 15.94 C
17 15-07-2015 01:20:00 18.7 C 84 % 15.94 C
18 15-07-2015 01:25:00 18.7 C 84 % 15.94 C
19 15-07-2015 01:30:00 18.7 C 84 % 15.94 C
20 15-07-2015 01:35:00 18.7 C 84 % 15.94 C
21 15-07-2015 01:40:00 18.7 C 84 % 15.94 C
22 15-07-2015 01:45:00 18.7 C 84 % 15.94 C
23 15-07-2015 01:50:00 18.7 C 84 % 15.94 C
24 15-07-2015 01:55:00 18.7 C 84 % 15.94 C
25 15-07-2015 02:00:00 18.6 C 84 % 15.84 C
Sensor: Nr:Datum:Temp:Feuchte:Taupunkt:
Aussen-T/F 26 15-07-2015 02:05:00 18.6 C 84 % 15.84 C
27 15-07-2015 02:10:00 18.6 C 84 % 15.84 C
28 15-07-2015 02:15:00 18.6 C 84 % 15.84 C
29 15-07-2015 02:20:00 18.6 C 83 % 15.66 C
30 15-07-2015 02:25:00 18.6 C 83 % 15.66 C
31 15-07-2015 02:30:00 18.6 C 83 % 15.66 C
32 15-07-2015 02:35:00 18.6 C 84 % 15.84 C
33 15-07-2015 02:40:00 18.6 C 84 % 15.84 C
34 15-07-2015 02:45:00 18.5 C 84 % 15.75 C
35 15-07-2015 02:50:00 18.4 C 84 % 15.65 C
36 15-07-2015 02:55:00 18.4 C 85 % 15.83 C
37 15-07-2015 03:00:00 18.3 C 85 % 15.74 C
38 15-07-2015 03:05:00 18.3 C 85 % 15.74 C
39 15-07-2015 03:10:00 18.2 C 85 % 15.64 C
40 15-07-2015 03:15:00 18.2 C 86 % 15.82 C
41 15-07-2015 03:20:00 18.2 C 86 % 15.82 C
42 15-07-2015 03:25:00 18.2 C 86 % 15.82 C
43 15-07-2015 03:30:00 18.2 C 85 % 15.64 C
44 15-07-2015 03:35:00 18.2 C 85 % 15.64 C
45 15-07-2015 03:40:00 18.2 C 85 % 15.64 C
46 15-07-2015 03:45:00 18.2 C 85 % 15.64 C
47 15-07-2015 03:50:00 18.1 C 85 % 15.54 C
48 15-07-2015 03:55:00 18 C 85 % 15.44 C
49 15-07-2015 04:00:00 17.9 C 85 % 15.34 C
50 15-07-2015 04:05:00 17.9 C 85 % 15.34 C
Sensor: Nr:Datum:Temp:Feuchte:Taupunkt:
Aussen-T/F 51 15-07-2015 04:10:00 18 C 85 % 15.44 C
52 15-07-2015 04:15:00 18.1 C 85 % 15.54 C
53 15-07-2015 04:20:00 18.2 C 85 % 15.64 C
54 15-07-2015 04:25:00 18.2 C 85 % 15.64 C
55 15-07-2015 04:30:00 18.2 C 85 % 15.64 C
56 15-07-2015 04:35:00 18.2 C 85 % 15.64 C
57 15-07-2015 04:40:00 18.3 C 85 % 15.74 C
58 15-07-2015 04:45:00 18.3 C 84 % 15.55 C
59 15-07-2015 04:50:00 18.2 C 85 % 15.64 C
60 15-07-2015 04:55:00 18.1 C 85 % 15.54 C
61 15-07-2015 05:00:00 17.9 C 85 % 15.34 C
62 15-07-2015 05:05:00 17.8 C 86 % 15.43 C
63 15-07-2015 05:10:00 17.8 C 86 % 15.43 C
64 15-07-2015 05:15:00 17.8 C 86 % 15.43 C
65 15-07-2015 05:20:00 17.8 C 86 % 15.43 C
66 15-07-2015 05:25:00 17.8 C 86 % 15.43 C
67 15-07-2015 05:30:00 17.7 C 86 % 15.33 C
68 15-07-2015 05:35:00 17.6 C 87 % 15.41 C
69 15-07-2015 05:40:00 17.5 C 87 % 15.31 C
70 15-07-2015 05:45:00 17.4 C 87 % 15.21 C
71 15-07-2015 05:50:00 17.3 C 88 % 15.29 C
72 15-07-2015 05:55:00 17.2 C 89 % 15.37 C
73 15-07-2015 06:00:00 17.2 C 89 % 15.37 C
74 15-07-2015 06:05:00 17.2 C 89 % 15.37 C
75 15-07-2015 06:10:00 17.3 C 89 % 15.47 C
Sensor: Nr:Datum:Temp:Feuchte:Taupunkt:
Aussen-T/F 76 15-07-2015 06:15:00 17.3 C 89 % 15.47 C
77 15-07-2015 06:20:00 17.3 C 88 % 15.29 C
78 15-07-2015 06:25:00 17.4 C 88 % 15.39 C
79 15-07-2015 06:30:00 17.4 C 88 % 15.39 C
80 15-07-2015 06:35:00 17.4 C 87 % 15.21 C
81 15-07-2015 06:40:00 17.6 C 87 % 15.41 C
82 15-07-2015 06:45:00 17.6 C 87 % 15.41 C
83 15-07-2015 06:50:00 17.6 C 87 % 15.41 C
84 15-07-2015 06:55:00 17.7 C 87 % 15.51 C
85 15-07-2015 07:00:00 17.7 C 86 % 15.33 C
86 15-07-2015 07:05:00 17.7 C 86 % 15.33 C
87 15-07-2015 07:10:00 17.8 C 87 % 15.61 C
88 15-07-2015 07:15:00 17.8 C 87 % 15.61 C
89 15-07-2015 07:20:00 17.8 C 87 % 15.61 C
90 15-07-2015 07:25:00 17.8 C 87 % 15.61 C
91 15-07-2015 07:45:00 18.3 C 83 % 15.36 C
92 15-07-2015 07:50:00 18.4 C 83 % 15.46 C
93 15-07-2015 07:55:00 18.5 C 83 % 15.56 C
94 15-07-2015 08:00:00 18.6 C 83 % 15.66 C
95 15-07-2015 08:05:00 18.7 C 83 % 15.75 C
96 15-07-2015 08:10:00 18.7 C 83 % 15.75 C
97 15-07-2015 08:15:00 18.8 C 82 % 15.66 C
98 15-07-2015 08:20:00 18.8 C 83 % 15.85 C
99 15-07-2015 08:25:00 18.9 C 83 % 15.95 C
100 15-07-2015 08:30:00 19 C 82 % 15.86 C
Sensor: Nr:Datum:Temp:Feuchte:Taupunkt:
Aussen-T/F 101 15-07-2015 08:35:00 19.1 C 82 % 15.96 C
102 15-07-2015 08:40:00 19.2 C 81 % 15.86 C
103 15-07-2015 08:45:00 19.3 C 81 % 15.96 C
104 15-07-2015 08:50:00 19.3 C 81 % 15.96 C
105 15-07-2015 08:55:00 19.4 C 80 % 15.86 C
106 15-07-2015 09:00:00 19.4 C 80 % 15.86 C
107 15-07-2015 09:05:00 19.5 C 80 % 15.96 C
108 15-07-2015 09:10:00 19.6 C 80 % 16.06 C
109 15-07-2015 09:15:00 19.8 C 79 % 16.05 C
110 15-07-2015 09:20:00 19.9 C 79 % 16.15 C
111 15-07-2015 09:25:00 20.1 C 77 % 15.94 C
112 15-07-2015 09:30:00 20.2 C 77 % 16.04 C
113 15-07-2015 09:35:00 20.2 C 76 % 15.83 C
114 15-07-2015 09:40:00 20.2 C 76 % 15.83 C
115 15-07-2015 09:45:00 20.1 C 76 % 15.74 C
116 15-07-2015 09:50:00 20.2 C 76 % 15.83 C
117 15-07-2015 09:55:00 20.3 C 75 % 15.72 C
118 15-07-2015 10:00:00 20.4 C 76 % 16.03 C
119 15-07-2015 10:05:00 20.7 C 75 % 16.11 C
120 15-07-2015 10:10:00 20.8 C 75 % 16.21 C
121 15-07-2015 10:15:00 21.1 C 75 % 16.5 C
122 15-07-2015 10:20:00 21.3 C 73 % 16.26 C
123 15-07-2015 10:25:00 21.5 C 73 % 16.46 C
124 15-07-2015 10:30:00 21.7 C 71 % 16.21 C
125 15-07-2015 10:35:00 21.7 C 72 % 16.43 C
Sensor: Nr:Datum:Temp:Feuchte:Taupunkt:
Aussen-T/F 126 15-07-2015 10:40:00 21.7 C 72 % 16.43 C
127 15-07-2015 10:45:00 21.9 C 71 % 16.4 C
128 15-07-2015 10:50:00 22 C 71 % 16.5 C
129 15-07-2015 10:55:00 22.2 C 71 % 16.69 C
130 15-07-2015 11:00:00 22.6 C 68 % 16.39 C
131 15-07-2015 11:05:00 22.8 C 66 % 16.12 C
132 15-07-2015 11:10:00 22.8 C 65 % 15.88 C
133 15-07-2015 11:15:00 22.7 C 66 % 16.02 C
134 15-07-2015 11:20:00 22.6 C 66 % 15.93 C
135 15-07-2015 11:25:00 22.6 C 66 % 15.93 C
136 15-07-2015 11:30:00 22.6 C 68 % 16.39 C
137 15-07-2015 11:35:00 22.7 C 70 % 16.95 C
138 15-07-2015 11:40:00 23.1 C 68 % 16.87 C
139 15-07-2015 11:45:00 23.6 C 64 % 16.39 C
140 15-07-2015 11:50:00 23.9 C 62 % 16.18 C
141 15-07-2015 11:55:00 24 C 62 % 16.27 C
142 15-07-2015 12:00:00 24.1 C 62 % 16.37 C
143 15-07-2015 12:05:00 24.1 C 62 % 16.37 C
144 15-07-2015 12:10:00 24.2 C 62 % 16.46 C
145 15-07-2015 12:15:00 24.6 C 61 % 16.58 C
146 15-07-2015 12:20:00 24.9 C 59 % 16.34 C
147 15-07-2015 12:25:00 25.2 C 61 % 17.14 C
148 15-07-2015 12:30:00 25.5 C 59 % 16.9 C
149 15-07-2015 12:35:00 25.7 C 56 % 16.26 C
150 15-07-2015 12:40:00 25.7 C 56 % 16.26 C
Sensor: Nr:Datum:Temp:Feuchte:Taupunkt:
Aussen-T/F 151 15-07-2015 12:45:00 25.8 C 56 % 16.36 C
152 15-07-2015 12:50:00 26.1 C 56 % 16.64 C
153 15-07-2015 12:55:00 26.2 C 54 % 16.16 C
154 15-07-2015 13:00:00 26.2 C 54 % 16.16 C
155 15-07-2015 13:05:00 26.2 C 54 % 16.16 C
156 15-07-2015 13:10:00 26.3 C 55 % 16.54 C
157 15-07-2015 13:15:00 26.7 C 55 % 16.91 C
158 15-07-2015 13:20:00 27.1 C 52 % 16.4 C
159 15-07-2015 13:25:00 27.2 C 50 % 15.87 C
160 15-07-2015 13:30:00 27.4 C 49 % 15.74 C
161 15-07-2015 13:35:00 27.4 C 50 % 16.06 C
162 15-07-2015 13:40:00 27.3 C 48 % 15.33 C
163 15-07-2015 13:45:00 27.3 C 50 % 15.97 C
164 15-07-2015 13:50:00 27.6 C 49 % 15.92 C
165 15-07-2015 13:55:00 27.8 C 48 % 15.78 C
166 15-07-2015 14:00:00 27.7 C 47 % 15.36 C
167 15-07-2015 14:05:00 27.1 C 47 % 14.82 C
168 15-07-2015 14:10:00 26.9 C 48 % 14.96 C
169 15-07-2015 14:15:00 26.9 C 49 % 15.28 C
170 15-07-2015 14:20:00 27.5 C 49 % 15.83 C
171 15-07-2015 14:25:00 27.6 C 49 % 15.92 C
172 15-07-2015 14:30:00 27.7 C 47 % 15.36 C
173 15-07-2015 14:35:00 27.6 C 49 % 15.92 C
174 15-07-2015 14:40:00 28.2 C 47 % 15.82 C
175 15-07-2015 14:45:00 28.7 C 48 % 16.6 C
Sensor: Nr:Datum:Temp:Feuchte:Taupunkt:
Aussen-T/F 176 15-07-2015 14:50:00 29.1 C 46 % 16.3 C
177 15-07-2015 14:55:00 28.8 C 46 % 16.03 C
178 15-07-2015 15:00:00 28.4 C 48 % 16.33 C
179 15-07-2015 15:05:00 28.4 C 47 % 16 C
180 15-07-2015 15:10:00 28.3 C 48 % 16.24 C
181 15-07-2015 15:15:00 28.6 C 46 % 15.85 C
182 15-07-2015 15:20:00 28.7 C 47 % 16.27 C
183 15-07-2015 15:25:00 29.1 C 46 % 16.3 C
184 15-07-2015 15:30:00 29.3 C 45 % 16.13 C
185 15-07-2015 15:35:00 29.4 C 45 % 16.23 C
186 15-07-2015 15:40:00 29.3 C 46 % 16.48 C
187 15-07-2015 15:45:00 29.1 C 46 % 16.3 C
188 15-07-2015 15:50:00 28.9 C 47 % 16.45 C
189 15-07-2015 15:55:00 28.8 C 47 % 16.36 C
190 15-07-2015 16:00:00 28.8 C 46 % 16.03 C
191 15-07-2015 16:05:00 28.7 C 47 % 16.27 C
192 15-07-2015 16:10:00 28.4 C 48 % 16.33 C
193 15-07-2015 16:15:00 28.3 C 50 % 16.88 C
194 15-07-2015 16:20:00 28.2 C 49 % 16.47 C
195 15-07-2015 16:25:00 27.9 C 50 % 16.51 C
196 15-07-2015 16:30:00 27.8 C 49 % 16.11 C
197 15-07-2015 16:35:00 27.8 C 50 % 16.42 C
198 15-07-2015 16:40:00 27.8 C 50 % 16.42 C
199 15-07-2015 16:45:00 27.7 C 51 % 16.64 C
200 15-07-2015 16:50:00 27.6 C 53 % 17.16 C
Sensor: Nr:Datum:Temp:Feuchte:Taupunkt:
Aussen-T/F 201 15-07-2015 16:55:00 27.2 C 57 % 17.94 C
202 15-07-2015 17:00:00 26.7 C 59 % 18.02 C
203 15-07-2015 17:05:00 26.1 C 58 % 17.19 C
204 15-07-2015 17:10:00 25.9 C 58 % 17 C
205 15-07-2015 17:15:00 25.8 C 64 % 18.47 C
206 15-07-2015 17:20:00 25.6 C 63 % 18.03 C
207 15-07-2015 17:25:00 25.5 C 65 % 18.44 C
208 15-07-2015 17:30:00 25.2 C 70 % 19.34 C
209 15-07-2015 17:35:00 24.6 C 78 % 20.51 C
210 15-07-2015 17:40:00 24.1 C 82 % 20.83 C
211 15-07-2015 17:45:00 23.6 C 84 % 20.74 C
212 15-07-2015 17:50:00 23.3 C 86 % 20.82 C
213 15-07-2015 17:55:00 23 C 87 % 20.72 C
214 15-07-2015 18:00:00 22.8 C 88 % 20.71 C
215 15-07-2015 18:05:00 22.8 C 88 % 20.71 C
216 15-07-2015 18:10:00 22.7 C 88 % 20.61 C
217 15-07-2015 18:15:00 22.6 C 88 % 20.51 C
218 15-07-2015 18:20:00 22.4 C 88 % 20.31 C
219 15-07-2015 18:25:00 22.3 C 88 % 20.21 C
220 15-07-2015 18:30:00 22.2 C 89 % 20.3 C
221 15-07-2015 18:35:00 22.1 C 89 % 20.2 C
222 15-07-2015 18:40:00 22 C 88 % 19.92 C
223 15-07-2015 18:45:00 21.8 C 88 % 19.72 C
224 15-07-2015 18:50:00 21.7 C 88 % 19.62 C
225 15-07-2015 18:55:00 21.6 C 88 % 19.53 C
Sensor: Nr:Datum:Temp:Feuchte:Taupunkt:
Aussen-T/F 226 15-07-2015 19:00:00 21.7 C 89 % 19.81 C
227 15-07-2015 19:05:00 21.8 C 88 % 19.72 C
228 15-07-2015 19:10:00 21.8 C 88 % 19.72 C
229 15-07-2015 19:15:00 21.9 C 86 % 19.45 C
230 15-07-2015 19:20:00 22 C 85 % 19.36 C
231 15-07-2015 19:25:00 22 C 85 % 19.36 C
232 15-07-2015 19:30:00 22.1 C 86 % 19.65 C
233 15-07-2015 19:35:00 22.2 C 85 % 19.56 C
234 15-07-2015 19:40:00 22.3 C 83 % 19.27 C
235 15-07-2015 19:45:00 22.3 C 84 % 19.46 C
236 15-07-2015 19:50:00 22.2 C 84 % 19.37 C
237 15-07-2015 19:55:00 22.1 C 83 % 19.08 C
238 15-07-2015 20:00:00 21.9 C 83 % 18.88 C
239 15-07-2015 20:05:00 21.8 C 83 % 18.78 C
240 15-07-2015 20:10:00 21.9 C 83 % 18.88 C
241 15-07-2015 20:15:00 22 C 83 % 18.98 C
242 15-07-2015 20:20:00 22 C 83 % 18.98 C
243 15-07-2015 20:25:00 21.8 C 83 % 18.78 C
244 15-07-2015 20:30:00 21.7 C 83 % 18.69 C
245 15-07-2015 20:35:00 21.6 C 83 % 18.59 C
246 15-07-2015 20:40:00 21.6 C 83 % 18.59 C
247 15-07-2015 20:45:00 21.4 C 83 % 18.39 C
248 15-07-2015 20:50:00 21.4 C 84 % 18.58 C
249 15-07-2015 20:55:00 21.5 C 83 % 18.49 C
250 15-07-2015 21:00:00 21.7 C 80 % 18.1 C
Sensor: Nr:Datum:Temp:Feuchte:Taupunkt:
Aussen-T/F 251 15-07-2015 21:05:00 22.1 C 79 % 18.29 C
252 15-07-2015 21:10:00 22.3 C 79 % 18.48 C
253 15-07-2015 21:15:00 22.3 C 79 % 18.48 C
254 15-07-2015 21:20:00 22.2 C 80 % 18.58 C
255 15-07-2015 21:25:00 22.1 C 80 % 18.49 C
256 15-07-2015 21:30:00 21.9 C 80 % 18.29 C
257 15-07-2015 21:35:00 21.8 C 82 % 18.59 C
258 15-07-2015 21:40:00 21.6 C 84 % 18.78 C
259 15-07-2015 21:45:00 21.4 C 85 % 18.77 C
260 15-07-2015 21:50:00 21.2 C 86 % 18.76 C
261 15-07-2015 21:55:00 20.9 C 87 % 18.65 C
262 15-07-2015 22:00:00 20.7 C 87 % 18.46 C
263 15-07-2015 22:05:00 20.5 C 88 % 18.44 C
264 15-07-2015 22:10:00 20.3 C 88 % 18.25 C
265 15-07-2015 22:15:00 20.1 C 88 % 18.05 C
266 15-07-2015 22:20:00 19.8 C 89 % 17.93 C
267 15-07-2015 22:25:00 19.7 C 89 % 17.84 C
268 15-07-2015 22:30:00 19.5 C 89 % 17.64 C
269 15-07-2015 22:35:00 19.3 C 90 % 17.62 C
270 15-07-2015 22:40:00 19.2 C 90 % 17.52 C
271 15-07-2015 22:45:00 19.1 C 90 % 17.42 C
272 15-07-2015 22:50:00 19.1 C 91 % 17.6 C
273 15-07-2015 22:55:00 18.9 C 91 % 17.4 C
274 15-07-2015 23:00:00 18.9 C 91 % 17.4 C
275 15-07-2015 23:05:00 18.9 C 91 % 17.4 C
Sensor: Nr:Datum:Temp:Feuchte:Taupunkt:
Aussen-T/F 276 15-07-2015 23:10:00 18.8 C 91 % 17.3 C
277 15-07-2015 23:15:00 18.8 C 91 % 17.3 C
278 15-07-2015 23:20:00 18.8 C 91 % 17.3 C
279 15-07-2015 23:25:00 18.8 C 91 % 17.3 C
280 15-07-2015 23:30:00 18.7 C 91 % 17.2 C
281 15-07-2015 23:35:00 18.7 C 92 % 17.37 C
282 15-07-2015 23:40:00 18.7 C 91 % 17.2 C
283 15-07-2015 23:45:00 18.6 C 91 % 17.1 C
284 15-07-2015 23:50:00 18.6 C 91 % 17.1 C
285 15-07-2015 23:55:00 18.4 C 92 % 17.08 C
286 16-07-2015 00:00:00 18.3 C 92 % 16.98 C
287 16-07-2015 00:05:00 18.3 C 92 % 16.98 C
288 16-07-2015 00:10:00 18.3 C 92 % 16.98 C
289 16-07-2015 00:15:00 18.2 C 92 % 16.88 C
290 16-07-2015 00:20:00 18.2 C 92 % 16.88 C
291 16-07-2015 00:25:00 18.2 C 93 % 17.05 C
292 16-07-2015 00:30:00 18.1 C 93 % 16.95 C
293 16-07-2015 00:35:00 18.1 C 93 % 16.95 C
294 16-07-2015 00:40:00 18.1 C 93 % 16.95 C
295 16-07-2015 00:45:00 18.1 C 93 % 16.95 C
296 16-07-2015 00:50:00 18.1 C 93 % 16.95 C
297 16-07-2015 00:55:00 18.1 C 93 % 16.95 C
298 16-07-2015 01:00:00 18.1 C 93 % 16.95 C
299 16-07-2015 01:05:00 18 C 93 % 16.85 C
300 16-07-2015 01:10:00 17.9 C 93 % 16.75 C
Sensor: Nr:Datum:Temp:Feuchte:Taupunkt:
Aussen-T/F 301 16-07-2015 01:15:00 17.9 C 93 % 16.75 C
302 16-07-2015 01:20:00 17.8 C 94 % 16.82 C
303 16-07-2015 01:25:00 17.8 C 94 % 16.82 C
304 16-07-2015 01:30:00 17.8 C 94 % 16.82 C
305 16-07-2015 01:35:00 17.7 C 94 % 16.72 C
306 16-07-2015 01:40:00 17.7 C 94 % 16.72 C
307 16-07-2015 01:45:00 17.7 C 94 % 16.72 C
308 16-07-2015 01:50:00 17.6 C 94 % 16.62 C
309 16-07-2015 01:55:00 17.6 C 94 % 16.62 C
310 16-07-2015 02:00:00 17.5 C 94 % 16.52 C
311 16-07-2015 02:05:00 17.4 C 94 % 16.42 C
312 16-07-2015 02:10:00 17.4 C 94 % 16.42 C
313 16-07-2015 02:15:00 17.3 C 94 % 16.33 C
314 16-07-2015 02:20:00 17.3 C 94 % 16.33 C
315 16-07-2015 02:25:00 17.3 C 94 % 16.33 C
316 16-07-2015 02:30:00 17.3 C 94 % 16.33 C
317 16-07-2015 02:35:00 17.2 C 94 % 16.23 C
318 16-07-2015 02:40:00 17.2 C 95 % 16.39 C
319 16-07-2015 02:45:00 17.2 C 95 % 16.39 C
320 16-07-2015 02:50:00 17.2 C 95 % 16.39 C
321 16-07-2015 02:55:00 17.1 C 95 % 16.29 C
322 16-07-2015 03:00:00 17.1 C 95 % 16.29 C
323 16-07-2015 03:05:00 17.1 C 95 % 16.29 C
324 16-07-2015 03:10:00 17 C 95 % 16.19 C
325 16-07-2015 03:15:00 17 C 95 % 16.19 C
Sensor: Nr:Datum:Temp:Feuchte:Taupunkt:
Aussen-T/F 326 16-07-2015 03:20:00 17 C 95 % 16.19 C
327 16-07-2015 03:25:00 17.1 C 95 % 16.29 C
328 16-07-2015 03:30:00 17.1 C 95 % 16.29 C
329 16-07-2015 03:35:00 17.1 C 95 % 16.29 C
330 16-07-2015 03:40:00 17.1 C 95 % 16.29 C
331 16-07-2015 03:45:00 17 C 95 % 16.19 C
332 16-07-2015 03:50:00 17 C 95 % 16.19 C
333 16-07-2015 03:55:00 16.9 C 95 % 16.09 C
334 16-07-2015 04:00:00 16.8 C 95 % 15.99 C
335 16-07-2015 04:05:00 16.8 C 95 % 15.99 C
336 16-07-2015 04:10:00 16.8 C 95 % 15.99 C
337 16-07-2015 04:15:00 16.7 C 95 % 15.9 C
338 16-07-2015 04:20:00 16.7 C 95 % 15.9 C
339 16-07-2015 04:25:00 16.7 C 95 % 15.9 C
340 16-07-2015 04:30:00 16.6 C 95 % 15.8 C
341 16-07-2015 04:35:00 16.7 C 95 % 15.9 C
342 16-07-2015 04:40:00 16.8 C 96 % 16.16 C
343 16-07-2015 04:45:00 16.9 C 96 % 16.26 C
344 16-07-2015 04:50:00 16.9 C 96 % 16.26 C
345 16-07-2015 04:55:00 16.9 C 96 % 16.26 C
346 16-07-2015 05:00:00 16.8 C 96 % 16.16 C
347 16-07-2015 05:05:00 16.8 C 96 % 16.16 C
348 16-07-2015 05:10:00 16.8 C 95 % 15.99 C
349 16-07-2015 05:15:00 16.8 C 95 % 15.99 C
350 16-07-2015 05:20:00 16.8 C 95 % 15.99 C
Sensor: Nr:Datum:Temp:Feuchte:Taupunkt:
Aussen-T/F 351 16-07-2015 05:25:00 16.8 C 95 % 15.99 C
352 16-07-2015 05:30:00 16.7 C 96 % 16.06 C
353 16-07-2015 05:35:00 16.8 C 96 % 16.16 C
354 16-07-2015 05:40:00 16.8 C 96 % 16.16 C
355 16-07-2015 05:45:00 16.7 C 96 % 16.06 C
356 16-07-2015 05:50:00 16.7 C 96 % 16.06 C
357 16-07-2015 05:55:00 16.7 C 96 % 16.06 C
358 16-07-2015 06:00:00 16.8 C 96 % 16.16 C
359 16-07-2015 06:05:00 16.9 C 96 % 16.26 C
360 16-07-2015 06:10:00 17 C 96 % 16.36 C
361 16-07-2015 06:15:00 17.1 C 96 % 16.46 C
362 16-07-2015 06:20:00 17.2 C 96 % 16.56 C
363 16-07-2015 06:25:00 17.2 C 96 % 16.56 C
364 16-07-2015 06:30:00 17.1 C 96 % 16.46 C
365 16-07-2015 06:35:00 17.1 C 96 % 16.46 C
366 16-07-2015 06:40:00 17.1 C 96 % 16.46 C
367 16-07-2015 06:45:00 17.1 C 96 % 16.46 C
368 16-07-2015 06:50:00 17.1 C 96 % 16.46 C
369 16-07-2015 06:55:00 17.1 C 96 % 16.46 C
370 16-07-2015 07:00:00 17.1 C 96 % 16.46 C
371 16-07-2015 07:05:00 17.1 C 96 % 16.46 C
372 16-07-2015 07:10:00 17.1 C 96 % 16.46 C
373 16-07-2015 07:15:00 17.2 C 96 % 16.56 C
374 16-07-2015 07:20:00 17.3 C 96 % 16.66 C
375 16-07-2015 07:25:00 17.3 C 96 % 16.66 C
Sensor: Nr:Datum:Temp:Feuchte:Taupunkt:
Aussen-T/F 376 16-07-2015 07:30:00 17.4 C 96 % 16.76 C
377 16-07-2015 07:35:00 17.4 C 95 % 16.59 C
378 16-07-2015 07:40:00 17.6 C 95 % 16.79 C
379 16-07-2015 07:45:00 17.6 C 95 % 16.79 C
380 16-07-2015 07:50:00 17.7 C 95 % 16.89 C
381 16-07-2015 07:55:00 17.8 C 95 % 16.99 C
382 16-07-2015 08:00:00 18 C 95 % 17.19 C
383 16-07-2015 08:05:00 18.2 C 95 % 17.39 C
384 16-07-2015 08:10:00 18.2 C 94 % 17.22 C
385 16-07-2015 08:15:00 18.4 C 94 % 17.42 C
386 16-07-2015 08:20:00 18.6 C 94 % 17.62 C
387 16-07-2015 08:25:00 18.8 C 93 % 17.64 C
388 16-07-2015 08:30:00 19.1 C 93 % 17.94 C
389 16-07-2015 08:35:00 19.3 C 92 % 17.97 C
390 16-07-2015 08:40:00 19.6 C 92 % 18.26 C
391 16-07-2015 08:45:00 19.9 C 91 % 18.39 C
392 16-07-2015 08:50:00 20.2 C 90 % 18.51 C
393 16-07-2015 08:55:00 20.4 C 89 % 18.53 C
394 16-07-2015 09:00:00 20.8 C 88 % 18.74 C
395 16-07-2015 09:05:00 21 C 86 % 18.57 C
396 16-07-2015 09:10:00 21.3 C 85 % 18.67 C
397 16-07-2015 09:15:00 21.4 C 84 % 18.58 C
398 16-07-2015 09:20:00 21.5 C 84 % 18.68 C
399 16-07-2015 09:25:00 21.4 C 84 % 18.58 C
400 16-07-2015 09:30:00 21.3 C 84 % 18.49 C
Sensor: Nr:Datum:Temp:Feuchte:Taupunkt:
Aussen-T/F 401 16-07-2015 09:35:00 21.3 C 84 % 18.49 C
402 16-07-2015 09:40:00 21.3 C 84 % 18.49 C
403 16-07-2015 09:45:00 21.4 C 84 % 18.58 C
404 16-07-2015 09:50:00 21.4 C 83 % 18.39 C
405 16-07-2015 09:55:00 21.5 C 84 % 18.68 C
406 16-07-2015 10:00:00 21.7 C 82 % 18.49 C
407 16-07-2015 10:05:00 21.8 C 82 % 18.59 C
408 16-07-2015 10:10:00 22.2 C 81 % 18.78 C
409 16-07-2015 10:15:00 22.6 C 78 % 18.57 C
410 16-07-2015 10:20:00 23 C 80 % 19.36 C
411 16-07-2015 10:25:00 23.3 C 75 % 18.62 C
412 16-07-2015 10:30:00 23.6 C 75 % 18.91 C
413 16-07-2015 10:35:00 23.7 C 76 % 19.22 C
414 16-07-2015 10:40:00 23.9 C 74 % 18.98 C
415 16-07-2015 10:45:00 24.2 C 74 % 19.27 C
416 16-07-2015 10:50:00 24.3 C 73 % 19.15 C
417 16-07-2015 10:55:00 24.5 C 72 % 19.12 C
418 16-07-2015 11:00:00 24.7 C 72 % 19.31 C
419 16-07-2015 11:05:00 24.8 C 72 % 19.41 C
420 16-07-2015 11:10:00 25.2 C 70 % 19.34 C
421 16-07-2015 11:15:00 25.4 C 69 % 19.3 C
422 16-07-2015 11:20:00 25.4 C 68 % 19.06 C
423 16-07-2015 11:25:00 25.5 C 68 % 19.16 C
424 16-07-2015 11:30:00 25.6 C 67 % 19.01 C
425 16-07-2015 11:35:00 25.7 C 66 % 18.87 C
Sensor: Nr:Datum:Temp:Feuchte:Taupunkt:
Aussen-T/F 426 16-07-2015 11:40:00 25.8 C 65 % 18.72 C
427 16-07-2015 11:45:00 25.9 C 65 % 18.81 C
428 16-07-2015 11:50:00 26.2 C 65 % 19.1 C
429 16-07-2015 11:55:00 26.4 C 65 % 19.29 C
430 16-07-2015 12:00:00 26.6 C 64 % 19.23 C
431 16-07-2015 12:05:00 26.8 C 62 % 18.91 C
432 16-07-2015 12:10:00 26.9 C 62 % 19 C
433 16-07-2015 12:15:00 27.1 C 60 % 18.66 C
434 16-07-2015 12:20:00 27.3 C 60 % 18.85 C
435 16-07-2015 12:25:00 27.5 C 60 % 19.04 C
436 16-07-2015 12:30:00 27.9 C 59 % 19.14 C
437 16-07-2015 12:35:00 28 C 56 % 18.4 C
438 16-07-2015 12:40:00 28.1 C 59 % 19.33 C
439 16-07-2015 12:45:00 28.3 C 57 % 18.96 C
440 16-07-2015 12:50:00 28.4 C 57 % 19.06 C
441 16-07-2015 12:55:00 28.5 C 56 % 18.87 C
442 16-07-2015 13:00:00 28.7 C 55 % 18.76 C
443 16-07-2015 13:05:00 28.7 C 54 % 18.47 C
444 16-07-2015 13:10:00 28.7 C 55 % 18.76 C
445 16-07-2015 13:15:00 28.9 C 53 % 18.36 C
446 16-07-2015 13:20:00 29.1 C 54 % 18.84 C
447 16-07-2015 13:25:00 29.3 C 55 % 19.32 C
448 16-07-2015 13:30:00 29.6 C 54 % 19.3 C
449 16-07-2015 13:35:00 29.8 C 53 % 19.19 C
450 16-07-2015 13:40:00 29.8 C 50 % 18.25 C
Sensor: Nr:Datum:Temp:Feuchte:Taupunkt:
Aussen-T/F 451 16-07-2015 13:45:00 29.7 C 49 % 17.84 C
452 16-07-2015 13:50:00 29.6 C 52 % 18.7 C
453 16-07-2015 13:55:00 29.7 C 50 % 18.16 C
454 16-07-2015 14:00:00 29.7 C 52 % 18.79 C
455 16-07-2015 14:05:00 29.7 C 52 % 18.79 C
456 16-07-2015 14:10:00 30.1 C 50 % 18.53 C
457 16-07-2015 14:15:00 30.4 C 50 % 18.8 C
458 16-07-2015 14:20:00 30.7 C 49 % 18.75 C
459 16-07-2015 14:25:00 30.9 C 48 % 18.61 C
460 16-07-2015 14:30:00 31.2 C 46 % 18.2 C
461 16-07-2015 14:35:00 30.9 C 46 % 17.93 C
462 16-07-2015 14:40:00 30.6 C 47 % 18 C
463 16-07-2015 14:45:00 30.3 C 48 % 18.06 C
464 16-07-2015 14:50:00 30.4 C 47 % 17.82 C
465 16-07-2015 14:55:00 30.5 C 48 % 18.24 C
466 16-07-2015 15:00:00 30.8 C 47 % 18.18 C
467 16-07-2015 15:05:00 30.8 C 46 % 17.84 C
468 16-07-2015 15:10:00 30.6 C 46 % 17.66 C
469 16-07-2015 15:15:00 30.3 C 48 % 18.06 C
470 16-07-2015 15:20:00 30.1 C 49 % 18.21 C
471 16-07-2015 15:25:00 29.8 C 49 % 17.93 C
472 16-07-2015 15:30:00 29.8 C 52 % 18.88 C
473 16-07-2015 15:35:00 29.8 C 51 % 18.57 C
474 16-07-2015 15:40:00 29.8 C 53 % 19.19 C
475 16-07-2015 15:45:00 29.6 C 51 % 18.39 C
Sensor: Nr:Datum:Temp:Feuchte:Taupunkt:
Aussen-T/F 476 16-07-2015 15:50:00 29.6 C 52 % 18.7 C
477 16-07-2015 15:55:00 29.7 C 49 % 17.84 C
478 16-07-2015 16:00:00 29.9 C 51 % 18.66 C
479 16-07-2015 16:05:00 30.2 C 50 % 18.62 C
480 16-07-2015 16:10:00 30.4 C 48 % 18.15 C
481 16-07-2015 16:15:00 30.7 C 48 % 18.43 C
482 16-07-2015 16:20:00 31.4 C 46 % 18.38 C
483 16-07-2015 16:25:00 31.7 C 45 % 18.3 C
484 16-07-2015 16:30:00 31.8 C 45 % 18.39 C
485 16-07-2015 16:35:00 32.2 C 45 % 18.75 C
486 16-07-2015 16:40:00 32.5 C 43 % 18.3 C
487 16-07-2015 16:45:00 32.8 C 43 % 18.57 C
488 16-07-2015 16:50:00 33.3 C 41 % 18.25 C
489 16-07-2015 16:55:00 33.3 C 41 % 18.25 C
490 16-07-2015 17:00:00 33.3 C 41 % 18.25 C
491 16-07-2015 17:05:00 33.3 C 40 % 17.86 C
492 16-07-2015 17:10:00 33.4 C 39 % 17.55 C
493 16-07-2015 17:15:00 33.4 C 41 % 18.34 C
494 16-07-2015 17:20:00 33.4 C 40 % 17.95 C
495 16-07-2015 17:25:00 33.1 C 40 % 17.68 C
496 16-07-2015 17:30:00 32.9 C 42 % 18.28 C
497 16-07-2015 17:35:00 33.2 C 41 % 18.17 C
498 16-07-2015 17:40:00 33.2 C 41 % 18.17 C
499 16-07-2015 17:45:00 33.2 C 41 % 18.17 C
500 16-07-2015 17:50:00 33.4 C 39 % 17.55 C
Sensor: Nr:Datum:Temp:Feuchte:Taupunkt:
Aussen-T/F 501 16-07-2015 17:55:00 33.3 C 41 % 18.25 C
502 16-07-2015 18:00:00 33.6 C 40 % 18.13 C
503 16-07-2015 18:05:00 33.7 C 40 % 18.22 C
504 16-07-2015 18:10:00 33.8 C 39 % 17.9 C
505 16-07-2015 18:15:00 33.6 C 38 % 17.31 C
506 16-07-2015 18:20:00 33.6 C 38 % 17.31 C
507 16-07-2015 18:25:00 33.8 C 39 % 17.9 C
508 16-07-2015 18:30:00 34.1 C 39 % 18.17 C
509 16-07-2015 18:35:00 34.2 C 37 % 17.42 C
510 16-07-2015 18:40:00 33.9 C 39 % 17.99 C
511 16-07-2015 18:45:00 34.1 C 38 % 17.76 C
512 16-07-2015 18:50:00 34 C 38 % 17.67 C
513 16-07-2015 18:55:00 34.1 C 37 % 17.33 C
514 16-07-2015 19:00:00 34 C 38 % 17.67 C
515 16-07-2015 19:05:00 33.9 C 38 % 17.58 C
516 16-07-2015 19:10:00 33.8 C 38 % 17.49 C
517 16-07-2015 19:15:00 33.8 C 38 % 17.49 C
518 16-07-2015 19:20:00 33.8 C 38 % 17.49 C
519 16-07-2015 19:25:00 33.8 C 39 % 17.9 C
520 16-07-2015 19:30:00 33.4 C 41 % 18.34 C
521 16-07-2015 19:35:00 32.8 C 40 % 17.42 C
522 16-07-2015 19:40:00 32.3 C 47 % 19.54 C
523 16-07-2015 19:45:00 31.7 C 48 % 19.34 C
524 16-07-2015 19:50:00 31 C 51 % 19.67 C
525 16-07-2015 19:55:00 30.6 C 51 % 19.3 C
Sensor: Nr:Datum:Temp:Feuchte:Taupunkt:
Aussen-T/F 526 16-07-2015 20:00:00 30.1 C 52 % 19.16 C
527 16-07-2015 20:05:00 29.6 C 53 % 19 C
528 16-07-2015 20:10:00 29.1 C 55 % 19.13 C
529 16-07-2015 20:15:00 28.8 C 55 % 18.86 C
530 16-07-2015 20:20:00 28.5 C 57 % 19.15 C
531 16-07-2015 20:25:00 28.2 C 57 % 18.87 C
532 16-07-2015 20:30:00 27.8 C 58 % 18.78 C
533 16-07-2015 20:35:00 27.6 C 59 % 18.86 C
534 16-07-2015 20:40:00 27.3 C 60 % 18.85 C
535 16-07-2015 20:45:00 27 C 61 % 18.83 C
536 16-07-2015 20:50:00 26.7 C 62 % 18.81 C
537 16-07-2015 20:55:00 26.5 C 62 % 18.62 C
538 16-07-2015 21:00:00 26.2 C 63 % 18.6 C
539 16-07-2015 21:05:00 25.9 C 64 % 18.57 C
540 16-07-2015 21:10:00 25.6 C 65 % 18.53 C
541 16-07-2015 21:15:00 25.3 C 65 % 18.25 C
542 16-07-2015 21:20:00 25.1 C 66 % 18.3 C
543 16-07-2015 21:25:00 24.9 C 66 % 18.11 C
544 16-07-2015 21:30:00 24.8 C 67 % 18.25 C
545 16-07-2015 21:35:00 24.6 C 67 % 18.06 C
546 16-07-2015 21:40:00 24.5 C 68 % 18.2 C
547 16-07-2015 21:45:00 24.4 C 68 % 18.11 C
548 16-07-2015 21:50:00 24.3 C 68 % 18.01 C
549 16-07-2015 21:55:00 24.2 C 69 % 18.15 C
550 16-07-2015 22:00:00 24.1 C 69 % 18.06 C
Sensor: Nr:Datum:Temp:Feuchte:Taupunkt:
Aussen-T/F 551 16-07-2015 22:05:00 23.9 C 69 % 17.87 C
552 16-07-2015 22:10:00 23.9 C 69 % 17.87 C
553 16-07-2015 22:15:00 23.9 C 69 % 17.87 C
554 16-07-2015 22:20:00 23.9 C 69 % 17.87 C
555 16-07-2015 22:25:00 23.7 C 69 % 17.67 C
556 16-07-2015 22:30:00 23.6 C 69 % 17.58 C
557 16-07-2015 22:35:00 23.5 C 69 % 17.48 C
558 16-07-2015 22:40:00 23.5 C 69 % 17.48 C
559 16-07-2015 22:45:00 23.3 C 68 % 17.06 C
560 16-07-2015 22:50:00 23.3 C 69 % 17.29 C
561 16-07-2015 22:55:00 23.2 C 69 % 17.2 C
562 16-07-2015 23:00:00 23.2 C 69 % 17.2 C
563 16-07-2015 23:05:00 23.1 C 69 % 17.1 C
564 16-07-2015 23:10:00 23.1 C 70 % 17.33 C
565 16-07-2015 23:15:00 22.9 C 70 % 17.14 C
566 16-07-2015 23:20:00 22.9 C 70 % 17.14 C
567 16-07-2015 23:25:00 22.8 C 71 % 17.27 C
568 16-07-2015 23:30:00 22.7 C 70 % 16.95 C
569 16-07-2015 23:35:00 22.7 C 71 % 17.17 C
570 16-07-2015 23:40:00 22.6 C 71 % 17.07 C
571 16-07-2015 23:45:00 22.5 C 71 % 16.98 C
572 16-07-2015 23:50:00 22.4 C 71 % 16.88 C
573 16-07-2015 23:55:00 22.4 C 72 % 17.1 C
574 17-07-2015 00:00:00 22.3 C 72 % 17.01 C
575 17-07-2015 00:05:00 22.3 C 72 % 17.01 C
Sensor: Nr:Datum:Temp:Feuchte:Taupunkt:
Aussen-T/F 576 17-07-2015 00:10:00 22.3 C 73 % 17.23 C
577 17-07-2015 00:15:00 22.3 C 72 % 17.01 C
578 17-07-2015 00:20:00 22.1 C 72 % 16.82 C
579 17-07-2015 00:25:00 22 C 73 % 16.94 C
580 17-07-2015 00:30:00 21.9 C 73 % 16.84 C
581 17-07-2015 00:35:00 21.8 C 72 % 16.53 C
582 17-07-2015 00:40:00 21.8 C 73 % 16.75 C
583 17-07-2015 00:45:00 21.6 C 74 % 16.77 C
584 17-07-2015 00:50:00 21.4 C 74 % 16.57 C
585 17-07-2015 00:55:00 21.2 C 74 % 16.38 C
586 17-07-2015 01:00:00 21.1 C 75 % 16.5 C
587 17-07-2015 01:05:00 21.1 C 76 % 16.7 C
588 17-07-2015 01:10:00 20.9 C 76 % 16.51 C
589 17-07-2015 01:15:00 20.9 C 76 % 16.51 C
590 17-07-2015 01:20:00 20.9 C 76 % 16.51 C
591 17-07-2015 01:25:00 20.8 C 76 % 16.41 C
592 17-07-2015 01:30:00 20.8 C 77 % 16.62 C
593 17-07-2015 01:35:00 20.7 C 77 % 16.52 C
594 17-07-2015 01:40:00 20.6 C 77 % 16.43 C
595 17-07-2015 01:45:00 20.6 C 77 % 16.43 C
596 17-07-2015 01:50:00 20.6 C 77 % 16.43 C
597 17-07-2015 01:55:00 20.5 C 78 % 16.53 C
598 17-07-2015 02:00:00 20.4 C 78 % 16.44 C
599 17-07-2015 02:05:00 20.4 C 79 % 16.64 C
600 17-07-2015 02:10:00 20.3 C 79 % 16.54 C
Sensor: Nr:Datum:Temp:Feuchte:Taupunkt:
Aussen-T/F 601 17-07-2015 02:15:00 20.3 C 79 % 16.54 C
602 17-07-2015 02:20:00 20.4 C 79 % 16.64 C
603 17-07-2015 02:25:00 20.4 C 80 % 16.83 C
604 17-07-2015 02:30:00 20.4 C 80 % 16.83 C
605 17-07-2015 02:35:00 20.7 C 80 % 17.13 C
606 17-07-2015 02:40:00 20.7 C 80 % 17.13 C
607 17-07-2015 02:45:00 20.7 C 80 % 17.13 C
608 17-07-2015 02:50:00 20.6 C 80 % 17.03 C
609 17-07-2015 02:55:00 20.6 C 80 % 17.03 C
610 17-07-2015 03:00:00 20.5 C 80 % 16.93 C
611 17-07-2015 03:05:00 20.4 C 80 % 16.83 C
612 17-07-2015 03:10:00 20.4 C 80 % 16.83 C
613 17-07-2015 03:15:00 20.4 C 81 % 17.03 C
614 17-07-2015 03:20:00 20.4 C 81 % 17.03 C
615 17-07-2015 03:25:00 20.3 C 82 % 17.13 C
616 17-07-2015 03:30:00 20.3 C 83 % 17.32 C
617 17-07-2015 03:35:00 20.2 C 83 % 17.22 C
618 17-07-2015 03:40:00 20.2 C 84 % 17.41 C
619 17-07-2015 03:45:00 20.2 C 84 % 17.41 C
620 17-07-2015 03:50:00 20.2 C 84 % 17.41 C
621 17-07-2015 03:55:00 20.2 C 84 % 17.41 C
622 17-07-2015 04:00:00 20.2 C 84 % 17.41 C
623 17-07-2015 04:05:00 20.2 C 83 % 17.22 C
624 17-07-2015 04:10:00 20.2 C 83 % 17.22 C
625 17-07-2015 04:15:00 20.2 C 83 % 17.22 C
Sensor: Nr:Datum:Temp:Feuchte:Taupunkt:
Aussen-T/F 626 17-07-2015 04:20:00 20.2 C 83 % 17.22 C
627 17-07-2015 04:25:00 20.2 C 83 % 17.22 C
628 17-07-2015 05:05:00 23.7 C 66 % 16.97 C
629 17-07-2015 05:10:00 22.7 C 70 % 16.95 C
630 17-07-2015 05:15:00 22.6 C 70 % 16.85 C
631 17-07-2015 05:20:00 22.7 C 70 % 16.95 C
632 17-07-2015 05:25:00 22.7 C 70 % 16.95 C
633 17-07-2015 05:45:00 23.6 C 66 % 16.88 C
634 17-07-2015 05:50:00 23.6 C 66 % 16.88 C
635 17-07-2015 05:55:00 23.6 C 62 % 15.89 C
636 17-07-2015 06:00:00 24.1 C 62 % 16.37 C
637 17-07-2015 06:05:00 24.6 C 56 % 15.24 C
638 17-07-2015 06:10:00 24.8 C 58 % 15.98 C
639 17-07-2015 06:15:00 24.7 C 60 % 16.41 C
640 17-07-2015 06:20:00 24.7 C 60 % 16.41 C
641 17-07-2015 06:25:00 24.7 C 60 % 16.41 C
642 17-07-2015 07:00:00 22.4 C 69 % 16.43 C
643 17-07-2015 07:05:00 22.3 C 69 % 16.34 C
644 17-07-2015 07:10:00 22.3 C 68 % 16.11 C
645 17-07-2015 07:15:00 22.4 C 69 % 16.43 C
646 17-07-2015 07:20:00 22.4 C 68 % 16.2 C
647 17-07-2015 07:25:00 22.3 C 69 % 16.34 C
648 17-07-2015 07:30:00 22.2 C 69 % 16.24 C
649 17-07-2015 07:35:00 22.2 C 68 % 16.01 C
650 17-07-2015 07:40:00 22.3 C 70 % 16.56 C
Sensor: Nr:Datum:Temp:Feuchte:Taupunkt:
Aussen-T/F 651 17-07-2015 07:45:00 22.4 C 69 % 16.43 C
652 17-07-2015 07:50:00 22.6 C 66 % 15.93 C
653 17-07-2015 07:55:00 23.1 C 65 % 16.16 C
654 17-07-2015 08:00:00 23.4 C 66 % 16.69 C
655 17-07-2015 08:05:00 23.3 C 63 % 15.86 C
656 17-07-2015 08:10:00 23.4 C 67 % 16.92 C
657 17-07-2015 08:15:00 23.5 C 64 % 16.3 C
658 17-07-2015 08:20:00 23.6 C 67 % 17.11 C
659 17-07-2015 08:25:00 23.6 C 67 % 17.11 C
660 17-07-2015 08:30:00 23.8 C 64 % 16.58 C
661 17-07-2015 08:35:00 23.9 C 68 % 17.63 C
662 17-07-2015 08:40:00 23.8 C 68 % 17.54 C
663 17-07-2015 08:45:00 23.6 C 70 % 17.81 C
664 17-07-2015 08:50:00 23.3 C 69 % 17.29 C
665 17-07-2015 08:55:00 23.2 C 71 % 17.65 C
666 17-07-2015 09:00:00 23.2 C 71 % 17.65 C
667 17-07-2015 09:05:00 23.2 C 71 % 17.65 C
668 17-07-2015 09:10:00 23.4 C 69 % 17.39 C
669 17-07-2015 09:15:00 23.7 C 70 % 17.9 C
670 17-07-2015 09:20:00 23.9 C 65 % 16.92 C
671 17-07-2015 09:25:00 24.4 C 64 % 17.15 C
672 17-07-2015 09:30:00 24.9 C 62 % 17.12 C
673 17-07-2015 09:35:00 25.3 C 61 % 17.24 C
674 17-07-2015 09:40:00 25.6 C 61 % 17.52 C
675 17-07-2015 09:45:00 25.8 C 60 % 17.45 C
Sensor: Nr:Datum:Temp:Feuchte:Taupunkt:
Aussen-T/F 676 17-07-2015 09:50:00 25.9 C 59 % 17.27 C
677 17-07-2015 09:55:00 26.2 C 58 % 17.28 C
678 17-07-2015 10:00:00 26.3 C 58 % 17.38 C
679 17-07-2015 10:05:00 26.5 C 58 % 17.56 C
680 17-07-2015 10:10:00 26.6 C 57 % 17.38 C
681 17-07-2015 10:15:00 26.7 C 57 % 17.47 C
682 17-07-2015 10:20:00 26.7 C 57 % 17.47 C
683 17-07-2015 10:25:00 26.7 C 56 % 17.19 C
684 17-07-2015 10:30:00 26.7 C 56 % 17.19 C
685 17-07-2015 10:35:00 26.9 C 56 % 17.38 C
686 17-07-2015 10:40:00 26.9 C 56 % 17.38 C
687 17-07-2015 10:45:00 27.3 C 53 % 16.88 C
688 17-07-2015 10:50:00 27.4 C 53 % 16.97 C
689 17-07-2015 10:55:00 27.8 C 52 % 17.04 C
690 17-07-2015 11:00:00 27.9 C 50 % 16.51 C
691 17-07-2015 11:05:00 28.1 C 49 % 16.38 C
692 17-07-2015 11:10:00 28.4 C 49 % 16.65 C
693 17-07-2015 11:15:00 28.8 C 48 % 16.69 C
694 17-07-2015 11:20:00 29.1 C 46 % 16.3 C
695 17-07-2015 11:25:00 29.3 C 46 % 16.48 C
696 17-07-2015 11:30:00 29.4 C 46 % 16.57 C
697 17-07-2015 11:35:00 29.6 C 46 % 16.75 C
698 17-07-2015 11:40:00 29.7 C 45 % 16.5 C
699 17-07-2015 11:45:00 29.8 C 47 % 17.27 C
700 17-07-2015 11:50:00 29.9 C 46 % 17.02 C
Sensor: Nr:Datum:Temp:Feuchte:Taupunkt:
Aussen-T/F 701 17-07-2015 11:55:00 30.2 C 46 % 17.3 C
702 17-07-2015 12:00:00 30.3 C 45 % 17.04 C
703 17-07-2015 12:05:00 30.4 C 45 % 17.13 C
704 17-07-2015 12:10:00 30.7 C 44 % 17.04 C
705 17-07-2015 12:15:00 30.9 C 44 % 17.22 C
706 17-07-2015 12:20:00 31.2 C 44 % 17.49 C
707 17-07-2015 12:25:00 31.5 C 42 % 17.03 C
708 17-07-2015 12:30:00 31.7 C 42 % 17.21 C
709 17-07-2015 12:35:00 31.8 C 41 % 16.92 C
710 17-07-2015 12:40:00 31.8 C 42 % 17.3 C
711 17-07-2015 12:45:00 31.9 C 40 % 16.62 C
712 17-07-2015 12:50:00 32.4 C 39 % 16.66 C
713 17-07-2015 12:55:00 32.7 C 41 % 17.72 C
714 17-07-2015 13:00:00 32.8 C 37 % 16.19 C
715 17-07-2015 13:05:00 33.1 C 36 % 16.02 C
716 17-07-2015 13:10:00 33.2 C 36 % 16.11 C
717 17-07-2015 13:15:00 33.3 C 36 % 16.2 C
718 17-07-2015 13:20:00 33.4 C 36 % 16.29 C
719 17-07-2015 13:25:00 33.7 C 36 % 16.55 C
720 17-07-2015 13:30:00 34 C 35 % 16.37 C
721 17-07-2015 13:35:00 34.4 C 33 % 15.8 C
722 17-07-2015 13:40:00 34.4 C 33 % 15.8 C
723 17-07-2015 13:45:00 34.4 C 32 % 15.32 C
724 17-07-2015 13:50:00 34.4 C 32 % 15.32 C
725 17-07-2015 13:55:00 34.7 C 32 % 15.58 C
Sensor: Nr:Datum:Temp:Feuchte:Taupunkt:
Aussen-T/F 726 17-07-2015 14:00:00 34.8 C 32 % 15.66 C
727 17-07-2015 14:05:00 35.3 C 26 % 12.88 C
728 17-07-2015 14:10:00 35.4 C 25 % 12.37 C
729 17-07-2015 14:15:00 35.4 C 24 % 11.75 C
730 17-07-2015 14:20:00 35.6 C 24 % 11.92 C
731 17-07-2015 14:25:00 35.6 C 24 % 11.92 C
732 17-07-2015 14:30:00 35.8 C 22 % 10.77 C
733 17-07-2015 14:35:00 35.9 C 21 % 10.15 C
734 17-07-2015 14:40:00 35.8 C 22 % 10.77 C
735 17-07-2015 14:45:00 35.8 C 22 % 10.77 C
736 17-07-2015 14:50:00 35.9 C 21 % 10.15 C
737 17-07-2015 14:55:00 36.1 C 22 % 11.02 C
738 17-07-2015 15:00:00 36.2 C 22 % 11.1 C
739 17-07-2015 15:05:00 36.1 C 22 % 11.02 C
740 17-07-2015 15:10:00 35.8 C 23 % 11.44 C
741 17-07-2015 15:15:00 35.9 C 22 % 10.85 C
742 17-07-2015 15:20:00 36.1 C 22 % 11.02 C
743 17-07-2015 15:25:00 36.4 C 20 % 9.84 C
744 17-07-2015 15:30:00 36.4 C 20 % 9.84 C
745 17-07-2015 15:35:00 36.3 C 20 % 9.75 C
746 17-07-2015 15:40:00 36.3 C 19 % 8.99 C
747 17-07-2015 15:45:00 36.4 C 21 % 10.56 C
748 17-07-2015 15:50:00 36.6 C 20 % 10 C
749 17-07-2015 15:55:00 36.4 C 18 % 8.27 C
750 17-07-2015 16:00:00 36.6 C 19 % 9.24 C
Sensor: Nr:Datum:Temp:Feuchte:Taupunkt:
Aussen-T/F 751 17-07-2015 16:05:00 36.6 C 20 % 10 C
752 17-07-2015 16:10:00 36.6 C 20 % 10 C
753 17-07-2015 16:15:00 36.6 C 21 % 10.73 C
754 17-07-2015 16:20:00 36.5 C 21 % 10.65 C
755 17-07-2015 16:25:00 36.3 C 21 % 10.48 C
756 17-07-2015 16:30:00 36.3 C 21 % 10.48 C
757 17-07-2015 16:35:00 36.6 C 21 % 10.73 C
758 17-07-2015 16:40:00 36.7 C 21 % 10.81 C
759 17-07-2015 16:45:00 36.7 C 22 % 11.51 C
760 17-07-2015 16:50:00 36.8 C 21 % 10.89 C
761 17-07-2015 16:55:00 36.6 C 22 % 11.43 C
762 17-07-2015 17:00:00 36.3 C 22 % 11.18 C
763 17-07-2015 17:05:00 36.4 C 23 % 11.94 C
764 17-07-2015 17:10:00 36.6 C 22 % 11.43 C
765 17-07-2015 17:15:00 36.5 C 23 % 12.02 C
766 17-07-2015 17:20:00 36.6 C 22 % 11.43 C
767 17-07-2015 17:25:00 36.6 C 23 % 12.1 C
768 17-07-2015 17:30:00 36.6 C 23 % 12.1 C
769 17-07-2015 17:35:00 36.7 C 24 % 12.83 C
770 17-07-2015 17:40:00 36.7 C 23 % 12.18 C
771 17-07-2015 17:45:00 36.5 C 24 % 12.67 C
772 17-07-2015 17:50:00 36.3 C 23 % 11.85 C
773 17-07-2015 17:55:00 36.3 C 25 % 13.12 C
774 17-07-2015 18:00:00 36.2 C 26 % 13.64 C
775 17-07-2015 18:05:00 36.2 C 26 % 13.64 C
Sensor: Nr:Datum:Temp:Feuchte:Taupunkt:
Aussen-T/F 776 17-07-2015 18:10:00 36.1 C 25 % 12.95 C
777 17-07-2015 18:15:00 36.1 C 26 % 13.56 C
778 17-07-2015 18:20:00 36.1 C 25 % 12.95 C
779 17-07-2015 18:25:00 36.1 C 25 % 12.95 C
780 17-07-2015 18:30:00 35.9 C 26 % 13.39 C
781 17-07-2015 18:35:00 36.1 C 26 % 13.56 C
782 17-07-2015 18:40:00 36 C 26 % 13.47 C
783 17-07-2015 18:45:00 35.8 C 26 % 13.3 C
784 17-07-2015 18:50:00 35.7 C 27 % 13.8 C
785 17-07-2015 18:55:00 35.5 C 27 % 13.63 C
786 17-07-2015 19:00:00 35.6 C 27 % 13.71 C
787 17-07-2015 19:05:00 35.6 C 27 % 13.71 C
788 17-07-2015 19:10:00 35.4 C 27 % 13.54 C
789 17-07-2015 19:15:00 35.3 C 27 % 13.46 C
790 17-07-2015 19:20:00 35.2 C 27 % 13.38 C
791 17-07-2015 19:25:00 35 C 27 % 13.21 C
792 17-07-2015 19:30:00 34.9 C 29 % 14.22 C
793 17-07-2015 19:35:00 34.7 C 28 % 13.51 C
794 17-07-2015 19:40:00 34.5 C 29 % 13.88 C
795 17-07-2015 19:45:00 34.3 C 30 % 14.23 C
796 17-07-2015 19:50:00 34.1 C 30 % 14.06 C
797 17-07-2015 19:55:00 33.9 C 30 % 13.89 C
798 17-07-2015 20:00:00 33.7 C 31 % 14.22 C
799 17-07-2015 20:05:00 33.6 C 32 % 14.62 C
800 17-07-2015 20:10:00 33.3 C 33 % 14.84 C
Sensor: Nr:Datum:Temp:Feuchte:Taupunkt:
Aussen-T/F 801 17-07-2015 20:15:00 33.1 C 33 % 14.67 C
802 17-07-2015 20:20:00 32.8 C 36 % 15.76 C
803 17-07-2015 20:25:00 32.6 C 34 % 14.7 C
804 17-07-2015 20:30:00 32.6 C 35 % 15.15 C
805 17-07-2015 20:35:00 32.3 C 37 % 15.75 C
806 17-07-2015 20:40:00 31.9 C 35 % 14.53 C
807 17-07-2015 20:45:00 31.7 C 39 % 16.04 C
808 17-07-2015 20:50:00 31.2 C 39 % 15.6 C
809 17-07-2015 20:55:00 30.8 C 40 % 15.64 C
810 17-07-2015 21:00:00 30.5 C 40 % 15.37 C
811 17-07-2015 21:05:00 30.3 C 40 % 15.19 C
812 17-07-2015 21:10:00 30 C 42 % 15.69 C
813 17-07-2015 21:15:00 29.8 C 40 % 14.75 C
814 17-07-2015 21:20:00 29.6 C 43 % 15.69 C
815 17-07-2015 21:25:00 29.5 C 44 % 15.96 C
816 17-07-2015 21:30:00 29.3 C 41 % 14.68 C
817 17-07-2015 21:35:00 29 C 46 % 16.21 C
818 17-07-2015 21:40:00 28.4 C 48 % 16.33 C
819 17-07-2015 21:45:00 27.9 C 49 % 16.2 C
820 17-07-2015 21:50:00 27.4 C 51 % 16.37 C
821 17-07-2015 21:55:00 27.2 C 50 % 15.87 C
822 17-07-2015 22:00:00 27.2 C 48 % 15.24 C
823 17-07-2015 22:05:00 27.1 C 51 % 16.09 C
824 17-07-2015 22:10:00 26.9 C 52 % 16.21 C
825 17-07-2015 22:15:00 26.8 C 52 % 16.12 C
Sensor: Nr:Datum:Temp:Feuchte:Taupunkt:
Aussen-T/F 826 17-07-2015 22:20:00 26.7 C 52 % 16.03 C
827 17-07-2015 22:25:00 26.6 C 53 % 16.23 C
828 17-07-2015 22:30:00 26.6 C 51 % 15.63 C
829 17-07-2015 22:35:00 26.6 C 52 % 15.94 C
830 17-07-2015 22:40:00 26.6 C 53 % 16.23 C
831 17-07-2015 22:45:00 26.3 C 54 % 16.25 C
832 17-07-2015 22:50:00 25.9 C 55 % 16.17 C
833 17-07-2015 22:55:00 25.7 C 56 % 16.26 C
834 17-07-2015 23:00:00 25.5 C 57 % 16.36 C
835 17-07-2015 23:05:00 25.3 C 55 % 15.61 C
836 17-07-2015 23:10:00 25.3 C 57 % 16.17 C
837 17-07-2015 23:15:00 25.3 C 56 % 15.89 C
838 17-07-2015 23:20:00 25.3 C 57 % 16.17 C
839 17-07-2015 23:25:00 25.2 C 57 % 16.08 C
840 17-07-2015 23:30:00 25.2 C 57 % 16.08 C
841 17-07-2015 23:35:00 25.1 C 57 % 15.98 C
842 17-07-2015 23:40:00 25.3 C 57 % 16.17 C
843 17-07-2015 23:45:00 25.4 C 58 % 16.54 C
844 17-07-2015 23:50:00 25.3 C 59 % 16.71 C
845 17-07-2015 23:55:00 25.3 C 59 % 16.71 C
846 18-07-2015 00:00:00 25.2 C 60 % 16.88 C
847 18-07-2015 00:05:00 25 C 61 % 16.96 C
848 18-07-2015 00:10:00 24.8 C 62 % 17.02 C
849 18-07-2015 00:15:00 24.6 C 63 % 17.09 C
850 18-07-2015 00:20:00 24.4 C 63 % 16.9 C
Sensor: Nr:Datum:Temp:Feuchte:Taupunkt:
Aussen-T/F 851 18-07-2015 00:25:00 24.3 C 63 % 16.81 C
852 18-07-2015 00:30:00 24.3 C 63 % 16.81 C
853 18-07-2015 00:35:00 24.2 C 64 % 16.96 C
854 18-07-2015 00:40:00 24.1 C 65 % 17.11 C
855 18-07-2015 00:45:00 23.8 C 65 % 16.83 C
856 18-07-2015 00:50:00 23.6 C 66 % 16.88 C
857 18-07-2015 00:55:00 23.6 C 66 % 16.88 C
858 18-07-2015 01:00:00 23.6 C 66 % 16.88 C
859 18-07-2015 01:05:00 23.1 C 68 % 16.87 C
860 18-07-2015 01:10:00 22.9 C 69 % 16.91 C
861 18-07-2015 01:15:00 22.9 C 68 % 16.68 C
862 18-07-2015 01:20:00 22.9 C 69 % 16.91 C
863 18-07-2015 01:25:00 23 C 69 % 17.01 C
864 18-07-2015 01:30:00 22.9 C 69 % 16.91 C
865 18-07-2015 01:35:00 22.7 C 69 % 16.72 C
866 18-07-2015 01:40:00 22.6 C 70 % 16.85 C
867 18-07-2015 01:45:00 22.4 C 71 % 16.88 C
868 18-07-2015 01:50:00 22.2 C 71 % 16.69 C
869 18-07-2015 01:55:00 22.1 C 72 % 16.82 C
870 18-07-2015 02:00:00 21.9 C 72 % 16.62 C
871 18-07-2015 02:05:00 21.8 C 72 % 16.53 C
872 18-07-2015 02:10:00 21.7 C 73 % 16.65 C
873 18-07-2015 02:15:00 21.7 C 72 % 16.43 C
874 18-07-2015 02:20:00 21.9 C 71 % 16.4 C
875 18-07-2015 02:25:00 22.1 C 71 % 16.6 C
Sensor: Nr:Datum:Temp:Feuchte:Taupunkt:
Aussen-T/F 876 18-07-2015 02:30:00 22.2 C 69 % 16.24 C
877 18-07-2015 02:35:00 22.5 C 68 % 16.3 C
878 18-07-2015 02:40:00 22.7 C 67 % 16.26 C
879 18-07-2015 02:45:00 22.7 C 67 % 16.26 C
880 18-07-2015 02:50:00 22.7 C 67 % 16.26 C
881 18-07-2015 02:55:00 22.5 C 68 % 16.3 C
882 18-07-2015 03:00:00 22.3 C 69 % 16.34 C
883 18-07-2015 03:05:00 22.1 C 70 % 16.37 C
884 18-07-2015 03:10:00 21.7 C 71 % 16.21 C
885 18-07-2015 03:15:00 21.4 C 72 % 16.14 C
886 18-07-2015 03:20:00 21.2 C 73 % 16.17 C
887 18-07-2015 03:25:00 21 C 74 % 16.19 C
888 18-07-2015 03:30:00 20.9 C 74 % 16.09 C
889 18-07-2015 03:35:00 20.9 C 74 % 16.09 C
890 18-07-2015 03:40:00 20.9 C 74 % 16.09 C
891 18-07-2015 03:45:00 20.8 C 74 % 16 C
892 18-07-2015 03:50:00 20.8 C 74 % 16 C
893 18-07-2015 03:55:00 20.7 C 75 % 16.11 C
894 18-07-2015 04:00:00 20.7 C 75 % 16.11 C
895 18-07-2015 04:05:00 20.7 C 75 % 16.11 C
896 18-07-2015 04:10:00 20.7 C 75 % 16.11 C
897 18-07-2015 04:15:00 20.7 C 75 % 16.11 C
898 18-07-2015 04:20:00 20.6 C 76 % 16.22 C
899 18-07-2015 04:25:00 20.6 C 76 % 16.22 C
900 18-07-2015 04:30:00 20.4 C 77 % 16.23 C
Sensor: Nr:Datum:Temp:Feuchte:Taupunkt:
Aussen-T/F 901 18-07-2015 04:35:00 20.4 C 77 % 16.23 C
902 18-07-2015 04:40:00 20.4 C 77 % 16.23 C
903 18-07-2015 04:45:00 20.5 C 77 % 16.33 C
904 18-07-2015 04:50:00 20.5 C 77 % 16.33 C
905 18-07-2015 04:55:00 20.4 C 77 % 16.23 C
906 18-07-2015 05:00:00 20.5 C 76 % 16.12 C
907 18-07-2015 05:05:00 20.6 C 76 % 16.22 C
908 18-07-2015 05:10:00 20.5 C 76 % 16.12 C
909 18-07-2015 05:15:00 20.5 C 76 % 16.12 C
910 18-07-2015 05:20:00 20.6 C 76 % 16.22 C
911 18-07-2015 05:25:00 20.8 C 77 % 16.62 C
912 18-07-2015 05:30:00 20.8 C 76 % 16.41 C
913 18-07-2015 05:35:00 20.8 C 78 % 16.82 C
914 18-07-2015 05:40:00 20.8 C 79 % 17.02 C
915 18-07-2015 05:45:00 20.7 C 80 % 17.13 C
916 18-07-2015 05:50:00 20.7 C 80 % 17.13 C
917 18-07-2015 05:55:00 20.7 C 81 % 17.32 C
918 18-07-2015 06:00:00 20.6 C 81 % 17.22 C
919 18-07-2015 06:05:00 20.6 C 81 % 17.22 C
920 18-07-2015 06:10:00 20.6 C 81 % 17.22 C
921 18-07-2015 06:15:00 20.6 C 81 % 17.22 C
922 18-07-2015 06:20:00 20.5 C 81 % 17.13 C
923 18-07-2015 06:25:00 20.5 C 82 % 17.32 C
924 18-07-2015 06:30:00 20.4 C 82 % 17.22 C
925 18-07-2015 06:35:00 20.4 C 82 % 17.22 C
Sensor: Nr:Datum:Temp:Feuchte:Taupunkt:
Aussen-T/F 926 18-07-2015 06:40:00 20.4 C 82 % 17.22 C
927 18-07-2015 06:45:00 20.4 C 82 % 17.22 C
928 18-07-2015 06:50:00 20.3 C 83 % 17.32 C
929 18-07-2015 06:55:00 20.3 C 83 % 17.32 C
930 18-07-2015 07:00:00 20.3 C 84 % 17.51 C
931 18-07-2015 07:05:00 20.3 C 84 % 17.51 C
932 18-07-2015 07:10:00 20.4 C 83 % 17.42 C
933 18-07-2015 07:15:00 20.5 C 83 % 17.51 C
934 18-07-2015 07:20:00 20.6 C 83 % 17.61 C
935 18-07-2015 07:25:00 20.6 C 83 % 17.61 C
936 18-07-2015 07:30:00 20.7 C 83 % 17.71 C
937 18-07-2015 07:35:00 20.7 C 83 % 17.71 C
938 18-07-2015 07:40:00 20.8 C 82 % 17.61 C
939 18-07-2015 07:45:00 20.9 C 82 % 17.71 C
940 18-07-2015 07:50:00 21 C 82 % 17.81 C
941 18-07-2015 07:55:00 21.1 C 82 % 17.91 C
942 18-07-2015 08:00:00 21.2 C 81 % 17.81 C
943 18-07-2015 08:05:00 21.2 C 81 % 17.81 C
944 18-07-2015 08:10:00 21.3 C 81 % 17.91 C
945 18-07-2015 08:15:00 21.4 C 80 % 17.81 C
946 18-07-2015 08:20:00 21.4 C 81 % 18 C
947 18-07-2015 08:25:00 21.5 C 80 % 17.9 C
948 18-07-2015 08:30:00 21.6 C 80 % 18 C
949 18-07-2015 08:35:00 21.6 C 80 % 18 C
950 18-07-2015 08:40:00 21.7 C 79 % 17.9 C
Sensor: Nr:Datum:Temp:Feuchte:Taupunkt:
Aussen-T/F 951 18-07-2015 08:45:00 21.7 C 79 % 17.9 C
952 18-07-2015 08:50:00 21.8 C 79 % 18 C
953 18-07-2015 08:55:00 21.8 C 79 % 18 C
954 18-07-2015 09:00:00 21.9 C 79 % 18.09 C
955 18-07-2015 09:05:00 22.1 C 78 % 18.08 C
956 18-07-2015 09:10:00 22.4 C 77 % 18.17 C
957 18-07-2015 09:15:00 22.7 C 76 % 18.25 C
958 18-07-2015 09:20:00 22.8 C 75 % 18.14 C
959 18-07-2015 09:25:00 22.9 C 74 % 18.02 C
960 18-07-2015 09:30:00 23.1 C 72 % 17.78 C
961 18-07-2015 09:35:00 23.2 C 71 % 17.65 C
962 18-07-2015 09:40:00 23.2 C 71 % 17.65 C
963 18-07-2015 09:45:00 23.2 C 70 % 17.42 C
964 18-07-2015 09:50:00 23.3 C 70 % 17.52 C
965 18-07-2015 09:55:00 23.4 C 69 % 17.39 C
966 18-07-2015 10:00:00 23.6 C 68 % 17.35 C
967 18-07-2015 10:05:00 23.7 C 70 % 17.9 C
968 18-07-2015 10:10:00 24 C 66 % 17.26 C
969 18-07-2015 10:15:00 24.3 C 66 % 17.54 C
970 18-07-2015 10:20:00 24.7 C 65 % 17.68 C
971 18-07-2015 10:25:00 25.1 C 63 % 17.56 C
972 18-07-2015 10:30:00 25.4 C 61 % 17.33 C
973 18-07-2015 10:35:00 25.6 C 60 % 17.26 C
974 18-07-2015 10:40:00 25.7 C 60 % 17.35 C
975 18-07-2015 10:45:00 25.7 C 60 % 17.35 C
Sensor: Nr:Datum:Temp:Feuchte:Taupunkt:
Aussen-T/F 976 18-07-2015 10:50:00 25.7 C 60 % 17.35 C
977 18-07-2015 10:55:00 25.7 C 60 % 17.35 C
978 18-07-2015 11:00:00 26.1 C 60 % 17.73 C
979 18-07-2015 11:05:00 26.3 C 58 % 17.38 C
980 18-07-2015 11:10:00 26.4 C 56 % 16.92 C
981 18-07-2015 11:15:00 26.2 C 56 % 16.73 C
982 18-07-2015 11:20:00 26.2 C 58 % 17.28 C
983 18-07-2015 11:25:00 26.4 C 56 % 16.92 C
984 18-07-2015 11:30:00 26.8 C 54 % 16.71 C
985 18-07-2015 11:35:00 26.9 C 54 % 16.81 C
986 18-07-2015 11:40:00 26.9 C 54 % 16.81 C
987 18-07-2015 11:45:00 26.8 C 54 % 16.71 C
988 18-07-2015 11:50:00 26.8 C 55 % 17 C
989 18-07-2015 11:55:00 27.1 C 54 % 16.99 C
990 18-07-2015 12:00:00 27.1 C 53 % 16.7 C
991 18-07-2015 12:05:00 27.2 C 53 % 16.79 C
992 18-07-2015 12:10:00 27.3 C 52 % 16.58 C
993 18-07-2015 12:15:00 27.3 C 52 % 16.58 C
994 18-07-2015 12:20:00 27.6 C 50 % 16.24 C
995 18-07-2015 12:25:00 27.8 C 48 % 15.78 C
996 18-07-2015 12:30:00 27.8 C 48 % 15.78 C
997 18-07-2015 12:35:00 27.7 C 49 % 16.01 C
998 18-07-2015 12:40:00 27.5 C 49 % 15.83 C
999 18-07-2015 12:45:00 27.4 C 49 % 15.74 C
1000 18-07-2015 12:50:00 27.3 C 49 % 15.65 C
Sensor: Nr:Datum:Temp:Feuchte:Taupunkt:
Aussen-T/F 1001 18-07-2015 12:55:00 27.3 C 49 % 15.65 C
1002 18-07-2015 13:00:00 27.3 C 49 % 15.65 C
1003 18-07-2015 13:05:00 27.3 C 50 % 15.97 C
1004 18-07-2015 13:10:00 27.3 C 49 % 15.65 C
1005 18-07-2015 13:15:00 27.6 C 48 % 15.6 C
1006 18-07-2015 13:20:00 27.7 C 48 % 15.69 C
1007 18-07-2015 13:25:00 27.7 C 48 % 15.69 C
1008 18-07-2015 13:30:00 27.6 C 48 % 15.6 C
1009 18-07-2015 13:35:00 27.6 C 48 % 15.6 C
1010 18-07-2015 13:40:00 27.6 C 48 % 15.6 C
1011 18-07-2015 13:45:00 27.8 C 47 % 15.45 C
1012 18-07-2015 13:50:00 27.9 C 48 % 15.87 C
1013 18-07-2015 13:55:00 27.9 C 46 % 15.21 C
1014 18-07-2015 14:00:00 27.9 C 47 % 15.55 C
1015 18-07-2015 14:05:00 27.9 C 46 % 15.21 C
1016 18-07-2015 14:10:00 28.2 C 47 % 15.82 C
1017 18-07-2015 14:15:00 28.2 C 45 % 15.14 C
1018 18-07-2015 14:20:00 28.2 C 45 % 15.14 C
1019 18-07-2015 14:25:00 28.1 C 46 % 15.39 C
1020 18-07-2015 14:30:00 28.1 C 45 % 15.05 C
1021 18-07-2015 14:35:00 28 C 45 % 14.96 C
1022 18-07-2015 14:40:00 27.9 C 47 % 15.55 C
1023 18-07-2015 14:45:00 27.9 C 44 % 14.52 C
1024 18-07-2015 14:50:00 27.8 C 45 % 14.78 C
1025 18-07-2015 14:55:00 27.8 C 44 % 14.43 C
Sensor: Nr:Datum:Temp:Feuchte:Taupunkt:
Aussen-T/F 1026 18-07-2015 15:00:00 27.6 C 45 % 14.6 C
1027 18-07-2015 15:05:00 27.6 C 47 % 15.27 C
1028 18-07-2015 15:10:00 27.4 C 46 % 14.76 C
1029 18-07-2015 15:15:00 27.3 C 47 % 15 C
1030 18-07-2015 15:20:00 27.2 C 47 % 14.91 C
1031 18-07-2015 15:25:00 27.2 C 49 % 15.56 C
1032 18-07-2015 15:30:00 27.1 C 47 % 14.82 C
1033 18-07-2015 15:35:00 27.1 C 47 % 14.82 C
1034 18-07-2015 15:40:00 27 C 47 % 14.73 C
1035 18-07-2015 15:45:00 26.9 C 46 % 14.3 C
1036 18-07-2015 15:50:00 26.8 C 46 % 14.21 C
1037 18-07-2015 15:55:00 26.8 C 46 % 14.21 C
1038 18-07-2015 16:00:00 26.8 C 46 % 14.21 C
1039 18-07-2015 16:05:00 26.8 C 46 % 14.21 C
1040 18-07-2015 16:10:00 26.8 C 46 % 14.21 C
1041 18-07-2015 16:15:00 26.7 C 47 % 14.45 C
1042 18-07-2015 16:20:00 26.8 C 46 % 14.21 C
1043 18-07-2015 16:25:00 26.9 C 45 % 13.96 C
1044 18-07-2015 16:30:00 26.8 C 44 % 13.53 C
1045 18-07-2015 16:35:00 26.7 C 46 % 14.12 C
1046 18-07-2015 16:40:00 26.7 C 45 % 13.78 C
1047 18-07-2015 16:45:00 26.7 C 45 % 13.78 C
1048 18-07-2015 16:50:00 26.7 C 44 % 13.44 C
1049 18-07-2015 16:55:00 26.8 C 44 % 13.53 C
1050 18-07-2015 17:00:00 26.8 C 44 % 13.53 C
Sensor: Nr:Datum:Temp:Feuchte:Taupunkt:
Aussen-T/F 1051 18-07-2015 17:05:00 26.8 C 44 % 13.53 C
1052 18-07-2015 17:10:00 27 C 45 % 14.06 C
1053 18-07-2015 17:15:00 27.1 C 45 % 14.15 C
1054 18-07-2015 17:20:00 27.1 C 45 % 14.15 C
1055 18-07-2015 17:25:00 27.1 C 45 % 14.15 C
1056 18-07-2015 19:45:00 26.1 C 51 % 15.17 C
1057 18-07-2015 19:50:00 25.8 C 52 % 15.2 C
1058 18-07-2015 19:55:00 25.7 C 45 % 12.88 C
1059 18-07-2015 20:00:00 25.8 C 48 % 13.96 C
1060 18-07-2015 20:05:00 25.8 C 46 % 13.31 C
1061 18-07-2015 20:10:00 25.9 C 44 % 12.72 C
1062 18-07-2015 20:15:00 26.1 C 44 % 12.9 C
1063 18-07-2015 20:20:00 26.2 C 44 % 12.99 C
1064 18-07-2015 20:25:00 26.2 C 43 % 12.64 C
1065 18-07-2015 20:30:00 26.2 C 43 % 12.64 C
1066 18-07-2015 20:35:00 26 C 42 % 12.1 C
1067 18-07-2015 20:40:00 26 C 42 % 12.1 C
1068 18-07-2015 20:45:00 26 C 43 % 12.46 C
1069 18-07-2015 20:50:00 25.4 C 43 % 11.92 C
1070 18-07-2015 20:55:00 25.3 C 43 % 11.83 C
1071 18-07-2015 21:00:00 25.1 C 44 % 12 C
1072 18-07-2015 21:05:00 24.7 C 48 % 12.96 C
1073 18-07-2015 21:10:00 24 C 51 % 13.24 C
1074 18-07-2015 21:15:00 23.3 C 52 % 12.9 C
1075 18-07-2015 21:20:00 22.8 C 53 % 12.73 C
Sensor: Nr:Datum:Temp:Feuchte:Taupunkt:
Aussen-T/F 1076 18-07-2015 21:25:00 22.3 C 55 % 12.83 C
1077 18-07-2015 21:30:00 22 C 55 % 12.55 C
1078 18-07-2015 21:35:00 21.8 C 56 % 12.64 C
1079 18-07-2015 21:40:00 21.6 C 58 % 12.99 C
1080 18-07-2015 21:45:00 21.3 C 59 % 12.97 C
1081 18-07-2015 21:50:00 21.2 C 60 % 13.13 C
1082 18-07-2015 21:55:00 21.1 C 59 % 12.78 C
1083 18-07-2015 22:00:00 20.9 C 59 % 12.59 C
1084 18-07-2015 22:05:00 20.8 C 61 % 13.01 C
1085 18-07-2015 22:10:00 20.8 C 61 % 13.01 C
1086 18-07-2015 22:15:00 20.8 C 61 % 13.01 C
1087 18-07-2015 22:20:00 20.6 C 61 % 12.82 C
1088 18-07-2015 22:25:00 20.4 C 62 % 12.88 C
1089 18-07-2015 22:30:00 20.3 C 62 % 12.79 C
1090 18-07-2015 22:35:00 20.2 C 61 % 12.44 C
1091 18-07-2015 22:40:00 20.2 C 61 % 12.44 C
1092 18-07-2015 22:45:00 20.2 C 63 % 12.94 C
1093 18-07-2015 22:50:00 20.1 C 63 % 12.84 C
1094 18-07-2015 22:55:00 20 C 63 % 12.75 C
1095 18-07-2015 23:00:00 19.9 C 63 % 12.65 C
1096 18-07-2015 23:05:00 19.8 C 63 % 12.56 C
1097 18-07-2015 23:10:00 19.7 C 63 % 12.46 C
1098 18-07-2015 23:15:00 19.6 C 64 % 12.61 C
1099 18-07-2015 23:20:00 19.5 C 64 % 12.51 C
1100 18-07-2015 23:25:00 19.4 C 64 % 12.42 C
Sensor: Nr:Datum:Temp:Feuchte:Taupunkt:
Aussen-T/F 1101 18-07-2015 23:30:00 19.4 C 64 % 12.42 C
1102 18-07-2015 23:35:00 19.3 C 66 % 12.79 C
1103 18-07-2015 23:40:00 19.3 C 65 % 12.56 C
1104 18-07-2015 23:45:00 19.2 C 66 % 12.7 C
1105 18-07-2015 23:50:00 19.2 C 66 % 12.7 C
1106 18-07-2015 23:55:00 19.1 C 66 % 12.6 C
1107 19-07-2015 00:00:00 18.9 C 67 % 12.64 C
1108 19-07-2015 00:05:00 18.9 C 67 % 12.64 C
1109 19-07-2015 00:10:00 18.8 C 68 % 12.77 C
1110 19-07-2015 00:15:00 18.8 C 68 % 12.77 C
1111 19-07-2015 05:10:00 16.7 C 91 % 15.22 C
1112 19-07-2015 05:15:00 16.5 C 91 % 15.03 C
1113 19-07-2015 05:20:00 16.3 C 91 % 14.83 C
1114 19-07-2015 05:25:00 16.3 C 92 % 15 C
1115 19-07-2015 05:30:00 16.2 C 92 % 14.9 C
1116 19-07-2015 05:35:00 16.2 C 93 % 15.07 C
1117 19-07-2015 05:40:00 16.1 C 93 % 14.97 C
1118 19-07-2015 05:45:00 16.1 C 93 % 14.97 C
1119 19-07-2015 07:00:00 16.4 C 95 % 15.6 C
1120 19-07-2015 07:05:00 16.3 C 95 % 15.5 C
1121 19-07-2015 07:10:00 16.3 C 94 % 15.33 C
1122 19-07-2015 07:15:00 16.3 C 94 % 15.33 C
1123 19-07-2015 08:40:00 17.1 C 95 % 16.29 C
1124 19-07-2015 08:45:00 17.1 C 95 % 16.29 C
1125 19-07-2015 08:50:00 17.2 C 95 % 16.39 C
Sensor: Nr:Datum:Temp:Feuchte:Taupunkt:
Aussen-T/F 1126 19-07-2015 08:55:00 17.2 C 95 % 16.39 C
1127 19-07-2015 09:00:00 17.2 C 95 % 16.39 C
1128 19-07-2015 09:05:00 17.2 C 95 % 16.39 C
1129 19-07-2015 09:10:00 17.2 C 95 % 16.39 C
1130 19-07-2015 09:15:00 17.2 C 95 % 16.39 C
1131 19-07-2015 09:40:00 18 C 100 % 18 C
1132 19-07-2015 09:45:00 18 C 100 % 18 C
1133 19-07-2015 09:50:00 18.1 C 94 % 17.12 C
1134 19-07-2015 09:55:00 18.3 C 94 % 17.32 C
1135 19-07-2015 10:00:00 18.3 C 94 % 17.32 C
1136 19-07-2015 10:05:00 18.3 C 94 % 17.32 C
1137 19-07-2015 10:25:00 19.8 C 94 % 18.81 C
1138 19-07-2015 10:30:00 20.1 C 93 % 18.93 C
1139 19-07-2015 10:35:00 20.4 C 92 % 19.06 C
1140 19-07-2015 10:40:00 20.4 C 90 % 18.7 C
1141 19-07-2015 10:45:00 21 C 89 % 19.12 C
1142 19-07-2015 10:50:00 21.1 C 89 % 19.22 C
1143 19-07-2015 10:55:00 21.4 C 88 % 19.33 C
1144 19-07-2015 11:00:00 21.7 C 87 % 19.44 C
1145 19-07-2015 11:05:00 21.9 C 86 % 19.45 C
1146 19-07-2015 11:10:00 22.1 C 87 % 19.83 C
1147 19-07-2015 11:15:00 22.2 C 86 % 19.75 C
1148 19-07-2015 11:20:00 22.3 C 85 % 19.65 C
1149 19-07-2015 11:25:00 22.4 C 84 % 19.56 C
1150 19-07-2015 11:30:00 22.5 C 84 % 19.66 C
Sensor: Nr:Datum:Temp:Feuchte:Taupunkt:
Aussen-T/F 1151 19-07-2015 11:35:00 22.7 C 84 % 19.86 C
1152 19-07-2015 11:40:00 22.9 C 82 % 19.66 C
1153 19-07-2015 11:45:00 23.2 C 82 % 19.95 C
1154 19-07-2015 11:50:00 23.3 C 81 % 19.85 C
1155 19-07-2015 11:55:00 23.2 C 80 % 19.56 C
1156 19-07-2015 12:00:00 22.9 C 80 % 19.26 C
1157 19-07-2015 12:05:00 22.6 C 81 % 19.17 C
1158 19-07-2015 12:10:00 22.4 C 83 % 19.37 C
1159 19-07-2015 12:15:00 22.4 C 82 % 19.17 C
1160 19-07-2015 12:20:00 22.4 C 82 % 19.17 C
1161 19-07-2015 12:25:00 22.4 C 83 % 19.37 C
1162 19-07-2015 12:30:00 22.7 C 81 % 19.27 C
1163 19-07-2015 12:35:00 22.8 C 80 % 19.17 C
1164 19-07-2015 12:40:00 23.1 C 81 % 19.66 C
1165 19-07-2015 12:45:00 23.3 C 79 % 19.45 C
1166 19-07-2015 12:50:00 23.4 C 77 % 19.14 C
1167 19-07-2015 12:55:00 23.5 C 79 % 19.65 C
1168 19-07-2015 13:00:00 23.6 C 78 % 19.54 C
1169 19-07-2015 13:05:00 23.6 C 77 % 19.33 C
1170 19-07-2015 13:10:00 23.5 C 78 % 19.44 C
1171 19-07-2015 13:15:00 23.3 C 78 % 19.25 C
1172 19-07-2015 13:20:00 23.2 C 78 % 19.15 C
1173 19-07-2015 13:25:00 23.1 C 79 % 19.26 C
1174 19-07-2015 13:30:00 23 C 81 % 19.56 C
1175 19-07-2015 13:35:00 22.9 C 81 % 19.46 C
Sensor: Nr:Datum:Temp:Feuchte:Taupunkt:
Aussen-T/F 1176 19-07-2015 13:40:00 23 C 80 % 19.36 C
1177 19-07-2015 13:45:00 23.1 C 80 % 19.46 C
1178 19-07-2015 13:50:00 23.1 C 81 % 19.66 C
1179 19-07-2015 13:55:00 23.3 C 81 % 19.85 C
1180 19-07-2015 14:00:00 23.6 C 78 % 19.54 C
1181 19-07-2015 14:05:00 23.8 C 76 % 19.31 C
1182 19-07-2015 14:10:00 23.9 C 76 % 19.41 C
1183 19-07-2015 14:15:00 23.9 C 76 % 19.41 C
1184 19-07-2015 14:20:00 23.9 C 75 % 19.2 C
1185 19-07-2015 14:25:00 24 C 75 % 19.29 C
1186 19-07-2015 14:30:00 24.1 C 74 % 19.17 C
1187 19-07-2015 14:35:00 23.9 C 74 % 18.98 C
1188 19-07-2015 14:40:00 23.7 C 76 % 19.22 C
1189 19-07-2015 14:45:00 23.5 C 76 % 19.02 C
1190 19-07-2015 14:50:00 23.5 C 76 % 19.02 C
1191 19-07-2015 14:55:00 23.5 C 75 % 18.81 C
1192 19-07-2015 15:00:00 23.6 C 78 % 19.54 C
1193 19-07-2015 15:05:00 23.6 C 76 % 19.12 C
1194 19-07-2015 15:10:00 23.7 C 75 % 19 C
1195 19-07-2015 15:15:00 23.8 C 73 % 18.67 C
1196 19-07-2015 15:20:00 24.1 C 73 % 18.96 C
1197 19-07-2015 15:25:00 24.3 C 72 % 18.93 C
1198 19-07-2015 15:30:00 24.5 C 71 % 18.89 C
1199 19-07-2015 15:35:00 24.5 C 70 % 18.67 C
1200 19-07-2015 15:40:00 24.4 C 69 % 18.34 C
Sensor: Nr:Datum:Temp:Feuchte:Taupunkt:
Aussen-T/F 1201 19-07-2015 15:45:00 24.4 C 69 % 18.34 C
1202 19-07-2015 15:50:00 24.4 C 69 % 18.34 C
1203 19-07-2015 15:55:00 24.4 C 71 % 18.8 C
1204 19-07-2015 16:00:00 24.1 C 74 % 19.17 C
1205 19-07-2015 16:05:00 23.7 C 76 % 19.22 C
1206 19-07-2015 16:10:00 23.3 C 78 % 19.25 C
1207 19-07-2015 16:15:00 22.9 C 79 % 19.06 C
1208 19-07-2015 16:20:00 22.7 C 80 % 19.07 C
1209 19-07-2015 16:25:00 22.4 C 82 % 19.17 C
1210 19-07-2015 16:30:00 22.3 C 83 % 19.27 C
1211 19-07-2015 16:35:00 22.3 C 83 % 19.27 C
1212 19-07-2015 16:40:00 22.3 C 84 % 19.46 C
1213 19-07-2015 16:45:00 22.3 C 84 % 19.46 C
1214 19-07-2015 16:50:00 22.5 C 82 % 19.27 C
1215 19-07-2015 16:55:00 22.8 C 81 % 19.37 C
1216 19-07-2015 17:00:00 23.2 C 75 % 18.52 C
1217 19-07-2015 17:05:00 23.8 C 69 % 17.77 C
1218 19-07-2015 17:10:00 24 C 69 % 17.96 C
1219 19-07-2015 17:15:00 24.1 C 66 % 17.35 C
1220 19-07-2015 17:20:00 23.9 C 66 % 17.16 C
1221 19-07-2015 17:25:00 23.8 C 66 % 17.07 C
1222 19-07-2015 17:30:00 23.5 C 67 % 17.02 C
1223 19-07-2015 17:35:00 23.3 C 66 % 16.59 C
1224 19-07-2015 17:40:00 23.2 C 67 % 16.73 C
1225 19-07-2015 17:45:00 23.3 C 68 % 17.06 C
Sensor: Nr:Datum:Temp:Feuchte:Taupunkt:
Aussen-T/F 1226 19-07-2015 17:50:00 23.4 C 68 % 17.16 C
1227 19-07-2015 17:55:00 23.4 C 69 % 17.39 C
1228 19-07-2015 18:00:00 23.4 C 69 % 17.39 C
1229 19-07-2015 18:05:00 23.4 C 68 % 17.16 C
1230 19-07-2015 18:10:00 23.4 C 65 % 16.45 C
1231 19-07-2015 18:15:00 23.3 C 65 % 16.35 C
1232 19-07-2015 18:20:00 23.2 C 66 % 16.5 C
1233 19-07-2015 18:25:00 23.2 C 65 % 16.26 C
1234 19-07-2015 18:30:00 23.1 C 65 % 16.16 C
1235 19-07-2015 18:35:00 23.1 C 65 % 16.16 C
1236 19-07-2015 18:40:00 23 C 66 % 16.31 C
1237 19-07-2015 18:45:00 23 C 66 % 16.31 C
1238 19-07-2015 18:50:00 23 C 67 % 16.54 C
1239 19-07-2015 18:55:00 23 C 67 % 16.54 C
1240 19-07-2015 19:00:00 23 C 66 % 16.31 C
1241 19-07-2015 19:05:00 22.9 C 67 % 16.45 C
1242 19-07-2015 19:10:00 22.9 C 67 % 16.45 C
1243 19-07-2015 19:15:00 22.9 C 67 % 16.45 C
1244 19-07-2015 19:20:00 22.9 C 68 % 16.68 C
1245 19-07-2015 19:25:00 22.8 C 67 % 16.35 C
1246 19-07-2015 19:30:00 22.8 C 67 % 16.35 C
1247 19-07-2015 19:35:00 22.9 C 67 % 16.45 C
1248 19-07-2015 19:40:00 22.9 C 66 % 16.21 C
1249 19-07-2015 19:45:00 22.8 C 66 % 16.12 C
1250 19-07-2015 19:50:00 22.7 C 66 % 16.02 C
Sensor: Nr:Datum:Temp:Feuchte:Taupunkt:
Aussen-T/F 1251 19-07-2015 19:55:00 22.6 C 67 % 16.16 C
1252 19-07-2015 20:00:00 22.4 C 67 % 15.97 C
1253 19-07-2015 20:05:00 22.3 C 68 % 16.11 C
1254 19-07-2015 20:10:00 22.2 C 68 % 16.01 C
1255 19-07-2015 20:15:00 22.1 C 69 % 16.15 C
1256 19-07-2015 20:20:00 22 C 70 % 16.28 C
1257 19-07-2015 20:25:00 21.9 C 70 % 16.18 C
1258 19-07-2015 20:30:00 21.9 C 71 % 16.4 C
1259 19-07-2015 20:35:00 21.8 C 71 % 16.31 C
1260 19-07-2015 20:40:00 21.8 C 71 % 16.31 C
1261 19-07-2015 20:45:00 21.8 C 71 % 16.31 C
1262 19-07-2015 20:50:00 21.7 C 72 % 16.43 C
1263 19-07-2015 20:55:00 21.7 C 72 % 16.43 C
1264 19-07-2015 21:00:00 21.7 C 72 % 16.43 C
1265 19-07-2015 21:05:00 21.6 C 73 % 16.55 C
1266 19-07-2015 21:10:00 21.6 C 73 % 16.55 C
1267 19-07-2015 21:15:00 21.6 C 73 % 16.55 C
1268 19-07-2015 21:20:00 21.5 C 73 % 16.46 C
1269 19-07-2015 21:25:00 21.5 C 73 % 16.46 C
1270 19-07-2015 21:30:00 21.5 C 73 % 16.46 C
1271 20-07-2015 07:10:00 18.3 C 92 % 16.98 C
1272 20-07-2015 07:15:00 18.3 C 92 % 16.98 C
1273 20-07-2015 07:20:00 18.3 C 93 % 17.15 C
1274 20-07-2015 07:25:00 18.3 C 93 % 17.15 C
1275 20-07-2015 07:30:00 18.3 C 93 % 17.15 C
Sensor: Nr:Datum:Temp:Feuchte:Taupunkt:
Aussen-T/F 1276 20-07-2015 07:35:00 18.3 C 93 % 17.15 C
1277 20-07-2015 07:40:00 18.3 C 93 % 17.15 C
1278 20-07-2015 07:45:00 18.3 C 93 % 17.15 C
1279 20-07-2015 07:50:00 18.3 C 94 % 17.32 C
1280 20-07-2015 07:55:00 18.3 C 94 % 17.32 C
1281 20-07-2015 08:00:00 18.4 C 94 % 17.42 C
1282 20-07-2015 08:05:00 18.4 C 94 % 17.42 C
1283 20-07-2015 08:10:00 18.4 C 94 % 17.42 C
1284 20-07-2015 08:15:00 18.4 C 94 % 17.42 C
1285 20-07-2015 08:20:00 18.4 C 94 % 17.42 C
1286 20-07-2015 08:25:00 18.5 C 94 % 17.52 C
1287 20-07-2015 08:30:00 18.6 C 94 % 17.62 C
1288 20-07-2015 08:35:00 18.6 C 94 % 17.62 C
1289 20-07-2015 08:40:00 18.6 C 95 % 17.78 C
1290 20-07-2015 08:45:00 18.6 C 95 % 17.78 C
1291 20-07-2015 08:50:00 18.6 C 95 % 17.78 C
1292 20-07-2015 08:55:00 18.7 C 95 % 17.88 C
1293 20-07-2015 09:00:00 18.7 C 95 % 17.88 C
1294 20-07-2015 09:05:00 18.8 C 95 % 17.98 C
1295 20-07-2015 09:10:00 18.9 C 95 % 18.08 C
1296 20-07-2015 09:15:00 18.9 C 95 % 18.08 C
1297 20-07-2015 09:20:00 18.9 C 95 % 18.08 C
1298 20-07-2015 09:40:00 19.2 C 94 % 18.21 C
1299 20-07-2015 09:45:00 19.2 C 94 % 18.21 C
1300 20-07-2015 09:50:00 19.3 C 95 % 18.48 C
Sensor: Nr:Datum:Temp:Feuchte:Taupunkt:
Aussen-T/F 1301 20-07-2015 09:55:00 19.4 C 94 % 18.41 C
1302 20-07-2015 10:00:00 19.4 C 94 % 18.41 C
1303 20-07-2015 10:05:00 19.5 C 94 % 18.51 C
1304 20-07-2015 10:10:00 19.6 C 94 % 18.61 C
1305 20-07-2015 10:15:00 19.8 C 94 % 18.81 C
1306 20-07-2015 10:20:00 20 C 94 % 19 C
1307 20-07-2015 10:25:00 20.1 C 94 % 19.1 C
1308 20-07-2015 10:30:00 20.3 C 94 % 19.3 C
1309 20-07-2015 10:35:00 20.3 C 92 % 18.96 C
1310 20-07-2015 10:40:00 20.5 C 92 % 19.15 C
1311 20-07-2015 10:45:00 20.6 C 92 % 19.25 C
1312 20-07-2015 10:50:00 20.6 C 92 % 19.25 C
1313 20-07-2015 10:55:00 20.6 C 91 % 19.08 C
1314 20-07-2015 11:00:00 20.6 C 91 % 19.08 C
1315 20-07-2015 11:05:00 20.7 C 92 % 19.35 C
1316 20-07-2015 11:10:00 20.8 C 92 % 19.45 C
1317 20-07-2015 11:15:00 20.9 C 91 % 19.37 C
1318 20-07-2015 11:20:00 21.1 C 92 % 19.75 C
1319 20-07-2015 11:25:00 21.3 C 92 % 19.95 C
1320 20-07-2015 11:30:00 21.4 C 91 % 19.87 C
1321 20-07-2015 11:35:00 21.6 C 90 % 19.89 C
1322 20-07-2015 11:40:00 21.8 C 90 % 20.09 C
1323 20-07-2015 11:45:00 21.9 C 88 % 19.82 C
1324 20-07-2015 11:50:00 22 C 89 % 20.1 C
1325 20-07-2015 11:55:00 22.1 C 87 % 19.83 C
Sensor: Nr:Datum:Temp:Feuchte:Taupunkt:
Aussen-T/F 1326 20-07-2015 12:00:00 22.1 C 89 % 20.2 C
1327 20-07-2015 12:05:00 22.1 C 88 % 20.02 C
1328 20-07-2015 12:10:00 22.1 C 87 % 19.83 C
1329 20-07-2015 12:15:00 22.2 C 87 % 19.93 C
1330 20-07-2015 12:20:00 22.3 C 86 % 19.84 C
1331 20-07-2015 12:25:00 22.6 C 87 % 20.32 C
1332 20-07-2015 12:30:00 22.9 C 84 % 20.05 C
1333 20-07-2015 12:35:00 23.5 C 84 % 20.64 C
1334 20-07-2015 12:40:00 24 C 80 % 20.33 C
1335 20-07-2015 12:45:00 24.4 C 79 % 20.52 C
1336 20-07-2015 12:50:00 24.4 C 77 % 20.1 C
1337 20-07-2015 12:55:00 24.3 C 77 % 20.01 C
1338 20-07-2015 13:00:00 24.1 C 78 % 20.02 C
1339 20-07-2015 13:05:00 24.2 C 78 % 20.12 C
1340 20-07-2015 13:10:00 24.4 C 77 % 20.1 C
1341 20-07-2015 13:15:00 24.4 C 77 % 20.1 C
1342 20-07-2015 13:20:00 24.4 C 79 % 20.52 C
1343 20-07-2015 13:25:00 24.4 C 76 % 19.89 C
1344 20-07-2015 13:30:00 24.4 C 75 % 19.68 C
1345 20-07-2015 13:35:00 24.4 C 78 % 20.31 C
1346 20-07-2015 13:40:00 24.3 C 79 % 20.42 C
1347 20-07-2015 13:45:00 24 C 78 % 19.92 C
1348 20-07-2015 13:50:00 23.7 C 80 % 20.04 C
1349 20-07-2015 13:55:00 23.6 C 81 % 20.15 C
1350 20-07-2015 14:00:00 23.6 C 82 % 20.34 C
Sensor: Nr:Datum:Temp:Feuchte:Taupunkt:
Aussen-T/F 1351 20-07-2015 14:05:00 23.4 C 81 % 19.95 C
1352 20-07-2015 14:10:00 23.2 C 84 % 20.34 C
1353 20-07-2015 14:15:00 22.8 C 84 % 19.95 C
1354 20-07-2015 14:20:00 22.6 C 86 % 20.14 C
1355 20-07-2015 14:25:00 22.4 C 89 % 20.5 C
1356 20-07-2015 14:30:00 22.3 C 90 % 20.58 C
1357 20-07-2015 14:35:00 22.2 C 90 % 20.48 C
1358 20-07-2015 14:40:00 22.1 C 90 % 20.38 C
1359 20-07-2015 14:45:00 21.9 C 91 % 20.36 C
1360 20-07-2015 14:50:00 21.9 C 92 % 20.54 C
1361 20-07-2015 14:55:00 21.9 C 92 % 20.54 C
1362 20-07-2015 15:00:00 21.9 C 93 % 20.72 C
1363 20-07-2015 15:05:00 21.9 C 93 % 20.72 C
1364 20-07-2015 15:45:00 22.6 C 91 % 21.05 C
1365 20-07-2015 15:50:00 22.8 C 91 % 21.25 C
1366 20-07-2015 15:55:00 22.8 C 90 % 21.07 C
1367 20-07-2015 16:00:00 23 C 91 % 21.45 C
1368 20-07-2015 16:05:00 23.3 C 92 % 21.93 C
1369 20-07-2015 16:10:00 23.6 C 91 % 22.04 C
1370 20-07-2015 16:15:00 23.9 C 89 % 21.97 C
1371 20-07-2015 16:20:00 24.1 C 86 % 21.61 C
1372 20-07-2015 16:25:00 24.2 C 89 % 22.27 C
1373 20-07-2015 16:30:00 24.1 C 88 % 21.99 C
1374 20-07-2015 16:35:00 24.2 C 84 % 21.32 C
1375 20-07-2015 16:40:00 24.4 C 84 % 21.52 C
Sensor: Nr:Datum:Temp:Feuchte:Taupunkt:
Aussen-T/F 1376 20-07-2015 16:45:00 24.7 C 86 % 22.2 C
1377 20-07-2015 16:50:00 25.1 C 81 % 21.61 C
1378 20-07-2015 16:55:00 25.8 C 80 % 22.08 C
1379 20-07-2015 17:00:00 26.1 C 80 % 22.38 C
1380 20-07-2015 17:05:00 25.8 C 77 % 21.46 C
1381 20-07-2015 17:10:00 25.6 C 81 % 22.09 C
1382 20-07-2015 17:15:00 25.4 C 81 % 21.9 C
1383 20-07-2015 17:20:00 25.4 C 79 % 21.49 C
1384 20-07-2015 17:25:00 25.3 C 80 % 21.6 C
1385 20-07-2015 17:30:00 25.1 C 79 % 21.2 C
1386 20-07-2015 17:35:00 24.9 C 81 % 21.41 C
1387 20-07-2015 17:40:00 24.9 C 81 % 21.41 C
1388 20-07-2015 17:45:00 24.8 C 81 % 21.31 C
1389 20-07-2015 17:50:00 24.8 C 82 % 21.52 C
1390 20-07-2015 17:55:00 24.8 C 80 % 21.11 C
1391 20-07-2015 18:00:00 24.8 C 77 % 20.49 C
1392 20-07-2015 18:05:00 24.9 C 79 % 21 C
1393 20-07-2015 18:10:00 24.8 C 78 % 20.7 C
1394 20-07-2015 18:15:00 24.7 C 79 % 20.81 C
1395 20-07-2015 18:20:00 24.7 C 77 % 20.39 C
1396 20-07-2015 18:25:00 24.7 C 79 % 20.81 C
1397 20-07-2015 18:30:00 24.6 C 80 % 20.92 C
1398 20-07-2015 18:35:00 24.5 C 83 % 21.42 C
1399 20-07-2015 18:40:00 24.2 C 85 % 21.52 C
1400 20-07-2015 18:45:00 23.9 C 84 % 21.03 C
Sensor: Nr:Datum:Temp:Feuchte:Taupunkt:
Aussen-T/F 1401 20-07-2015 18:50:00 23.9 C 82 % 20.64 C
1402 20-07-2015 18:55:00 24.1 C 85 % 21.42 C
1403 20-07-2015 19:00:00 23.9 C 85 % 21.22 C
1404 20-07-2015 19:05:00 23.8 C 85 % 21.12 C
1405 20-07-2015 19:10:00 23.8 C 84 % 20.93 C
1406 20-07-2015 19:15:00 23.9 C 83 % 20.83 C
1407 20-07-2015 19:20:00 23.8 C 84 % 20.93 C
1408 20-07-2015 19:25:00 23.6 C 85 % 20.93 C
1409 20-07-2015 19:30:00 23.4 C 87 % 21.11 C
1410 20-07-2015 19:35:00 23.1 C 88 % 21 C
1411 20-07-2015 19:40:00 22.9 C 88 % 20.81 C
1412 20-07-2015 19:45:00 22.9 C 89 % 20.99 C
1413 20-07-2015 19:50:00 22.8 C 89 % 20.89 C
1414 20-07-2015 19:55:00 22.6 C 90 % 20.87 C
1415 20-07-2015 20:00:00 22.4 C 90 % 20.68 C
1416 20-07-2015 20:05:00 22.4 C 89 % 20.5 C
1417 20-07-2015 20:10:00 22.7 C 88 % 20.61 C
1418 20-07-2015 20:15:00 22.7 C 88 % 20.61 C
1419 20-07-2015 20:20:00 22.7 C 89 % 20.79 C
1420 20-07-2015 20:25:00 22.5 C 89 % 20.59 C
1421 20-07-2015 20:30:00 22.4 C 90 % 20.68 C
1422 20-07-2015 20:35:00 22.3 C 90 % 20.58 C
1423 20-07-2015 20:40:00 22.2 C 90 % 20.48 C
1424 20-07-2015 20:45:00 22.1 C 90 % 20.38 C
1425 20-07-2015 20:50:00 22 C 90 % 20.28 C
Sensor: Nr:Datum:Temp:Feuchte:Taupunkt:
Aussen-T/F 1426 20-07-2015 20:55:00 21.9 C 91 % 20.36 C
1427 20-07-2015 21:00:00 21.8 C 91 % 20.26 C
1428 20-07-2015 21:05:00 21.8 C 91 % 20.26 C
1429 20-07-2015 21:10:00 21.7 C 91 % 20.17 C
1430 20-07-2015 21:15:00 21.6 C 92 % 20.24 C
1431 20-07-2015 21:20:00 21.5 C 92 % 20.14 C
1432 20-07-2015 21:25:00 21.4 C 92 % 20.05 C
1433 20-07-2015 21:30:00 21.3 C 93 % 20.12 C
1434 20-07-2015 21:35:00 21.4 C 93 % 20.22 C
1435 20-07-2015 21:40:00 21.4 C 93 % 20.22 C
1436 20-07-2015 21:45:00 21.4 C 92 % 20.05 C
1437 20-07-2015 21:50:00 21.3 C 93 % 20.12 C
1438 20-07-2015 21:55:00 21.3 C 93 % 20.12 C
1439 20-07-2015 22:00:00 21.2 C 93 % 20.02 C
1440 20-07-2015 22:05:00 21.1 C 93 % 19.92 C
1441 20-07-2015 22:10:00 20.9 C 93 % 19.72 C
1442 20-07-2015 22:15:00 20.8 C 93 % 19.63 C
1443 20-07-2015 22:20:00 20.7 C 93 % 19.53 C
1444 20-07-2015 22:25:00 20.6 C 93 % 19.43 C
1445 20-07-2015 22:30:00 20.5 C 93 % 19.33 C
1446 20-07-2015 22:35:00 20.4 C 93 % 19.23 C
1447 20-07-2015 22:40:00 20.4 C 94 % 19.4 C
1448 20-07-2015 22:45:00 20.3 C 93 % 19.13 C
1449 20-07-2015 22:50:00 20.3 C 94 % 19.3 C
1450 20-07-2015 22:55:00 20.3 C 94 % 19.3 C
Sensor: Nr:Datum:Temp:Feuchte:Taupunkt:
Aussen-T/F 1451 21-07-2015 02:25:00 18.7 C 95 % 17.88 C
1452 21-07-2015 02:30:00 18.7 C 95 % 17.88 C
1453 21-07-2015 02:35:00 18.8 C 96 % 18.15 C
1454 21-07-2015 02:40:00 18.8 C 96 % 18.15 C
1455 21-07-2015 03:55:00 19 C 96 % 18.35 C
1456 21-07-2015 04:00:00 19 C 96 % 18.35 C
1457 21-07-2015 04:05:00 18.9 C 96 % 18.25 C
1458 21-07-2015 04:10:00 18.9 C 96 % 18.25 C
1459 21-07-2015 04:15:00 18.9 C 96 % 18.25 C
1460 21-07-2015 04:20:00 18.8 C 96 % 18.15 C
1461 21-07-2015 04:25:00 18.8 C 96 % 18.15 C
1462 21-07-2015 04:30:00 18.8 C 96 % 18.15 C
1463 21-07-2015 05:30:00 18.3 C 96 % 17.65 C
1464 21-07-2015 05:35:00 18.3 C 96 % 17.65 C
1465 21-07-2015 07:25:00 18.4 C 97 % 17.91 C
1466 21-07-2015 07:30:00 18.6 C 96 % 17.95 C
1467 21-07-2015 07:35:00 18.7 C 96 % 18.05 C
1468 21-07-2015 07:40:00 18.8 C 97 % 18.31 C
1469 21-07-2015 07:45:00 18.8 C 97 % 18.31 C
1470 21-07-2015 08:05:00 19.9 C 94 % 18.91 C
1471 21-07-2015 08:10:00 20.3 C 93 % 19.13 C
1472 21-07-2015 08:15:00 20.7 C 91 % 19.18 C
1473 21-07-2015 08:20:00 21.1 C 90 % 19.39 C
1474 21-07-2015 08:25:00 21.4 C 88 % 19.33 C
1475 21-07-2015 08:30:00 21.7 C 87 % 19.44 C
Sensor: Nr:Datum:Temp:Feuchte:Taupunkt:
Aussen-T/F 1476 21-07-2015 08:35:00 21.9 C 86 % 19.45 C
1477 21-07-2015 08:40:00 22 C 85 % 19.36 C
1478 21-07-2015 08:45:00 22.2 C 85 % 19.56 C
1479 21-07-2015 08:50:00 22.2 C 85 % 19.56 C
1480 21-07-2015 08:55:00 22.7 C 85 % 20.05 C
1481 21-07-2015 09:00:00 22.8 C 85 % 20.14 C
1482 21-07-2015 09:05:00 22.7 C 82 % 19.47 C
1483 21-07-2015 09:10:00 22.7 C 82 % 19.47 C
1484 21-07-2015 09:15:00 22.6 C 82 % 19.37 C
1485 21-07-2015 09:20:00 22.5 C 83 % 19.47 C
1486 21-07-2015 09:25:00 22.5 C 82 % 19.27 C
1487 21-07-2015 09:30:00 22.3 C 82 % 19.08 C
1488 21-07-2015 09:35:00 22.3 C 82 % 19.08 C
1489 21-07-2015 09:40:00 22.8 C 82 % 19.56 C
1490 21-07-2015 09:45:00 22.8 C 81 % 19.37 C
1491 21-07-2015 09:50:00 22.8 C 81 % 19.37 C
1492 21-07-2015 09:55:00 22.9 C 81 % 19.46 C
1493 21-07-2015 10:00:00 22.9 C 81 % 19.46 C
1494 21-07-2015 10:05:00 23.2 C 81 % 19.76 C
1495 21-07-2015 10:10:00 23.4 C 79 % 19.55 C
1496 21-07-2015 10:15:00 23.4 C 78 % 19.34 C
1497 21-07-2015 10:20:00 23.5 C 79 % 19.65 C
1498 21-07-2015 10:25:00 23.7 C 78 % 19.63 C
1499 21-07-2015 10:30:00 23.9 C 77 % 19.62 C
1500 21-07-2015 10:35:00 24.2 C 75 % 19.49 C
Sensor: Nr:Datum:Temp:Feuchte:Taupunkt:
Aussen-T/F 1501 21-07-2015 10:40:00 24.3 C 74 % 19.37 C
1502 21-07-2015 10:45:00 24.4 C 74 % 19.46 C
1503 21-07-2015 10:50:00 24.6 C 74 % 19.66 C
1504 21-07-2015 10:55:00 24.8 C 73 % 19.63 C
1505 21-07-2015 11:00:00 24.6 C 73 % 19.44 C
1506 21-07-2015 11:05:00 24.6 C 74 % 19.66 C
1507 21-07-2015 11:10:00 24.8 C 75 % 20.06 C
1508 21-07-2015 11:15:00 24.9 C 72 % 19.5 C
1509 21-07-2015 11:20:00 25 C 73 % 19.82 C
1510 21-07-2015 11:25:00 24.9 C 73 % 19.72 C
1511 21-07-2015 11:30:00 25 C 72 % 19.6 C
1512 21-07-2015 11:35:00 25.2 C 72 % 19.79 C
1513 21-07-2015 11:40:00 25.4 C 72 % 19.98 C
1514 21-07-2015 11:45:00 25.6 C 70 % 19.72 C
1515 21-07-2015 11:50:00 25.7 C 72 % 20.27 C
1516 21-07-2015 11:55:00 25.9 C 70 % 20.01 C
1517 21-07-2015 12:00:00 26.2 C 67 % 19.59 C
1518 21-07-2015 12:05:00 26.6 C 68 % 20.2 C
1519 21-07-2015 12:10:00 26.5 C 65 % 19.38 C
1520 21-07-2015 12:15:00 26.3 C 66 % 19.44 C
1521 21-07-2015 12:20:00 26.4 C 66 % 19.53 C
1522 21-07-2015 12:25:00 26.7 C 67 % 20.06 C
1523 21-07-2015 12:30:00 26.8 C 65 % 19.67 C
1524 21-07-2015 12:35:00 26.9 C 65 % 19.76 C
1525 21-07-2015 12:40:00 27.2 C 64 % 19.79 C
Sensor: Nr:Datum:Temp:Feuchte:Taupunkt:
Aussen-T/F 1526 21-07-2015 12:45:00 27.4 C 64 % 19.98 C
1527 21-07-2015 12:50:00 27.8 C 61 % 19.59 C
1528 21-07-2015 12:55:00 27.9 C 62 % 19.94 C
1529 21-07-2015 13:00:00 28.2 C 61 % 19.96 C
1530 21-07-2015 13:05:00 28.4 C 60 % 19.88 C
1531 21-07-2015 13:10:00 28.6 C 59 % 19.8 C
1532 21-07-2015 13:15:00 28.7 C 58 % 19.62 C
1533 21-07-2015 13:20:00 28.8 C 58 % 19.71 C
1534 21-07-2015 13:25:00 28.8 C 59 % 19.99 C
1535 21-07-2015 13:30:00 28.7 C 58 % 19.62 C
1536 21-07-2015 13:35:00 28.4 C 59 % 19.61 C
1537 21-07-2015 13:40:00 28.4 C 59 % 19.61 C
1538 21-07-2015 13:45:00 28.8 C 58 % 19.71 C
1539 21-07-2015 13:50:00 29 C 58 % 19.9 C
1540 21-07-2015 13:55:00 29.4 C 58 % 20.27 C
1541 21-07-2015 14:00:00 29.7 C 54 % 19.39 C
1542 21-07-2015 14:05:00 29.7 C 55 % 19.69 C
1543 21-07-2015 14:10:00 29.9 C 54 % 19.58 C
1544 21-07-2015 14:15:00 29.7 C 54 % 19.39 C
1545 21-07-2015 14:20:00 29.4 C 54 % 19.12 C
1546 21-07-2015 14:25:00 29.1 C 59 % 20.27 C
1547 21-07-2015 14:30:00 28.9 C 60 % 20.35 C
1548 21-07-2015 14:35:00 29.2 C 55 % 19.23 C
1549 21-07-2015 14:40:00 29.3 C 56 % 19.61 C
1550 21-07-2015 14:45:00 29.1 C 57 % 19.71 C
Sensor: Nr:Datum:Temp:Feuchte:Taupunkt:
Aussen-T/F 1551 21-07-2015 14:50:00 29 C 60 % 20.44 C
1552 21-07-2015 14:55:00 28.7 C 58 % 19.62 C
1553 21-07-2015 15:00:00 28.6 C 62 % 20.6 C
1554 21-07-2015 15:05:00 28.4 C 61 % 20.15 C
1555 21-07-2015 15:10:00 28.5 C 66 % 21.52 C
1556 21-07-2015 15:15:00 28.8 C 57 % 19.43 C
1557 21-07-2015 15:20:00 29.1 C 58 % 19.99 C
1558 21-07-2015 15:25:00 29.4 C 55 % 19.41 C
1559 21-07-2015 15:30:00 29.8 C 56 % 20.07 C
1560 21-07-2015 15:35:00 30.4 C 52 % 19.43 C
1561 21-07-2015 15:40:00 30.8 C 52 % 19.8 C
1562 21-07-2015 15:45:00 30.8 C 50 % 19.17 C
1563 21-07-2015 15:50:00 30.8 C 51 % 19.49 C
1564 21-07-2015 15:55:00 30.9 C 52 % 19.89 C
1565 21-07-2015 16:00:00 30.9 C 49 % 18.94 C
1566 21-07-2015 16:05:00 30.7 C 51 % 19.4 C
1567 21-07-2015 16:10:00 30.7 C 50 % 19.08 C
1568 21-07-2015 16:15:00 31.1 C 50 % 19.44 C
1569 21-07-2015 16:20:00 31.2 C 47 % 18.54 C
1570 21-07-2015 16:25:00 31.2 C 49 % 19.21 C
1571 21-07-2015 16:30:00 31.6 C 47 % 18.91 C
1572 21-07-2015 16:35:00 31.9 C 47 % 19.18 C
1573 21-07-2015 16:40:00 31.8 C 47 % 19.09 C
1574 21-07-2015 16:45:00 31.4 C 48 % 19.06 C
1575 21-07-2015 16:50:00 31.7 C 48 % 19.34 C
Sensor: Nr:Datum:Temp:Feuchte:Taupunkt:
Aussen-T/F 1576 21-07-2015 16:55:00 31.9 C 47 % 19.18 C
1577 21-07-2015 17:00:00 32.3 C 47 % 19.54 C
1578 21-07-2015 17:05:00 32.3 C 46 % 19.2 C
1579 21-07-2015 17:10:00 32 C 47 % 19.27 C
1580 21-07-2015 17:15:00 32 C 48 % 19.61 C
1581 21-07-2015 17:20:00 32.1 C 46 % 19.02 C
1582 21-07-2015 17:25:00 32.2 C 46 % 19.11 C
1583 21-07-2015 17:30:00 32.4 C 45 % 18.93 C
1584 21-07-2015 17:35:00 32.6 C 46 % 19.47 C
1585 21-07-2015 17:40:00 32.6 C 45 % 19.12 C
1586 21-07-2015 17:45:00 32.6 C 44 % 18.75 C
1587 21-07-2015 17:50:00 32.4 C 45 % 18.93 C
1588 21-07-2015 17:55:00 32.3 C 45 % 18.84 C
1589 21-07-2015 18:00:00 31.9 C 46 % 18.83 C
1590 21-07-2015 18:05:00 31.9 C 46 % 18.83 C
1591 21-07-2015 18:10:00 32.3 C 46 % 19.2 C
1592 21-07-2015 18:15:00 32.3 C 45 % 18.84 C
1593 21-07-2015 18:20:00 31.7 C 47 % 19 C
1594 21-07-2015 18:25:00 31.1 C 47 % 18.45 C
1595 21-07-2015 18:30:00 30.7 C 52 % 19.71 C
1596 21-07-2015 18:35:00 30.6 C 50 % 18.99 C
1597 21-07-2015 18:40:00 30.9 C 48 % 18.61 C
1598 21-07-2015 18:45:00 31.2 C 48 % 18.88 C
1599 21-07-2015 18:50:00 30.8 C 53 % 20.11 C
1600 21-07-2015 18:55:00 30.1 C 53 % 19.46 C
Sensor: Nr:Datum:Temp:Feuchte:Taupunkt:
Aussen-T/F 1601 21-07-2015 19:00:00 29.7 C 56 % 19.98 C
1602 21-07-2015 19:05:00 29.6 C 56 % 19.89 C
1603 21-07-2015 19:10:00 29.4 C 58 % 20.27 C
1604 21-07-2015 19:15:00 29.6 C 56 % 19.89 C
1605 21-07-2015 19:20:00 30 C 55 % 19.97 C
1606 21-07-2015 19:25:00 30.3 C 56 % 20.54 C
1607 21-07-2015 19:30:00 30.4 C 55 % 20.34 C
1608 21-07-2015 19:35:00 30.3 C 56 % 20.54 C
1609 21-07-2015 19:40:00 30.1 C 56 % 20.35 C
1610 21-07-2015 19:45:00 29.8 C 58 % 20.64 C
1611 21-07-2015 19:50:00 29.6 C 59 % 20.73 C
1612 21-07-2015 19:55:00 29.4 C 60 % 20.82 C
1613 21-07-2015 20:00:00 29.2 C 59 % 20.36 C
1614 21-07-2015 20:05:00 29.1 C 61 % 20.81 C
1615 21-07-2015 20:10:00 28.8 C 62 % 20.79 C
1616 21-07-2015 20:15:00 28.7 C 62 % 20.69 C
1617 21-07-2015 20:20:00 28.6 C 63 % 20.86 C
1618 21-07-2015 20:25:00 28.3 C 63 % 20.58 C
1619 21-07-2015 20:30:00 28.2 C 64 % 20.74 C
1620 21-07-2015 20:35:00 28.1 C 64 % 20.64 C
1621 21-07-2015 20:40:00 27.9 C 65 % 20.71 C
1622 21-07-2015 20:45:00 27.7 C 65 % 20.52 C
1623 21-07-2015 20:50:00 27.6 C 66 % 20.67 C
1624 21-07-2015 20:55:00 27.4 C 66 % 20.48 C
1625 21-07-2015 21:00:00 27.2 C 68 % 20.78 C
Sensor: Nr:Datum:Temp:Feuchte:Taupunkt:
Aussen-T/F 1626 21-07-2015 21:05:00 26.9 C 68 % 20.49 C
1627 21-07-2015 21:10:00 26.6 C 69 % 20.44 C
1628 21-07-2015 21:15:00 26.2 C 72 % 20.75 C
1629 21-07-2015 21:20:00 25.9 C 73 % 20.69 C
1630 21-07-2015 21:25:00 25.9 C 73 % 20.69 C
1631 21-07-2015 21:30:00 24.9 C 73 % 19.72 C
1632 21-07-2015 21:35:00 24.5 C 79 % 20.62 C
1633 21-07-2015 21:40:00 24.4 C 79 % 20.52 C
1634 21-07-2015 21:45:00 24.2 C 81 % 20.73 C
1635 21-07-2015 21:50:00 23.9 C 82 % 20.64 C
1636 21-07-2015 21:55:00 23.7 C 83 % 20.64 C
1637 21-07-2015 22:00:00 23.4 C 83 % 20.35 C
1638 21-07-2015 22:05:00 23.3 C 84 % 20.44 C
1639 21-07-2015 22:10:00 23.2 C 84 % 20.34 C
1640 21-07-2015 22:15:00 23.1 C 84 % 20.25 C
1641 21-07-2015 22:20:00 22.9 C 85 % 20.24 C
1642 21-07-2015 22:25:00 22.8 C 85 % 20.14 C
1643 21-07-2015 22:30:00 22.8 C 86 % 20.33 C
1644 21-07-2015 22:35:00 22.6 C 86 % 20.14 C
1645 21-07-2015 22:40:00 22.5 C 86 % 20.04 C
1646 21-07-2015 22:45:00 22.4 C 87 % 20.13 C
1647 21-07-2015 22:50:00 22.3 C 87 % 20.03 C
1648 21-07-2015 22:55:00 22.3 C 87 % 20.03 C
1649 21-07-2015 23:00:00 22.2 C 88 % 20.12 C
1650 21-07-2015 23:05:00 22.2 C 88 % 20.12 C
Sensor: Nr:Datum:Temp:Feuchte:Taupunkt:
Aussen-T/F 1651 21-07-2015 23:10:00 22.1 C 88 % 20.02 C
1652 21-07-2015 23:15:00 22 C 88 % 19.92 C
1653 21-07-2015 23:20:00 21.9 C 88 % 19.82 C
1654 21-07-2015 23:25:00 21.9 C 89 % 20 C
1655 21-07-2015 23:30:00 21.8 C 89 % 19.9 C
1656 21-07-2015 23:35:00 21.8 C 89 % 19.9 C
1657 21-07-2015 23:40:00 21.7 C 89 % 19.81 C
1658 21-07-2015 23:45:00 21.7 C 89 % 19.81 C
1659 21-07-2015 23:50:00 21.6 C 89 % 19.71 C
1660 21-07-2015 23:55:00 21.6 C 89 % 19.71 C
1661 22-07-2015 00:00:00 21.6 C 90 % 19.89 C
1662 22-07-2015 00:05:00 21.5 C 90 % 19.79 C
1663 22-07-2015 00:10:00 21.5 C 90 % 19.79 C
1664 22-07-2015 00:15:00 21.4 C 90 % 19.69 C
1665 22-07-2015 00:20:00 21.4 C 90 % 19.69 C
1666 22-07-2015 00:25:00 21.4 C 90 % 19.69 C
1667 22-07-2015 00:30:00 21.3 C 90 % 19.59 C
1668 22-07-2015 00:35:00 21.3 C 90 % 19.59 C
1669 22-07-2015 00:40:00 21.2 C 91 % 19.67 C
1670 22-07-2015 00:45:00 21.2 C 90 % 19.49 C
1671 22-07-2015 00:50:00 21.1 C 91 % 19.57 C
1672 22-07-2015 00:55:00 20.9 C 91 % 19.37 C
1673 22-07-2015 01:00:00 20.9 C 91 % 19.37 C
1674 22-07-2015 01:05:00 20.9 C 91 % 19.37 C
1675 22-07-2015 01:10:00 20.8 C 92 % 19.45 C
Sensor: Nr:Datum:Temp:Feuchte:Taupunkt:
Aussen-T/F 1676 22-07-2015 01:15:00 20.8 C 92 % 19.45 C
1677 22-07-2015 01:20:00 20.7 C 92 % 19.35 C
1678 22-07-2015 01:25:00 20.7 C 92 % 19.35 C
1679 22-07-2015 01:30:00 20.7 C 92 % 19.35 C
1680 22-07-2015 01:35:00 20.7 C 92 % 19.35 C
1681 22-07-2015 01:40:00 20.7 C 92 % 19.35 C
1682 22-07-2015 01:45:00 20.6 C 92 % 19.25 C
1683 22-07-2015 01:50:00 20.6 C 92 % 19.25 C
1684 22-07-2015 01:55:00 20.5 C 92 % 19.15 C
1685 22-07-2015 02:00:00 20.4 C 92 % 19.06 C
1686 22-07-2015 02:05:00 20.3 C 93 % 19.13 C
1687 22-07-2015 02:10:00 20.3 C 93 % 19.13 C
1688 22-07-2015 02:15:00 20.3 C 93 % 19.13 C
1689 22-07-2015 02:20:00 20.2 C 93 % 19.03 C
1690 22-07-2015 02:25:00 20.2 C 93 % 19.03 C
1691 22-07-2015 02:30:00 20.2 C 93 % 19.03 C
1692 22-07-2015 02:35:00 20.1 C 93 % 18.93 C
1693 22-07-2015 02:40:00 20.1 C 93 % 18.93 C
1694 22-07-2015 02:45:00 20 C 93 % 18.83 C
1695 22-07-2015 02:50:00 19.9 C 93 % 18.73 C
1696 22-07-2015 02:55:00 19.8 C 93 % 18.63 C
1697 22-07-2015 03:00:00 19.8 C 93 % 18.63 C
1698 22-07-2015 03:05:00 19.7 C 93 % 18.54 C
1699 22-07-2015 03:10:00 19.7 C 93 % 18.54 C
1700 22-07-2015 03:15:00 19.6 C 93 % 18.44 C
Sensor: Nr:Datum:Temp:Feuchte:Taupunkt:
Aussen-T/F 1701 22-07-2015 03:20:00 19.6 C 93 % 18.44 C
1702 22-07-2015 03:25:00 19.4 C 93 % 18.24 C
1703 22-07-2015 03:30:00 19.4 C 94 % 18.41 C
1704 22-07-2015 03:35:00 19.4 C 94 % 18.41 C
1705 22-07-2015 03:40:00 19.3 C 94 % 18.31 C
1706 22-07-2015 03:45:00 19.3 C 94 % 18.31 C
1707 22-07-2015 03:50:00 19.3 C 94 % 18.31 C
1708 22-07-2015 03:55:00 19.3 C 94 % 18.31 C
1709 22-07-2015 04:00:00 19.2 C 94 % 18.21 C
1710 22-07-2015 04:05:00 19.2 C 94 % 18.21 C
1711 22-07-2015 04:10:00 19.2 C 94 % 18.21 C
1712 22-07-2015 04:15:00 19.2 C 94 % 18.21 C
1713 22-07-2015 04:20:00 19.2 C 94 % 18.21 C
1714 22-07-2015 04:25:00 19.2 C 94 % 18.21 C
1715 22-07-2015 04:30:00 19.2 C 94 % 18.21 C
1716 22-07-2015 04:35:00 19.1 C 94 % 18.11 C
1717 22-07-2015 04:40:00 19 C 95 % 18.18 C
1718 22-07-2015 04:45:00 18.9 C 95 % 18.08 C
1719 22-07-2015 04:50:00 18.9 C 94 % 17.91 C
1720 22-07-2015 04:55:00 18.8 C 94 % 17.81 C
1721 22-07-2015 05:00:00 18.8 C 95 % 17.98 C
1722 22-07-2015 05:05:00 18.8 C 95 % 17.98 C
1723 22-07-2015 05:10:00 18.8 C 95 % 17.98 C
1724 22-07-2015 05:15:00 18.8 C 95 % 17.98 C
1725 22-07-2015 05:20:00 18.7 C 95 % 17.88 C
Sensor: Nr:Datum:Temp:Feuchte:Taupunkt:
Aussen-T/F 1726 22-07-2015 05:25:00 18.7 C 95 % 17.88 C
1727 22-07-2015 05:30:00 18.6 C 95 % 17.78 C
1728 22-07-2015 05:35:00 18.6 C 95 % 17.78 C
1729 22-07-2015 05:40:00 18.7 C 95 % 17.88 C
1730 22-07-2015 05:45:00 18.6 C 95 % 17.78 C
1731 22-07-2015 05:50:00 18.6 C 95 % 17.78 C
1732 22-07-2015 05:55:00 18.7 C 95 % 17.88 C
1733 22-07-2015 06:00:00 18.7 C 95 % 17.88 C
1734 22-07-2015 06:05:00 18.7 C 95 % 17.88 C
1735 22-07-2015 06:10:00 18.7 C 95 % 17.88 C
1736 22-07-2015 06:15:00 18.7 C 95 % 17.88 C
1737 22-07-2015 06:20:00 18.7 C 96 % 18.05 C
1738 22-07-2015 06:25:00 18.8 C 96 % 18.15 C
1739 22-07-2015 06:30:00 18.8 C 96 % 18.15 C
1740 22-07-2015 06:35:00 18.8 C 96 % 18.15 C
1741 22-07-2015 06:40:00 18.8 C 96 % 18.15 C
1742 22-07-2015 06:45:00 18.9 C 96 % 18.25 C
1743 22-07-2015 06:50:00 19 C 96 % 18.35 C
1744 22-07-2015 06:55:00 19.1 C 96 % 18.45 C
1745 22-07-2015 07:00:00 19.1 C 96 % 18.45 C
1746 22-07-2015 07:05:00 19.2 C 96 % 18.55 C
1747 22-07-2015 07:10:00 19.2 C 96 % 18.55 C
1748 22-07-2015 07:15:00 19.3 C 96 % 18.65 C
1749 22-07-2015 07:20:00 19.3 C 96 % 18.65 C
1750 22-07-2015 07:25:00 19.3 C 96 % 18.65 C
Sensor: Nr:Datum:Temp:Feuchte:Taupunkt:
Aussen-T/F 1751 22-07-2015 07:30:00 19.3 C 96 % 18.65 C
1752 22-07-2015 07:35:00 19.3 C 96 % 18.65 C
1753 22-07-2015 07:40:00 19.3 C 96 % 18.65 C
1754 22-07-2015 07:45:00 19.3 C 96 % 18.65 C
1755 22-07-2015 08:30:00 21.7 C 91 % 20.17 C
1756 22-07-2015 08:35:00 21.9 C 90 % 20.18 C
1757 22-07-2015 08:40:00 22 C 89 % 20.1 C
1758 22-07-2015 08:45:00 22.1 C 88 % 20.02 C
1759 22-07-2015 08:50:00 22.2 C 88 % 20.12 C
1760 22-07-2015 08:55:00 22.2 C 86 % 19.75 C
1761 22-07-2015 09:00:00 22.2 C 85 % 19.56 C
1762 22-07-2015 09:05:00 22.2 C 85 % 19.56 C
1763 22-07-2015 09:10:00 22.2 C 85 % 19.56 C
1764 22-07-2015 09:15:00 22.2 C 85 % 19.56 C
1765 22-07-2015 09:20:00 22.6 C 83 % 19.56 C
1766 22-07-2015 09:25:00 22.7 C 83 % 19.66 C
1767 22-07-2015 09:30:00 22.8 C 84 % 19.95 C
1768 22-07-2015 09:35:00 22.9 C 81 % 19.46 C
1769 22-07-2015 09:40:00 23.1 C 80 % 19.46 C
1770 22-07-2015 09:45:00 23.3 C 81 % 19.85 C
1771 22-07-2015 09:50:00 23.4 C 79 % 19.55 C
1772 22-07-2015 09:55:00 23.6 C 79 % 19.74 C
1773 22-07-2015 10:00:00 23.6 C 80 % 19.95 C
1774 22-07-2015 10:05:00 23.7 C 80 % 20.04 C
1775 22-07-2015 10:10:00 23.9 C 80 % 20.24 C
Sensor: Nr:Datum:Temp:Feuchte:Taupunkt:
Aussen-T/F 1776 22-07-2015 10:15:00 24.2 C 78 % 20.12 C
1777 22-07-2015 10:20:00 24.3 C 75 % 19.58 C
1778 22-07-2015 10:25:00 24.4 C 76 % 19.89 C
1779 22-07-2015 10:30:00 24.4 C 75 % 19.68 C
1780 22-07-2015 10:35:00 24.3 C 75 % 19.58 C
1781 22-07-2015 10:40:00 24.2 C 76 % 19.7 C
1782 22-07-2015 10:45:00 24.2 C 77 % 19.91 C
1783 22-07-2015 10:50:00 24.3 C 77 % 20.01 C
1784 22-07-2015 10:55:00 24.4 C 75 % 19.68 C
1785 22-07-2015 11:00:00 24.4 C 76 % 19.89 C
1786 22-07-2015 11:05:00 24.3 C 76 % 19.8 C
1787 22-07-2015 11:10:00 24.4 C 75 % 19.68 C
1788 22-07-2015 11:15:00 24.4 C 77 % 20.1 C
1789 22-07-2015 11:20:00 24.4 C 75 % 19.68 C
1790 22-07-2015 11:25:00 24.5 C 76 % 19.99 C
1791 22-07-2015 11:30:00 24.7 C 76 % 20.18 C
1792 22-07-2015 11:35:00 24.9 C 77 % 20.59 C
1793 22-07-2015 11:40:00 25.2 C 74 % 20.23 C
1794 22-07-2015 11:45:00 25.4 C 73 % 20.21 C
1795 22-07-2015 11:50:00 25.6 C 73 % 20.4 C
1796 22-07-2015 11:55:00 25.5 C 71 % 19.85 C
1797 22-07-2015 12:00:00 25.4 C 73 % 20.21 C
1798 22-07-2015 12:05:00 25.5 C 73 % 20.3 C
1799 22-07-2015 12:10:00 25.6 C 74 % 20.62 C
1800 22-07-2015 12:15:00 25.6 C 74 % 20.62 C
Sensor: Nr:Datum:Temp:Feuchte:Taupunkt:
Aussen-T/F 1801 22-07-2015 12:20:00 25.8 C 74 % 20.81 C
1802 22-07-2015 12:25:00 26.1 C 70 % 20.2 C
1803 22-07-2015 12:30:00 26.2 C 71 % 20.52 C
1804 22-07-2015 12:35:00 26.4 C 67 % 19.78 C
1805 22-07-2015 12:40:00 26.7 C 68 % 20.3 C
1806 22-07-2015 12:45:00 27 C 67 % 20.35 C
1807 22-07-2015 12:50:00 27.2 C 66 % 20.29 C
1808 22-07-2015 12:55:00 27 C 66 % 20.1 C
1809 22-07-2015 13:00:00 26.8 C 67 % 20.16 C
1810 22-07-2015 13:05:00 26.7 C 67 % 20.06 C
1811 22-07-2015 13:10:00 26.7 C 68 % 20.3 C
1812 22-07-2015 13:15:00 26.8 C 67 % 20.16 C
1813 22-07-2015 13:20:00 27 C 67 % 20.35 C
1814 22-07-2015 13:25:00 27.1 C 67 % 20.44 C
1815 22-07-2015 13:30:00 27.2 C 64 % 19.79 C
1816 22-07-2015 13:35:00 27.2 C 64 % 19.79 C
1817 22-07-2015 13:40:00 27.2 C 64 % 19.79 C
1818 22-07-2015 13:45:00 27.3 C 65 % 20.14 C
1819 22-07-2015 13:50:00 27.4 C 65 % 20.23 C
1820 22-07-2015 13:55:00 27.7 C 63 % 20.01 C
1821 22-07-2015 14:00:00 27.7 C 61 % 19.49 C
1822 22-07-2015 14:05:00 27.6 C 61 % 19.4 C
1823 22-07-2015 14:10:00 27.3 C 62 % 19.38 C
1824 22-07-2015 14:15:00 26.8 C 63 % 19.16 C
1825 22-07-2015 14:20:00 26.7 C 64 % 19.32 C
Sensor: Nr:Datum:Temp:Feuchte:Taupunkt:
Aussen-T/F 1826 22-07-2015 14:25:00 26.6 C 64 % 19.23 C
1827 22-07-2015 14:30:00 26.6 C 63 % 18.97 C
1828 22-07-2015 14:35:00 26.5 C 63 % 18.88 C
1829 22-07-2015 14:40:00 26.4 C 62 % 18.53 C
1830 22-07-2015 14:45:00 26.4 C 63 % 18.79 C
1831 22-07-2015 14:50:00 26.4 C 63 % 18.79 C
1832 22-07-2015 14:55:00 26.4 C 63 % 18.79 C
1833 22-07-2015 15:00:00 26.4 C 62 % 18.53 C
1834 22-07-2015 15:05:00 26.4 C 63 % 18.79 C
1835 22-07-2015 15:10:00 26.6 C 62 % 18.72 C
1836 22-07-2015 15:15:00 26.7 C 63 % 19.07 C
1837 22-07-2015 15:20:00 26.8 C 63 % 19.16 C
1838 22-07-2015 15:25:00 27 C 63 % 19.35 C
1839 22-07-2015 15:30:00 27.2 C 65 % 20.04 C
1840 22-07-2015 15:35:00 27.5 C 60 % 19.04 C
1841 22-07-2015 15:40:00 27.5 C 61 % 19.3 C
1842 22-07-2015 15:45:00 27.5 C 60 % 19.04 C
1843 22-07-2015 15:50:00 27.3 C 60 % 18.85 C
1844 22-07-2015 15:55:00 27.2 C 60 % 18.76 C
1845 22-07-2015 16:00:00 27.2 C 61 % 19.02 C
1846 22-07-2015 16:05:00 27.1 C 61 % 18.93 C
1847 22-07-2015 16:10:00 27.1 C 62 % 19.19 C
1848 22-07-2015 16:15:00 27.1 C 63 % 19.45 C
1849 22-07-2015 16:20:00 26.9 C 62 % 19 C
1850 22-07-2015 16:25:00 26.8 C 63 % 19.16 C
Sensor: Nr:Datum:Temp:Feuchte:Taupunkt:
Aussen-T/F 1851 22-07-2015 16:30:00 26.7 C 64 % 19.32 C
1852 22-07-2015 16:35:00 26.6 C 63 % 18.97 C
1853 22-07-2015 16:40:00 26.6 C 64 % 19.23 C
1854 22-07-2015 16:45:00 26.6 C 63 % 18.97 C
1855 22-07-2015 16:50:00 26.7 C 62 % 18.81 C
1856 22-07-2015 16:55:00 26.7 C 61 % 18.55 C
1857 22-07-2015 17:00:00 26.7 C 61 % 18.55 C
1858 22-07-2015 17:05:00 26.9 C 61 % 18.74 C
1859 22-07-2015 17:10:00 27.2 C 60 % 18.76 C
1860 22-07-2015 17:15:00 27.4 C 59 % 18.68 C
1861 22-07-2015 17:20:00 27.5 C 59 % 18.77 C
1862 22-07-2015 17:25:00 27.6 C 60 % 19.13 C
1863 22-07-2015 17:30:00 27.7 C 59 % 18.96 C
1864 22-07-2015 17:35:00 27.7 C 60 % 19.23 C
1865 22-07-2015 17:40:00 27.9 C 59 % 19.14 C
1866 22-07-2015 17:45:00 27.9 C 57 % 18.59 C
1867 22-07-2015 17:50:00 28.1 C 56 % 18.49 C
1868 22-07-2015 17:55:00 28.2 C 54 % 18.01 C
1869 22-07-2015 18:00:00 28.3 C 53 % 17.8 C
1870 22-07-2015 18:05:00 28.2 C 54 % 18.01 C
1871 22-07-2015 18:10:00 28.1 C 54 % 17.92 C
1872 22-07-2015 18:15:00 27.7 C 54 % 17.55 C
1873 22-07-2015 18:20:00 27.3 C 55 % 17.47 C
1874 22-07-2015 18:25:00 27.1 C 56 % 17.57 C
1875 22-07-2015 18:30:00 26.8 C 56 % 17.29 C
Sensor: Nr:Datum:Temp:Feuchte:Taupunkt:
Aussen-T/F 1876 22-07-2015 18:35:00 26.7 C 56 % 17.19 C
1877 22-07-2015 18:40:00 26.6 C 56 % 17.1 C
1878 22-07-2015 18:45:00 26.4 C 55 % 16.63 C
1879 22-07-2015 18:50:00 26.3 C 56 % 16.82 C
1880 22-07-2015 18:55:00 26.1 C 57 % 16.92 C
1881 22-07-2015 19:00:00 26.1 C 57 % 16.92 C
1882 22-07-2015 19:05:00 26 C 58 % 17.1 C
1883 22-07-2015 19:10:00 26.1 C 57 % 16.92 C
1884 22-07-2015 19:15:00 25.9 C 56 % 16.45 C
1885 22-07-2015 19:20:00 25.8 C 56 % 16.36 C
1886 22-07-2015 19:25:00 25.8 C 57 % 16.64 C
1887 22-07-2015 19:30:00 25.7 C 57 % 16.54 C
1888 22-07-2015 19:35:00 25.7 C 58 % 16.82 C
1889 22-07-2015 19:40:00 25.6 C 58 % 16.72 C
1890 22-07-2015 19:45:00 25.4 C 58 % 16.54 C
1891 22-07-2015 19:50:00 25.3 C 59 % 16.71 C
1892 22-07-2015 19:55:00 25.2 C 59 % 16.62 C
1893 22-07-2015 20:00:00 25.1 C 58 % 16.26 C
1894 22-07-2015 20:05:00 25 C 58 % 16.16 C
1895 22-07-2015 20:10:00 24.8 C 58 % 15.98 C
1896 22-07-2015 20:15:00 24.8 C 58 % 15.98 C
1897 22-07-2015 20:20:00 24.7 C 59 % 16.15 C
1898 22-07-2015 20:25:00 24.6 C 58 % 15.79 C
1899 22-07-2015 20:30:00 24.6 C 58 % 15.79 C
1900 22-07-2015 20:35:00 24.5 C 58 % 15.7 C
Sensor: Nr:Datum:Temp:Feuchte:Taupunkt:
Aussen-T/F 1901 22-07-2015 20:40:00 24.4 C 57 % 15.33 C
1902 22-07-2015 20:45:00 24.4 C 57 % 15.33 C
1903 22-07-2015 20:50:00 24.3 C 57 % 15.24 C
1904 22-07-2015 20:55:00 24.3 C 57 % 15.24 C
1905 22-07-2015 21:00:00 24.2 C 57 % 15.14 C
1906 22-07-2015 21:05:00 24.2 C 57 % 15.14 C
1907 22-07-2015 21:10:00 24.1 C 56 % 14.78 C
1908 22-07-2015 21:15:00 24 C 56 % 14.68 C
1909 22-07-2015 21:20:00 23.9 C 55 % 14.31 C
1910 22-07-2015 21:25:00 23.9 C 56 % 14.59 C
1911 22-07-2015 21:30:00 23.8 C 56 % 14.5 C
1912 22-07-2015 21:35:00 23.8 C 57 % 14.77 C
1913 22-07-2015 21:40:00 23.7 C 56 % 14.4 C
1914 22-07-2015 21:45:00 23.6 C 55 % 14.03 C
1915 22-07-2015 21:50:00 23.4 C 55 % 13.85 C
1916 22-07-2015 21:55:00 23.3 C 55 % 13.76 C
1917 22-07-2015 22:00:00 23.2 C 55 % 13.66 C
1918 22-07-2015 22:05:00 23.2 C 55 % 13.66 C
1919 22-07-2015 22:10:00 23.1 C 55 % 13.57 C
1920 22-07-2015 22:15:00 22.9 C 55 % 13.38 C
1921 22-07-2015 22:20:00 22.8 C 55 % 13.29 C
1922 22-07-2015 22:25:00 22.8 C 55 % 13.29 C
1923 22-07-2015 22:30:00 22.7 C 56 % 13.47 C
1924 22-07-2015 22:35:00 22.6 C 56 % 13.38 C
1925 22-07-2015 22:40:00 22.6 C 56 % 13.38 C
Sensor: Nr:Datum:Temp:Feuchte:Taupunkt:
Aussen-T/F 1926 22-07-2015 22:45:00 22.5 C 57 % 13.56 C
1927 22-07-2015 22:50:00 22.4 C 57 % 13.47 C
1928 22-07-2015 22:55:00 22.3 C 57 % 13.37 C
1929 22-07-2015 23:00:00 22.3 C 57 % 13.37 C
1930 22-07-2015 23:05:00 22.2 C 58 % 13.55 C
1931 22-07-2015 23:10:00 22.1 C 58 % 13.45 C
1932 22-07-2015 23:15:00 22.1 C 58 % 13.45 C
1933 22-07-2015 23:20:00 22 C 60 % 13.88 C
1934 22-07-2015 23:25:00 21.8 C 63 % 14.45 C
1935 22-07-2015 23:30:00 21.6 C 65 % 14.74 C
1936 22-07-2015 23:35:00 21.4 C 64 % 14.31 C
1937 22-07-2015 23:40:00 21.3 C 67 % 14.93 C
1938 22-07-2015 23:45:00 21.2 C 65 % 14.36 C
1939 22-07-2015 23:50:00 21.2 C 66 % 14.6 C
1940 22-07-2015 23:55:00 21.1 C 66 % 14.5 C
1941 23-07-2015 00:00:00 21 C 69 % 15.1 C
1942 23-07-2015 00:05:00 20.8 C 71 % 15.35 C
1943 23-07-2015 00:10:00 20.7 C 72 % 15.47 C
1944 23-07-2015 00:15:00 20.6 C 72 % 15.38 C
1945 23-07-2015 00:20:00 20.3 C 72 % 15.09 C
1946 23-07-2015 00:25:00 20.1 C 71 % 14.68 C
1947 23-07-2015 00:30:00 19.8 C 73 % 14.82 C
1948 23-07-2015 00:35:00 19.6 C 74 % 14.84 C
1949 23-07-2015 00:40:00 19.4 C 74 % 14.65 C
1950 23-07-2015 00:45:00 19.3 C 74 % 14.55 C
Sensor: Nr:Datum:Temp:Feuchte:Taupunkt:
Aussen-T/F 1951 23-07-2015 00:50:00 19.3 C 75 % 14.76 C
1952 23-07-2015 00:55:00 19.2 C 75 % 14.66 C
1953 23-07-2015 01:00:00 19.1 C 75 % 14.57 C
1954 23-07-2015 01:05:00 19 C 77 % 14.88 C
1955 23-07-2015 01:10:00 18.9 C 76 % 14.58 C
1956 23-07-2015 01:15:00 18.8 C 77 % 14.68 C
1957 23-07-2015 01:20:00 18.7 C 77 % 14.59 C
1958 23-07-2015 01:25:00 18.6 C 77 % 14.49 C
1959 23-07-2015 01:30:00 18.4 C 78 % 14.5 C
1960 23-07-2015 01:35:00 18.4 C 78 % 14.5 C
1961 23-07-2015 01:40:00 18.3 C 78 % 14.4 C
1962 23-07-2015 01:45:00 18.2 C 78 % 14.3 C
1963 23-07-2015 01:50:00 18.2 C 79 % 14.5 C
1964 23-07-2015 01:55:00 18.1 C 79 % 14.4 C
1965 23-07-2015 02:00:00 18.1 C 79 % 14.4 C
1966 23-07-2015 02:05:00 17.9 C 79 % 14.21 C
1967 23-07-2015 02:10:00 17.9 C 79 % 14.21 C
1968 23-07-2015 02:15:00 17.8 C 78 % 13.91 C
1969 23-07-2015 02:20:00 17.7 C 78 % 13.82 C
1970 23-07-2015 02:25:00 17.7 C 79 % 14.01 C
1971 23-07-2015 02:30:00 17.7 C 79 % 14.01 C
1972 23-07-2015 02:35:00 17.7 C 79 % 14.01 C
1973 23-07-2015 02:40:00 17.7 C 79 % 14.01 C
1974 23-07-2015 02:45:00 17.6 C 79 % 13.92 C
1975 23-07-2015 02:50:00 17.5 C 79 % 13.82 C
Sensor: Nr:Datum:Temp:Feuchte:Taupunkt:
Aussen-T/F 1976 23-07-2015 02:55:00 17.4 C 80 % 13.92 C
1977 23-07-2015 03:00:00 17.3 C 79 % 13.63 C
1978 23-07-2015 03:05:00 17.3 C 80 % 13.82 C
1979 23-07-2015 03:10:00 17.2 C 80 % 13.72 C
1980 23-07-2015 03:15:00 17.1 C 80 % 13.62 C
1981 23-07-2015 03:20:00 17 C 80 % 13.53 C
1982 23-07-2015 03:25:00 17 C 80 % 13.53 C
1983 23-07-2015 03:30:00 16.9 C 81 % 13.62 C
1984 23-07-2015 03:35:00 16.9 C 81 % 13.62 C
1985 23-07-2015 03:40:00 16.8 C 81 % 13.52 C
1986 23-07-2015 03:45:00 16.8 C 82 % 13.71 C
1987 23-07-2015 03:50:00 16.7 C 82 % 13.61 C
1988 23-07-2015 03:55:00 16.6 C 81 % 13.33 C
1989 23-07-2015 04:00:00 16.5 C 81 % 13.23 C
1990 23-07-2015 04:05:00 16.4 C 82 % 13.32 C
1991 23-07-2015 04:10:00 16.4 C 82 % 13.32 C
1992 23-07-2015 04:15:00 16.4 C 82 % 13.32 C
1993 23-07-2015 04:20:00 16.5 C 83 % 13.6 C
1994 23-07-2015 04:25:00 16.6 C 83 % 13.7 C
1995 23-07-2015 04:30:00 16.7 C 83 % 13.8 C
1996 23-07-2015 04:35:00 16.7 C 83 % 13.8 C
1997 23-07-2015 04:40:00 16.8 C 83 % 13.9 C
1998 23-07-2015 04:45:00 16.8 C 83 % 13.9 C
1999 23-07-2015 04:50:00 16.8 C 83 % 13.9 C
2000 23-07-2015 04:55:00 16.8 C 83 % 13.9 C
Sensor: Nr:Datum:Temp:Feuchte:Taupunkt:
Aussen-T/F 2001 23-07-2015 05:00:00 16.8 C 83 % 13.9 C
2002 23-07-2015 05:05:00 16.8 C 83 % 13.9 C
2003 23-07-2015 05:10:00 16.9 C 83 % 14 C
2004 23-07-2015 05:15:00 16.9 C 83 % 14 C
2005 23-07-2015 05:20:00 16.9 C 82 % 13.81 C
2006 23-07-2015 05:25:00 16.9 C 82 % 13.81 C
2007 23-07-2015 05:30:00 16.9 C 83 % 14 C
2008 23-07-2015 05:35:00 16.9 C 82 % 13.81 C
2009 23-07-2015 05:40:00 16.9 C 83 % 14 C
2010 23-07-2015 05:45:00 16.9 C 83 % 14 C
2011 23-07-2015 05:50:00 16.9 C 83 % 14 C
2012 23-07-2015 05:55:00 16.9 C 83 % 14 C
2013 23-07-2015 06:00:00 16.9 C 82 % 13.81 C
2014 23-07-2015 06:05:00 16.9 C 82 % 13.81 C
2015 23-07-2015 06:10:00 17 C 82 % 13.91 C
2016 23-07-2015 06:15:00 17 C 81 % 13.72 C
2017 23-07-2015 06:20:00 17.1 C 82 % 14 C
2018 23-07-2015 06:25:00 17.1 C 82 % 14 C
2019 23-07-2015 06:30:00 17.1 C 80 % 13.62 C
2020 23-07-2015 06:35:00 17.2 C 79 % 13.53 C
2021 23-07-2015 06:40:00 17.3 C 78 % 13.43 C
2022 23-07-2015 06:45:00 17.4 C 79 % 13.72 C
2023 23-07-2015 06:50:00 17.4 C 75 % 12.93 C
2024 23-07-2015 06:55:00 17.6 C 76 % 13.32 C
2025 23-07-2015 07:00:00 17.7 C 75 % 13.22 C
Sensor: Nr:Datum:Temp:Feuchte:Taupunkt:
Aussen-T/F 2026 23-07-2015 07:05:00 17.7 C 74 % 13.01 C
2027 23-07-2015 07:10:00 17.7 C 74 % 13.01 C
2028 23-07-2015 07:15:00 17.8 C 73 % 12.9 C
2029 23-07-2015 07:20:00 17.8 C 73 % 12.9 C
2030 23-07-2015 07:25:00 17.8 C 72 % 12.69 C
2031 23-07-2015 07:30:00 17.8 C 72 % 12.69 C
2032 23-07-2015 07:35:00 17.8 C 71 % 12.47 C
2033 23-07-2015 07:40:00 17.8 C 71 % 12.47 C
2034 23-07-2015 07:45:00 17.9 C 71 % 12.57 C
2035 23-07-2015 07:50:00 17.9 C 72 % 12.78 C
2036 23-07-2015 07:55:00 18 C 71 % 12.67 C
2037 23-07-2015 08:00:00 18.1 C 70 % 12.55 C
2038 23-07-2015 08:05:00 18.1 C 71 % 12.76 C
2039 23-07-2015 08:10:00 18.2 C 70 % 12.64 C
2040 23-07-2015 08:15:00 18.3 C 69 % 12.52 C
2041 23-07-2015 08:20:00 18.4 C 70 % 12.83 C
2042 23-07-2015 08:25:00 18.5 C 70 % 12.93 C
2043 23-07-2015 08:30:00 18.6 C 69 % 12.8 C
2044 23-07-2015 08:35:00 18.7 C 69 % 12.9 C
2045 23-07-2015 08:40:00 18.7 C 68 % 12.68 C
2046 23-07-2015 08:45:00 18.8 C 68 % 12.77 C
2047 23-07-2015 08:50:00 18.8 C 67 % 12.55 C
2048 23-07-2015 08:55:00 18.8 C 67 % 12.55 C
2049 23-07-2015 09:00:00 19 C 67 % 12.74 C
2050 23-07-2015 09:05:00 19.1 C 66 % 12.6 C
Sensor: Nr:Datum:Temp:Feuchte:Taupunkt:
Aussen-T/F 2051 23-07-2015 09:10:00 19.1 C 67 % 12.83 C
2052 23-07-2015 09:15:00 19.1 C 67 % 12.83 C
2053 23-07-2015 09:20:00 19.1 C 67 % 12.83 C
2054 23-07-2015 09:25:00 19.1 C 67 % 12.83 C
2055 23-07-2015 09:30:00 19.2 C 66 % 12.7 C
2056 23-07-2015 09:35:00 19.2 C 66 % 12.7 C
2057 23-07-2015 09:40:00 19.2 C 65 % 12.47 C
2058 23-07-2015 09:45:00 19.2 C 65 % 12.47 C
2059 23-07-2015 09:50:00 19.1 C 66 % 12.6 C
2060 23-07-2015 09:55:00 19.1 C 66 % 12.6 C
2061 23-07-2015 10:00:00 19.2 C 65 % 12.47 C
2062 23-07-2015 10:05:00 19.3 C 66 % 12.79 C
2063 23-07-2015 10:10:00 19.7 C 63 % 12.46 C
2064 23-07-2015 10:15:00 19.9 C 62 % 12.41 C
2065 23-07-2015 10:20:00 20.3 C 63 % 13.03 C
2066 23-07-2015 10:25:00 20.6 C 61 % 12.82 C
2067 23-07-2015 10:30:00 20.9 C 60 % 12.85 C
2068 23-07-2015 10:35:00 21.1 C 60 % 13.04 C
2069 23-07-2015 10:40:00 21 C 60 % 12.94 C
2070 23-07-2015 10:45:00 21.2 C 60 % 13.13 C
2071 23-07-2015 10:50:00 21.6 C 61 % 13.76 C
2072 23-07-2015 10:55:00 21.8 C 58 % 13.17 C
2073 23-07-2015 11:00:00 21.9 C 58 % 13.27 C
2074 23-07-2015 11:05:00 22.2 C 58 % 13.55 C
2075 23-07-2015 11:10:00 22.3 C 55 % 12.83 C
Sensor: Nr:Datum:Temp:Feuchte:Taupunkt:
Aussen-T/F 2076 23-07-2015 11:15:00 22.3 C 55 % 12.83 C
2077 23-07-2015 11:20:00 22.3 C 55 % 12.83 C
2078 23-07-2015 11:25:00 22.4 C 56 % 13.2 C
2079 23-07-2015 11:30:00 22.6 C 55 % 13.11 C
2080 23-07-2015 11:35:00 22.6 C 56 % 13.38 C
2081 23-07-2015 11:40:00 22.4 C 56 % 13.2 C
2082 23-07-2015 11:45:00 22.6 C 57 % 13.65 C
2083 23-07-2015 11:50:00 22.8 C 56 % 13.57 C
2084 23-07-2015 11:55:00 22.8 C 55 % 13.29 C
2085 23-07-2015 12:00:00 22.7 C 58 % 14.01 C
2086 23-07-2015 12:05:00 22.6 C 56 % 13.38 C
2087 23-07-2015 12:10:00 22.6 C 55 % 13.11 C
2088 23-07-2015 12:15:00 22.4 C 55 % 12.92 C
2089 23-07-2015 12:20:00 22.3 C 56 % 13.1 C
2090 23-07-2015 12:25:00 22.2 C 57 % 13.28 C
2091 23-07-2015 12:30:00 22.2 C 57 % 13.28 C
2092 23-07-2015 12:35:00 22.2 C 58 % 13.55 C
2093 23-07-2015 12:40:00 22.2 C 58 % 13.55 C
2094 23-07-2015 12:45:00 22.5 C 58 % 13.83 C
2095 23-07-2015 12:50:00 22.9 C 55 % 13.38 C
2096 23-07-2015 12:55:00 23.1 C 54 % 13.29 C
2097 23-07-2015 13:00:00 23 C 55 % 13.48 C
2098 23-07-2015 13:05:00 22.8 C 56 % 13.57 C
2099 23-07-2015 13:10:00 22.7 C 55 % 13.2 C
2100 23-07-2015 13:15:00 22.7 C 59 % 14.28 C
Sensor: Nr:Datum:Temp:Feuchte:Taupunkt:
Aussen-T/F 2101 23-07-2015 13:20:00 23.1 C 57 % 14.12 C
2102 23-07-2015 13:25:00 23.8 C 56 % 14.5 C
2103 23-07-2015 13:30:00 24.2 C 53 % 14.02 C
2104 23-07-2015 13:35:00 24.5 C 52 % 14 C
2105 23-07-2015 13:40:00 24.3 C 50 % 13.22 C
2106 23-07-2015 13:45:00 24.4 C 49 % 13 C
2107 23-07-2015 13:50:00 24.2 C 50 % 13.12 C
2108 23-07-2015 13:55:00 24.1 C 52 % 13.63 C
2109 23-07-2015 14:00:00 24 C 53 % 13.83 C
2110 23-07-2015 14:05:00 24.1 C 54 % 14.21 C
2111 23-07-2015 14:10:00 24.3 C 55 % 14.68 C
2112 23-07-2015 14:15:00 24.3 C 50 % 13.22 C
2113 23-07-2015 14:20:00 24.6 C 54 % 14.68 C
2114 23-07-2015 14:25:00 24.9 C 51 % 14.07 C
2115 23-07-2015 14:30:00 25.3 C 47 % 13.18 C
2116 23-07-2015 14:35:00 25.2 C 47 % 13.09 C
2117 23-07-2015 14:40:00 24.8 C 48 % 13.05 C
2118 23-07-2015 14:45:00 24.4 C 49 % 13 C
2119 23-07-2015 14:50:00 24.3 C 50 % 13.22 C
2120 23-07-2015 14:55:00 24.5 C 49 % 13.09 C
2121 23-07-2015 15:00:00 24.6 C 48 % 12.87 C
2122 23-07-2015 15:05:00 24.7 C 54 % 14.77 C
2123 23-07-2015 15:10:00 25 C 49 % 13.55 C
2124 23-07-2015 15:15:00 24.9 C 48 % 13.14 C
2125 23-07-2015 15:20:00 24.9 C 48 % 13.14 C
Sensor: Nr:Datum:Temp:Feuchte:Taupunkt:
Aussen-T/F 2126 23-07-2015 15:25:00 25.1 C 46 % 12.67 C
2127 23-07-2015 15:30:00 25.2 C 47 % 13.09 C
2128 23-07-2015 15:35:00 25.1 C 46 % 12.67 C
2129 23-07-2015 15:40:00 24.9 C 46 % 12.49 C
2130 23-07-2015 15:45:00 24.7 C 47 % 12.64 C
2131 23-07-2015 15:50:00 24.6 C 48 % 12.87 C
2132 23-07-2015 15:55:00 24.7 C 47 % 12.64 C
2133 23-07-2015 16:00:00 25.3 C 47 % 13.18 C
2134 23-07-2015 16:05:00 25.6 C 47 % 13.45 C
2135 23-07-2015 16:10:00 25.8 C 46 % 13.31 C
2136 23-07-2015 16:15:00 25.7 C 45 % 12.88 C
2137 23-07-2015 16:20:00 25.6 C 46 % 13.12 C
2138 23-07-2015 16:25:00 25.3 C 45 % 12.52 C
2139 23-07-2015 16:30:00 25.1 C 47 % 13 C
2140 23-07-2015 16:35:00 24.9 C 48 % 13.14 C
2141 23-07-2015 16:40:00 24.9 C 49 % 13.46 C
2142 23-07-2015 16:45:00 24.7 C 49 % 13.27 C
2143 23-07-2015 16:50:00 24.6 C 48 % 12.87 C
2144 23-07-2015 16:55:00 24.5 C 48 % 12.77 C
2145 23-07-2015 17:00:00 24.4 C 47 % 12.36 C
2146 23-07-2015 17:05:00 24.4 C 48 % 12.68 C
2147 23-07-2015 17:10:00 24.5 C 48 % 12.77 C
2148 23-07-2015 17:15:00 24.6 C 48 % 12.87 C
2149 23-07-2015 17:20:00 24.4 C 49 % 13 C
2150 23-07-2015 17:25:00 24.4 C 48 % 12.68 C
Sensor: Nr:Datum:Temp:Feuchte:Taupunkt:
Aussen-T/F 2151 23-07-2015 17:30:00 24.4 C 48 % 12.68 C
2152 23-07-2015 17:35:00 24.6 C 48 % 12.87 C
2153 23-07-2015 17:40:00 24.8 C 46 % 12.4 C
2154 23-07-2015 17:45:00 24.8 C 48 % 13.05 C
2155 23-07-2015 17:50:00 24.7 C 47 % 12.64 C
2156 23-07-2015 17:55:00 24.6 C 47 % 12.54 C
2157 23-07-2015 18:00:00 24.4 C 49 % 13 C
2158 23-07-2015 18:05:00 24.5 C 48 % 12.77 C
2159 23-07-2015 18:10:00 24.8 C 47 % 12.73 C
2160 23-07-2015 18:15:00 25.3 C 47 % 13.18 C
2161 23-07-2015 18:20:00 25.8 C 47 % 13.64 C
2162 23-07-2015 18:25:00 25.9 C 45 % 13.06 C
2163 23-07-2015 18:30:00 25.9 C 45 % 13.06 C
2164 23-07-2015 18:35:00 25.7 C 45 % 12.88 C
2165 23-07-2015 18:40:00 25.7 C 45 % 12.88 C
2166 23-07-2015 18:45:00 25.8 C 45 % 12.97 C
2167 23-07-2015 18:50:00 25.9 C 45 % 13.06 C
2168 23-07-2015 18:55:00 25.9 C 44 % 12.72 C
2169 23-07-2015 19:00:00 25.8 C 44 % 12.63 C
2170 23-07-2015 19:05:00 25.8 C 44 % 12.63 C
2171 23-07-2015 19:10:00 25.9 C 44 % 12.72 C
2172 23-07-2015 19:15:00 25.8 C 45 % 12.97 C
2173 23-07-2015 19:20:00 25.7 C 46 % 13.22 C
2174 23-07-2015 19:25:00 25.4 C 47 % 13.27 C
2175 23-07-2015 19:30:00 25.3 C 46 % 12.85 C
Sensor: Nr:Datum:Temp:Feuchte:Taupunkt:
Aussen-T/F 2176 23-07-2015 19:35:00 25.2 C 46 % 12.76 C
2177 23-07-2015 19:40:00 24.9 C 47 % 12.82 C
2178 23-07-2015 19:45:00 24.6 C 48 % 12.87 C
2179 23-07-2015 19:50:00 24.3 C 49 % 12.91 C
2180 23-07-2015 19:55:00 24.2 C 49 % 12.81 C
2181 23-07-2015 20:00:00 24.1 C 50 % 13.03 C
2182 23-07-2015 20:05:00 23.8 C 50 % 12.76 C
2183 23-07-2015 20:10:00 23.6 C 52 % 13.17 C
2184 23-07-2015 20:15:00 23.3 C 52 % 12.9 C
2185 23-07-2015 20:20:00 23.1 C 53 % 13 C
2186 23-07-2015 20:25:00 22.8 C 55 % 13.29 C
2187 23-07-2015 20:30:00 22.5 C 60 % 14.35 C
2188 23-07-2015 20:35:00 21.9 C 61 % 14.04 C
2189 23-07-2015 20:40:00 21.4 C 62 % 13.82 C
2190 23-07-2015 20:45:00 20.9 C 63 % 13.6 C
2191 23-07-2015 20:50:00 20.7 C 65 % 13.89 C
2192 23-07-2015 20:55:00 20.4 C 67 % 14.07 C
2193 23-07-2015 21:00:00 20.2 C 68 % 14.11 C
2194 23-07-2015 21:05:00 19.9 C 68 % 13.82 C
2195 23-07-2015 21:10:00 19.6 C 69 % 13.76 C
2196 23-07-2015 21:15:00 19.4 C 69 % 13.57 C
2197 23-07-2015 21:20:00 19.3 C 70 % 13.69 C
2198 23-07-2015 21:25:00 19.1 C 71 % 13.72 C
2199 23-07-2015 21:30:00 18.9 C 72 % 13.74 C
2200 23-07-2015 21:35:00 18.7 C 72 % 13.55 C
Sensor: Nr:Datum:Temp:Feuchte:Taupunkt:
Aussen-T/F 2201 23-07-2015 21:40:00 18.6 C 74 % 13.88 C
2202 23-07-2015 21:45:00 18.4 C 74 % 13.68 C
2203 23-07-2015 21:50:00 18.4 C 75 % 13.89 C
2204 23-07-2015 21:55:00 18.3 C 74 % 13.59 C
2205 23-07-2015 22:00:00 18.2 C 75 % 13.7 C
2206 23-07-2015 22:05:00 18.1 C 75 % 13.6 C
2207 23-07-2015 22:10:00 18 C 76 % 13.71 C
2208 23-07-2015 22:15:00 17.9 C 75 % 13.41 C
2209 23-07-2015 22:20:00 17.8 C 76 % 13.52 C
2210 23-07-2015 22:25:00 17.8 C 76 % 13.52 C
2211 23-07-2015 22:30:00 17.7 C 76 % 13.42 C
2212 23-07-2015 22:35:00 17.7 C 76 % 13.42 C
2213 23-07-2015 22:40:00 17.6 C 76 % 13.32 C
2214 23-07-2015 22:45:00 17.5 C 76 % 13.23 C
2215 23-07-2015 22:50:00 17.4 C 76 % 13.13 C
2216 23-07-2015 22:55:00 17.3 C 77 % 13.23 C
2217 23-07-2015 23:00:00 17.3 C 78 % 13.43 C
2218 23-07-2015 23:05:00 17.2 C 78 % 13.33 C
2219 23-07-2015 23:10:00 17.2 C 79 % 13.53 C
2220 23-07-2015 23:15:00 17.1 C 78 % 13.24 C
2221 23-07-2015 23:20:00 17.1 C 79 % 13.43 C
2222 23-07-2015 23:25:00 17 C 79 % 13.33 C
2223 23-07-2015 23:30:00 16.9 C 78 % 13.04 C
2224 23-07-2015 23:35:00 16.8 C 78 % 12.94 C
2225 23-07-2015 23:40:00 16.8 C 78 % 12.94 C
Sensor: Nr:Datum:Temp:Feuchte:Taupunkt:
Aussen-T/F 2226 23-07-2015 23:45:00 16.7 C 79 % 13.04 C
2227 23-07-2015 23:50:00 16.7 C 80 % 13.23 C
2228 23-07-2015 23:55:00 16.6 C 80 % 13.14 C
2229 24-07-2015 00:00:00 16.6 C 80 % 13.14 C
2230 24-07-2015 00:05:00 16.5 C 80 % 13.04 C
2231 24-07-2015 00:10:00 16.5 C 79 % 12.85 C
2232 24-07-2015 00:15:00 16.4 C 79 % 12.75 C
2233 24-07-2015 00:20:00 16.4 C 79 % 12.75 C
2234 24-07-2015 00:25:00 16.4 C 79 % 12.75 C
2235 24-07-2015 00:30:00 16.3 C 79 % 12.65 C
2236 24-07-2015 00:35:00 16.2 C 80 % 12.75 C
2237 24-07-2015 00:40:00 16.2 C 80 % 12.75 C
2238 24-07-2015 00:45:00 16.1 C 80 % 12.65 C
2239 24-07-2015 00:50:00 16.1 C 80 % 12.65 C
2240 24-07-2015 00:55:00 15.9 C 80 % 12.46 C
2241 24-07-2015 01:00:00 15.8 C 81 % 12.55 C
2242 24-07-2015 01:05:00 15.8 C 81 % 12.55 C
2243 24-07-2015 01:10:00 15.7 C 82 % 12.64 C
2244 24-07-2015 01:15:00 15.5 C 82 % 12.44 C
2245 24-07-2015 01:20:00 15.4 C 82 % 12.35 C
2246 24-07-2015 01:25:00 15.3 C 83 % 12.43 C
2247 24-07-2015 01:30:00 15.3 C 83 % 12.43 C
2248 24-07-2015 01:35:00 15.2 C 83 % 12.33 C
2249 24-07-2015 01:40:00 15.1 C 84 % 12.42 C
2250 24-07-2015 01:45:00 15.1 C 84 % 12.42 C
Sensor: Nr:Datum:Temp:Feuchte:Taupunkt:
Aussen-T/F 2251 24-07-2015 01:50:00 14.9 C 84 % 12.22 C
2252 24-07-2015 01:55:00 14.9 C 84 % 12.22 C
2253 24-07-2015 02:00:00 14.8 C 85 % 12.3 C
2254 24-07-2015 02:05:00 14.7 C 85 % 12.21 C
2255 24-07-2015 02:10:00 14.7 C 85 % 12.21 C
2256 24-07-2015 02:15:00 14.6 C 86 % 12.29 C
2257 24-07-2015 02:20:00 14.6 C 86 % 12.29 C
2258 24-07-2015 02:25:00 14.5 C 86 % 12.19 C
2259 24-07-2015 02:30:00 14.4 C 86 % 12.09 C
2260 24-07-2015 02:35:00 14.4 C 86 % 12.09 C
2261 24-07-2015 02:40:00 14.3 C 86 % 11.99 C
2262 24-07-2015 02:45:00 14.3 C 87 % 12.17 C
2263 24-07-2015 02:50:00 14.2 C 87 % 12.07 C
2264 24-07-2015 02:55:00 14.2 C 87 % 12.07 C
2265 24-07-2015 03:00:00 14.2 C 87 % 12.07 C
2266 24-07-2015 03:05:00 14.2 C 87 % 12.07 C
2267 24-07-2015 03:10:00 14.2 C 88 % 12.24 C
2268 24-07-2015 03:15:00 14.2 C 88 % 12.24 C
2269 24-07-2015 03:20:00 14.3 C 87 % 12.17 C
2270 24-07-2015 03:25:00 14.3 C 87 % 12.17 C
2271 24-07-2015 03:30:00 14.3 C 87 % 12.17 C
2272 24-07-2015 03:35:00 14.4 C 87 % 12.27 C
2273 24-07-2015 03:40:00 14.3 C 87 % 12.17 C
2274 24-07-2015 03:45:00 14.3 C 88 % 12.34 C
2275 24-07-2015 03:50:00 14.3 C 88 % 12.34 C
Sensor: Nr:Datum:Temp:Feuchte:Taupunkt:
Aussen-T/F 2276 24-07-2015 03:55:00 14.2 C 87 % 12.07 C
2277 24-07-2015 04:00:00 14.2 C 88 % 12.24 C
2278 24-07-2015 04:05:00 14.1 C 88 % 12.14 C
2279 24-07-2015 04:10:00 14 C 88 % 12.05 C
2280 24-07-2015 04:15:00 13.9 C 88 % 11.95 C
2281 24-07-2015 04:20:00 13.9 C 88 % 11.95 C
2282 24-07-2015 04:25:00 13.8 C 89 % 12.02 C
2283 24-07-2015 04:30:00 13.8 C 89 % 12.02 C
2284 24-07-2015 04:35:00 13.8 C 90 % 12.19 C
2285 24-07-2015 04:40:00 13.8 C 90 % 12.19 C
2286 24-07-2015 04:45:00 13.9 C 90 % 12.29 C
2287 24-07-2015 04:50:00 13.9 C 90 % 12.29 C
2288 24-07-2015 04:55:00 13.9 C 90 % 12.29 C
2289 24-07-2015 05:00:00 13.9 C 90 % 12.29 C
2290 24-07-2015 05:05:00 13.9 C 90 % 12.29 C
2291 24-07-2015 05:10:00 13.9 C 90 % 12.29 C
2292 24-07-2015 05:15:00 13.9 C 90 % 12.29 C
2293 24-07-2015 05:20:00 13.9 C 90 % 12.29 C
2294 24-07-2015 05:25:00 13.9 C 90 % 12.29 C
2295 24-07-2015 05:30:00 13.8 C 90 % 12.19 C
2296 24-07-2015 05:35:00 13.8 C 90 % 12.19 C
2297 24-07-2015 05:40:00 13.7 C 90 % 12.09 C
2298 24-07-2015 05:45:00 13.7 C 90 % 12.09 C
2299 24-07-2015 05:50:00 13.7 C 90 % 12.09 C
2300 24-07-2015 05:55:00 13.6 C 90 % 11.99 C
Sensor: Nr:Datum:Temp:Feuchte:Taupunkt:
Aussen-T/F 2301 24-07-2015 06:00:00 13.6 C 91 % 12.16 C
2302 24-07-2015 06:05:00 13.7 C 91 % 12.26 C
2303 24-07-2015 06:10:00 13.7 C 91 % 12.26 C
2304 24-07-2015 06:15:00 13.7 C 91 % 12.26 C
2305 24-07-2015 06:20:00 13.7 C 91 % 12.26 C
2306 24-07-2015 06:25:00 13.7 C 91 % 12.26 C
2307 24-07-2015 06:30:00 13.7 C 91 % 12.26 C
2308 24-07-2015 06:35:00 13.7 C 91 % 12.26 C
2309 24-07-2015 06:40:00 13.8 C 91 % 12.36 C
2310 24-07-2015 06:45:00 13.8 C 91 % 12.36 C
2311 24-07-2015 06:50:00 13.8 C 91 % 12.36 C
2312 24-07-2015 06:55:00 13.9 C 91 % 12.46 C
2313 24-07-2015 07:00:00 14.1 C 91 % 12.65 C
2314 24-07-2015 07:05:00 14.2 C 91 % 12.75 C
2315 24-07-2015 07:10:00 14.3 C 91 % 12.85 C
2316 24-07-2015 07:15:00 14.4 C 91 % 12.95 C
2317 24-07-2015 07:20:00 14.5 C 90 % 12.88 C
2318 24-07-2015 07:25:00 14.6 C 90 % 12.98 C
2319 24-07-2015 07:30:00 14.7 C 90 % 13.08 C
2320 24-07-2015 07:35:00 14.8 C 90 % 13.18 C
2321 24-07-2015 07:40:00 14.8 C 90 % 13.18 C
2322 24-07-2015 07:45:00 14.8 C 90 % 13.18 C
2323 24-07-2015 09:35:00 18.6 C 76 % 14.29 C
2324 24-07-2015 09:40:00 18.7 C 77 % 14.59 C
2325 24-07-2015 09:45:00 18.8 C 79 % 15.08 C
Sensor: Nr:Datum:Temp:Feuchte:Taupunkt:
Aussen-T/F 2326 24-07-2015 09:50:00 19 C 76 % 14.68 C
2327 24-07-2015 09:55:00 19.3 C 77 % 15.17 C
2328 24-07-2015 10:00:00 19.6 C 74 % 14.84 C
2329 24-07-2015 10:05:00 19.9 C 73 % 14.92 C
2330 24-07-2015 10:10:00 20.2 C 74 % 15.42 C
2331 24-07-2015 10:15:00 20.4 C 73 % 15.4 C
2332 24-07-2015 10:20:00 20.7 C 71 % 15.25 C
2333 24-07-2015 10:25:00 20.9 C 70 % 15.23 C
2334 24-07-2015 10:30:00 21.1 C 69 % 15.19 C
2335 24-07-2015 10:35:00 21.2 C 71 % 15.73 C
2336 24-07-2015 10:40:00 21.2 C 71 % 15.73 C
2337 24-07-2015 10:45:00 21.2 C 71 % 15.73 C
2338 24-07-2015 10:50:00 21.4 C 67 % 15.02 C
2339 24-07-2015 10:55:00 21.7 C 68 % 15.54 C
2340 24-07-2015 11:00:00 22.1 C 67 % 15.69 C
2341 24-07-2015 11:05:00 22.6 C 67 % 16.16 C
2342 24-07-2015 11:10:00 23 C 65 % 16.07 C
2343 24-07-2015 11:15:00 23.4 C 63 % 15.96 C
2344 24-07-2015 11:20:00 23.6 C 61 % 15.64 C
2345 24-07-2015 11:25:00 23.7 C 59 % 15.21 C
2346 24-07-2015 11:30:00 23.9 C 61 % 15.92 C
2347 24-07-2015 11:35:00 24 C 61 % 16.02 C
2348 24-07-2015 11:40:00 24.2 C 61 % 16.2 C
2349 24-07-2015 11:45:00 24.4 C 59 % 15.87 C
2350 24-07-2015 11:50:00 24.8 C 57 % 15.7 C
Sensor: Nr:Datum:Temp:Feuchte:Taupunkt:
Aussen-T/F 2351 24-07-2015 11:55:00 24.9 C 56 % 15.52 C
2352 24-07-2015 12:00:00 25.1 C 58 % 16.26 C
2353 24-07-2015 12:05:00 25.2 C 57 % 16.08 C
2354 24-07-2015 12:10:00 25.4 C 55 % 15.7 C
2355 24-07-2015 12:15:00 25.8 C 56 % 16.36 C
2356 24-07-2015 12:20:00 26 C 55 % 16.26 C
2357 24-07-2015 12:25:00 26.1 C 51 % 15.17 C
2358 24-07-2015 12:30:00 26.3 C 52 % 15.66 C
2359 24-07-2015 12:35:00 26.3 C 50 % 15.05 C
2360 24-07-2015 12:40:00 26.2 C 52 % 15.57 C
2361 24-07-2015 12:45:00 26.2 C 52 % 15.57 C
2362 24-07-2015 12:50:00 26.2 C 50 % 14.96 C
2363 24-07-2015 12:55:00 26.1 C 51 % 15.17 C
2364 24-07-2015 13:00:00 26.3 C 51 % 15.36 C
2365 24-07-2015 13:05:00 26.4 C 49 % 14.83 C
2366 24-07-2015 13:10:00 26.6 C 48 % 14.69 C
2367 24-07-2015 13:15:00 26.6 C 48 % 14.69 C
2368 24-07-2015 13:20:00 26.6 C 49 % 15.01 C
2369 24-07-2015 13:25:00 26.6 C 52 % 15.94 C
2370 24-07-2015 13:30:00 26.6 C 49 % 15.01 C
2371 24-07-2015 13:35:00 26.5 C 53 % 16.14 C
2372 24-07-2015 13:40:00 26.7 C 49 % 15.1 C
2373 24-07-2015 13:45:00 26.8 C 48 % 14.87 C
2374 24-07-2015 13:50:00 26.8 C 49 % 15.19 C
2375 24-07-2015 13:55:00 26.8 C 48 % 14.87 C
Sensor: Nr:Datum:Temp:Feuchte:Taupunkt:
Aussen-T/F 2376 24-07-2015 14:00:00 26.9 C 47 % 14.64 C
2377 24-07-2015 14:05:00 26.9 C 47 % 14.64 C
2378 24-07-2015 14:10:00 27.1 C 46 % 14.49 C
2379 24-07-2015 14:15:00 26.8 C 47 % 14.55 C
2380 24-07-2015 14:20:00 26.8 C 48 % 14.87 C
2381 24-07-2015 14:25:00 26.9 C 49 % 15.28 C
2382 24-07-2015 14:30:00 27.1 C 46 % 14.49 C
2383 24-07-2015 14:35:00 27.2 C 48 % 15.24 C
2384 24-07-2015 14:40:00 27.1 C 50 % 15.78 C
2385 24-07-2015 14:45:00 27.2 C 49 % 15.56 C
2386 24-07-2015 14:50:00 27.4 C 49 % 15.74 C
2387 24-07-2015 14:55:00 27.8 C 46 % 15.12 C
2388 24-07-2015 15:00:00 28.3 C 46 % 15.57 C
2389 24-07-2015 15:05:00 28.7 C 44 % 15.24 C
2390 24-07-2015 15:10:00 28.7 C 44 % 15.24 C
2391 24-07-2015 15:15:00 28.7 C 44 % 15.24 C
2392 24-07-2015 15:20:00 28.9 C 44 % 15.42 C
2393 24-07-2015 15:25:00 29.1 C 46 % 16.3 C
2394 24-07-2015 15:30:00 29.1 C 44 % 15.6 C
2395 24-07-2015 15:35:00 29.1 C 45 % 15.95 C
2396 24-07-2015 15:40:00 28.9 C 45 % 15.77 C
2397 24-07-2015 15:45:00 28.8 C 45 % 15.68 C
2398 24-07-2015 15:50:00 28.9 C 46 % 16.12 C
2399 24-07-2015 15:55:00 28.9 C 47 % 16.45 C
2400 24-07-2015 16:00:00 29.3 C 44 % 15.78 C
Sensor: Nr:Datum:Temp:Feuchte:Taupunkt:
Aussen-T/F 2401 24-07-2015 16:05:00 29.5 C 45 % 16.32 C
2402 24-07-2015 16:10:00 29.6 C 44 % 16.05 C
2403 24-07-2015 16:15:00 29.7 C 44 % 16.14 C
2404 24-07-2015 16:20:00 29.8 C 43 % 15.87 C
2405 24-07-2015 16:25:00 30.1 C 41 % 15.4 C
2406 24-07-2015 16:30:00 30.3 C 40 % 15.19 C
2407 24-07-2015 16:35:00 30.2 C 43 % 16.23 C
2408 24-07-2015 16:40:00 30 C 45 % 16.77 C
2409 24-07-2015 16:45:00 29.8 C 43 % 15.87 C
2410 24-07-2015 16:50:00 29.7 C 42 % 15.42 C
2411 24-07-2015 16:55:00 29.6 C 43 % 15.69 C
2412 24-07-2015 17:00:00 29.6 C 42 % 15.33 C
2413 24-07-2015 17:05:00 29.8 C 42 % 15.51 C
2414 24-07-2015 17:10:00 29.7 C 43 % 15.78 C
2415 24-07-2015 17:15:00 29.5 C 43 % 15.6 C
2416 24-07-2015 17:20:00 29.7 C 43 % 15.78 C
2417 24-07-2015 17:25:00 30.2 C 41 % 15.49 C
2418 24-07-2015 17:30:00 30.3 C 46 % 17.39 C
2419 24-07-2015 17:35:00 30.1 C 42 % 15.77 C
2420 24-07-2015 17:40:00 29.8 C 43 % 15.87 C
2421 24-07-2015 17:45:00 29.7 C 49 % 17.84 C
2422 24-07-2015 17:50:00 29.2 C 52 % 18.33 C
2423 24-07-2015 17:55:00 28.8 C 56 % 19.14 C
2424 24-07-2015 18:00:00 28.2 C 56 % 18.59 C
2425 24-07-2015 18:05:00 27.6 C 59 % 18.86 C
Sensor: Nr:Datum:Temp:Feuchte:Taupunkt:
Aussen-T/F 2426 24-07-2015 18:10:00 27.3 C 59 % 18.58 C
2427 24-07-2015 18:15:00 27.1 C 62 % 19.19 C
2428 24-07-2015 18:20:00 26.9 C 61 % 18.74 C
2429 24-07-2015 18:25:00 26.7 C 62 % 18.81 C
2430 24-07-2015 18:30:00 26.4 C 64 % 19.04 C
2431 24-07-2015 18:35:00 26.3 C 64 % 18.94 C
2432 24-07-2015 18:40:00 26.2 C 64 % 18.85 C
2433 24-07-2015 18:45:00 26.4 C 65 % 19.29 C
2434 24-07-2015 18:50:00 26.8 C 62 % 18.91 C
2435 24-07-2015 18:55:00 27.1 C 62 % 19.19 C
2436 24-07-2015 19:00:00 26.9 C 63 % 19.26 C
2437 24-07-2015 19:05:00 26.7 C 63 % 19.07 C
2438 24-07-2015 19:10:00 26.5 C 63 % 18.88 C
2439 24-07-2015 19:15:00 26.3 C 62 % 18.44 C
2440 24-07-2015 19:20:00 26.1 C 64 % 18.76 C
2441 24-07-2015 19:25:00 25.9 C 65 % 18.81 C
2442 24-07-2015 19:30:00 25.7 C 65 % 18.62 C
2443 24-07-2015 19:35:00 25.4 C 66 % 18.58 C
2444 24-07-2015 19:40:00 25.1 C 65 % 18.06 C
2445 24-07-2015 19:45:00 24.9 C 66 % 18.11 C
2446 24-07-2015 19:50:00 24.8 C 67 % 18.25 C
2447 24-07-2015 19:55:00 24.9 C 68 % 18.59 C
2448 24-07-2015 20:00:00 25 C 67 % 18.44 C
2449 24-07-2015 20:05:00 25.1 C 67 % 18.54 C
2450 24-07-2015 20:10:00 25.2 C 67 % 18.63 C
Sensor: Nr:Datum:Temp:Feuchte:Taupunkt:
Aussen-T/F 2451 24-07-2015 20:15:00 25.2 C 66 % 18.39 C
2452 24-07-2015 20:20:00 25 C 67 % 18.44 C
2453 24-07-2015 20:25:00 24.8 C 67 % 18.25 C
2454 24-07-2015 20:30:00 24.6 C 67 % 18.06 C
2455 24-07-2015 20:35:00 24.3 C 68 % 18.01 C
2456 24-07-2015 20:40:00 24.1 C 68 % 17.82 C
2457 24-07-2015 20:45:00 23.9 C 68 % 17.63 C
2458 24-07-2015 20:50:00 23.8 C 69 % 17.77 C
2459 24-07-2015 20:55:00 23.6 C 69 % 17.58 C
2460 24-07-2015 21:00:00 23.6 C 68 % 17.35 C
2461 24-07-2015 21:05:00 23.5 C 70 % 17.71 C
2462 24-07-2015 21:10:00 23.4 C 70 % 17.62 C
2463 24-07-2015 21:15:00 23.3 C 69 % 17.29 C
2464 24-07-2015 21:20:00 23.2 C 70 % 17.42 C
2465 24-07-2015 21:25:00 23 C 69 % 17.01 C
2466 24-07-2015 21:30:00 22.8 C 69 % 16.82 C
2467 24-07-2015 21:35:00 22.8 C 69 % 16.82 C
2468 24-07-2015 21:40:00 22.7 C 70 % 16.95 C
2469 24-07-2015 21:45:00 22.7 C 71 % 17.17 C
2470 24-07-2015 21:50:00 22.7 C 72 % 17.39 C
2471 24-07-2015 21:55:00 22.7 C 72 % 17.39 C
2472 24-07-2015 22:00:00 22.7 C 72 % 17.39 C
2473 24-07-2015 22:05:00 22.7 C 72 % 17.39 C
2474 24-07-2015 22:10:00 22.7 C 71 % 17.17 C
2475 24-07-2015 22:15:00 22.7 C 71 % 17.17 C
Sensor: Nr:Datum:Temp:Feuchte:Taupunkt:
Aussen-T/F 2476 24-07-2015 22:20:00 22.7 C 73 % 17.61 C
2477 24-07-2015 22:25:00 22.7 C 73 % 17.61 C
2478 24-07-2015 22:30:00 22.6 C 73 % 17.51 C
2479 24-07-2015 22:35:00 22.6 C 72 % 17.3 C
2480 24-07-2015 22:40:00 22.8 C 68 % 16.59 C
2481 24-07-2015 22:45:00 23.6 C 67 % 17.11 C
2482 24-07-2015 22:50:00 23.6 C 67 % 17.11 C
2483 24-07-2015 22:55:00 23.1 C 70 % 17.33 C
2484 24-07-2015 23:00:00 22.5 C 74 % 17.63 C
2485 24-07-2015 23:05:00 21.8 C 78 % 17.79 C
2486 24-07-2015 23:10:00 21.1 C 81 % 17.71 C
2487 24-07-2015 23:15:00 20.4 C 84 % 17.61 C
2488 24-07-2015 23:20:00 19.9 C 86 % 17.49 C
2489 24-07-2015 23:25:00 19.6 C 87 % 17.38 C
2490 24-07-2015 23:30:00 19.3 C 88 % 17.26 C
2491 24-07-2015 23:35:00 19.1 C 89 % 17.24 C
2492 24-07-2015 23:40:00 19.1 C 89 % 17.24 C
2493 24-07-2015 23:45:00 19.1 C 89 % 17.24 C
2494 24-07-2015 23:50:00 18.9 C 89 % 17.05 C
2495 24-07-2015 23:55:00 18.9 C 90 % 17.22 C
2496 25-07-2015 00:00:00 18.8 C 91 % 17.3 C
2497 25-07-2015 00:05:00 18.7 C 91 % 17.2 C
2498 25-07-2015 00:10:00 18.6 C 91 % 17.1 C
2499 25-07-2015 00:15:00 18.5 C 91 % 17 C
2500 25-07-2015 00:20:00 18.4 C 91 % 16.9 C
Sensor: Nr:Datum:Temp:Feuchte:Taupunkt:
Aussen-T/F 2501 25-07-2015 00:25:00 18.4 C 92 % 17.08 C
2502 25-07-2015 00:30:00 18.3 C 92 % 16.98 C
2503 25-07-2015 00:35:00 18.3 C 93 % 17.15 C
2504 25-07-2015 00:40:00 18.2 C 93 % 17.05 C
2505 25-07-2015 00:45:00 18.2 C 93 % 17.05 C
2506 25-07-2015 00:50:00 18.1 C 93 % 16.95 C
2507 25-07-2015 00:55:00 18 C 94 % 17.02 C
2508 25-07-2015 01:00:00 17.9 C 94 % 16.92 C
2509 25-07-2015 01:05:00 17.9 C 94 % 16.92 C
2510 25-07-2015 01:10:00 17.8 C 94 % 16.82 C
2511 25-07-2015 01:15:00 17.8 C 94 % 16.82 C
2512 25-07-2015 01:20:00 17.8 C 94 % 16.82 C
2513 25-07-2015 01:25:00 17.8 C 95 % 16.99 C
2514 25-07-2015 01:30:00 17.8 C 95 % 16.99 C
2515 25-07-2015 01:35:00 17.8 C 95 % 16.99 C
2516 25-07-2015 01:40:00 17.8 C 95 % 16.99 C
2517 25-07-2015 01:45:00 17.7 C 95 % 16.89 C
2518 25-07-2015 01:50:00 17.7 C 95 % 16.89 C
2519 25-07-2015 01:55:00 17.6 C 95 % 16.79 C
2520 25-07-2015 02:00:00 17.6 C 95 % 16.79 C
2521 25-07-2015 02:05:00 17.6 C 95 % 16.79 C
2522 25-07-2015 02:10:00 17.6 C 95 % 16.79 C
2523 25-07-2015 02:15:00 17.6 C 95 % 16.79 C
2524 25-07-2015 02:20:00 17.6 C 95 % 16.79 C
2525 25-07-2015 02:25:00 17.5 C 95 % 16.69 C
Sensor: Nr:Datum:Temp:Feuchte:Taupunkt:
Aussen-T/F 2526 25-07-2015 02:30:00 17.4 C 95 % 16.59 C
2527 25-07-2015 02:35:00 17.4 C 95 % 16.59 C
2528 25-07-2015 02:40:00 17.4 C 95 % 16.59 C
2529 25-07-2015 02:45:00 17.3 C 95 % 16.49 C
2530 25-07-2015 02:50:00 17.3 C 95 % 16.49 C
2531 25-07-2015 02:55:00 17.3 C 95 % 16.49 C
2532 25-07-2015 03:00:00 17.2 C 95 % 16.39 C
2533 25-07-2015 03:05:00 17.2 C 96 % 16.56 C
2534 25-07-2015 03:10:00 17.2 C 95 % 16.39 C
2535 25-07-2015 03:15:00 17.1 C 95 % 16.29 C
2536 25-07-2015 03:20:00 17.1 C 95 % 16.29 C
2537 25-07-2015 03:25:00 17 C 96 % 16.36 C
2538 25-07-2015 03:30:00 16.9 C 96 % 16.26 C
2539 25-07-2015 03:35:00 16.8 C 96 % 16.16 C
2540 25-07-2015 03:40:00 16.8 C 95 % 15.99 C
2541 25-07-2015 03:45:00 16.8 C 96 % 16.16 C
2542 25-07-2015 03:50:00 16.7 C 96 % 16.06 C
2543 25-07-2015 03:55:00 16.7 C 96 % 16.06 C
2544 25-07-2015 04:00:00 16.6 C 96 % 15.96 C
2545 25-07-2015 04:05:00 16.6 C 96 % 15.96 C
2546 25-07-2015 04:10:00 16.6 C 96 % 15.96 C
2547 25-07-2015 04:15:00 16.6 C 96 % 15.96 C
2548 25-07-2015 04:20:00 16.6 C 96 % 15.96 C
2549 25-07-2015 04:25:00 16.6 C 96 % 15.96 C
2550 25-07-2015 06:40:00 16.8 C 96 % 16.16 C
Sensor: Nr:Datum:Temp:Feuchte:Taupunkt:
Aussen-T/F 2551 25-07-2015 06:45:00 16.8 C 96 % 16.16 C
2552 25-07-2015 06:50:00 16.8 C 96 % 16.16 C
2553 25-07-2015 07:45:00 17.2 C 93 % 16.06 C
2554 25-07-2015 07:50:00 17.4 C 93 % 16.26 C
2555 25-07-2015 07:55:00 17.4 C 93 % 16.26 C
2556 25-07-2015 08:00:00 17.4 C 92 % 16.09 C
2557 25-07-2015 08:05:00 17.7 C 91 % 16.21 C
2558 25-07-2015 08:10:00 18 C 88 % 15.98 C
2559 25-07-2015 08:15:00 18.6 C 87 % 16.39 C
2560 25-07-2015 08:20:00 19.1 C 84 % 16.33 C
2561 25-07-2015 08:25:00 19.4 C 80 % 15.86 C
2562 25-07-2015 08:30:00 19.4 C 80 % 15.86 C
2563 25-07-2015 08:35:00 19.4 C 79 % 15.66 C
2564 25-07-2015 08:40:00 19.3 C 79 % 15.57 C
2565 25-07-2015 08:45:00 19.4 C 79 % 15.66 C
2566 25-07-2015 08:50:00 19.4 C 77 % 15.27 C
2567 25-07-2015 08:55:00 19.6 C 76 % 15.26 C
2568 25-07-2015 09:00:00 19.7 C 75 % 15.15 C
2569 25-07-2015 09:05:00 19.8 C 74 % 15.03 C
2570 25-07-2015 09:10:00 19.9 C 74 % 15.13 C
2571 25-07-2015 09:15:00 19.9 C 73 % 14.92 C
2572 25-07-2015 09:20:00 20.1 C 73 % 15.11 C
2573 25-07-2015 09:25:00 20.2 C 71 % 14.78 C
2574 25-07-2015 09:30:00 20.3 C 72 % 15.09 C
2575 25-07-2015 09:35:00 20.3 C 71 % 14.87 C
Sensor: Nr:Datum:Temp:Feuchte:Taupunkt:
Aussen-T/F 2576 25-07-2015 09:40:00 20.2 C 72 % 14.99 C
2577 25-07-2015 09:45:00 20.1 C 72 % 14.9 C
2578 25-07-2015 09:50:00 19.8 C 73 % 14.82 C
2579 25-07-2015 09:55:00 19.7 C 74 % 14.94 C
2580 25-07-2015 10:00:00 19.8 C 73 % 14.82 C
2581 25-07-2015 10:05:00 20 C 73 % 15.01 C
2582 25-07-2015 10:10:00 20.3 C 73 % 15.3 C
2583 25-07-2015 10:15:00 20.1 C 74 % 15.32 C
2584 25-07-2015 10:20:00 19.6 C 78 % 15.66 C
2585 25-07-2015 10:25:00 19.1 C 81 % 15.76 C
2586 25-07-2015 10:30:00 18.8 C 83 % 15.85 C
2587 25-07-2015 10:35:00 18.7 C 82 % 15.57 C
2588 25-07-2015 10:40:00 18.7 C 83 % 15.75 C
2589 25-07-2015 10:45:00 18.8 C 83 % 15.85 C
2590 25-07-2015 10:50:00 19.2 C 81 % 15.86 C
2591 25-07-2015 10:55:00 19.2 C 80 % 15.67 C
2592 25-07-2015 11:00:00 19.1 C 79 % 15.37 C
2593 25-07-2015 11:05:00 18.7 C 80 % 15.18 C
2594 25-07-2015 11:10:00 18.4 C 83 % 15.46 C
2595 25-07-2015 11:15:00 18 C 83 % 15.07 C
2596 25-07-2015 11:20:00 18 C 83 % 15.07 C
2597 25-07-2015 11:25:00 18 C 84 % 15.26 C
2598 25-07-2015 11:30:00 17.9 C 83 % 14.97 C
2599 25-07-2015 11:35:00 17.9 C 83 % 14.97 C
2600 25-07-2015 11:40:00 18 C 84 % 15.26 C
Sensor: Nr:Datum:Temp:Feuchte:Taupunkt:
Aussen-T/F 2601 25-07-2015 11:45:00 18.1 C 84 % 15.35 C
2602 25-07-2015 11:50:00 18.2 C 84 % 15.45 C
2603 25-07-2015 11:55:00 18.2 C 83 % 15.27 C
2604 25-07-2015 12:00:00 18.2 C 84 % 15.45 C
2605 25-07-2015 12:05:00 18.2 C 84 % 15.45 C
2606 25-07-2015 12:10:00 18.6 C 85 % 16.03 C
2607 25-07-2015 12:15:00 18.9 C 83 % 15.95 C
2608 25-07-2015 12:20:00 18.7 C 80 % 15.18 C
2609 25-07-2015 12:25:00 18.5 C 79 % 14.79 C
2610 25-07-2015 12:30:00 18.5 C 81 % 15.18 C
2611 25-07-2015 12:35:00 18.5 C 79 % 14.79 C
2612 25-07-2015 12:40:00 18.3 C 80 % 14.79 C
2613 25-07-2015 12:45:00 17.7 C 82 % 14.59 C
2614 25-07-2015 12:50:00 17.1 C 84 % 14.38 C
2615 25-07-2015 12:55:00 16.7 C 84 % 13.98 C
2616 25-07-2015 13:00:00 16.7 C 86 % 14.35 C
2617 25-07-2015 13:05:00 16.8 C 85 % 14.26 C
2618 25-07-2015 13:10:00 17 C 85 % 14.46 C
2619 25-07-2015 13:15:00 17.3 C 83 % 14.39 C
2620 25-07-2015 13:20:00 17.7 C 80 % 14.21 C
2621 25-07-2015 13:25:00 17.9 C 77 % 13.81 C
2622 25-07-2015 13:30:00 17.9 C 75 % 13.41 C
2623 25-07-2015 13:35:00 18 C 76 % 13.71 C
2624 25-07-2015 13:40:00 18.3 C 74 % 13.59 C
2625 25-07-2015 13:45:00 18.3 C 74 % 13.59 C
Sensor: Nr:Datum:Temp:Feuchte:Taupunkt:
Aussen-T/F 2626 25-07-2015 13:50:00 18.3 C 72 % 13.17 C
2627 25-07-2015 13:55:00 18.1 C 70 % 12.55 C
2628 25-07-2015 14:00:00 18.2 C 71 % 12.86 C
2629 25-07-2015 14:05:00 18.4 C 70 % 12.83 C
2630 25-07-2015 14:10:00 18.7 C 68 % 12.68 C
2631 25-07-2015 14:15:00 18.8 C 68 % 12.77 C
2632 25-07-2015 14:20:00 19.1 C 68 % 13.06 C
2633 25-07-2015 14:25:00 19.2 C 67 % 12.93 C
2634 25-07-2015 14:30:00 18.9 C 65 % 12.18 C
2635 25-07-2015 14:35:00 18.7 C 66 % 12.22 C
2636 25-07-2015 14:40:00 18.8 C 67 % 12.55 C
2637 25-07-2015 14:45:00 18.9 C 65 % 12.18 C
2638 25-07-2015 14:50:00 19.1 C 65 % 12.37 C
2639 25-07-2015 14:55:00 19.2 C 63 % 11.99 C
2640 25-07-2015 15:00:00 19 C 64 % 12.04 C
2641 25-07-2015 15:05:00 18.8 C 65 % 12.09 C
2642 25-07-2015 15:10:00 18.7 C 66 % 12.22 C
2643 25-07-2015 15:15:00 18.7 C 66 % 12.22 C
2644 25-07-2015 15:20:00 18.9 C 65 % 12.18 C
2645 25-07-2015 15:25:00 19.2 C 63 % 11.99 C
2646 25-07-2015 15:30:00 19.1 C 62 % 11.65 C
2647 25-07-2015 15:35:00 18.8 C 63 % 11.61 C
2648 25-07-2015 15:40:00 18.6 C 62 % 11.18 C
2649 25-07-2015 15:45:00 18.5 C 63 % 11.33 C
2650 25-07-2015 15:50:00 18.6 C 64 % 11.66 C
Sensor: Nr:Datum:Temp:Feuchte:Taupunkt:
Aussen-T/F 2651 25-07-2015 15:55:00 18.6 C 63 % 11.42 C
2652 25-07-2015 16:00:00 18.3 C 63 % 11.14 C
2653 25-07-2015 16:05:00 18.2 C 65 % 11.52 C
2654 25-07-2015 16:10:00 18.1 C 66 % 11.65 C
2655 25-07-2015 16:15:00 18.1 C 67 % 11.88 C
2656 25-07-2015 16:20:00 18.2 C 63 % 11.05 C
2657 25-07-2015 16:25:00 18.1 C 65 % 11.42 C
2658 25-07-2015 16:30:00 17.9 C 67 % 11.69 C
2659 25-07-2015 16:35:00 18.1 C 67 % 11.88 C
2660 25-07-2015 16:40:00 18.3 C 67 % 12.07 C
2661 25-07-2015 16:45:00 18.4 C 66 % 11.94 C
2662 25-07-2015 16:50:00 18.3 C 66 % 11.84 C
2663 25-07-2015 16:55:00 18.1 C 65 % 11.42 C
2664 25-07-2015 17:00:00 17.9 C 66 % 11.46 C
2665 25-07-2015 17:05:00 17.7 C 66 % 11.27 C
2666 25-07-2015 17:10:00 17.7 C 68 % 11.72 C
2667 25-07-2015 17:15:00 17.6 C 67 % 11.4 C
2668 25-07-2015 17:20:00 17.5 C 67 % 11.31 C
2669 25-07-2015 17:25:00 17.3 C 68 % 11.34 C
2670 25-07-2015 17:30:00 17.1 C 70 % 11.59 C
2671 25-07-2015 17:35:00 17.2 C 70 % 11.68 C
2672 25-07-2015 17:40:00 17.1 C 70 % 11.59 C
2673 25-07-2015 17:45:00 17.1 C 70 % 11.59 C
2674 25-07-2015 17:50:00 16.9 C 70 % 11.4 C
2675 25-07-2015 17:55:00 16.8 C 71 % 11.52 C
Sensor: Nr:Datum:Temp:Feuchte:Taupunkt:
Aussen-T/F 2676 25-07-2015 18:00:00 16.8 C 70 % 11.3 C
2677 25-07-2015 18:05:00 16.8 C 69 % 11.09 C
2678 25-07-2015 18:10:00 16.8 C 69 % 11.09 C
2679 25-07-2015 18:15:00 16.8 C 68 % 10.87 C
2680 25-07-2015 18:20:00 16.8 C 68 % 10.87 C
2681 25-07-2015 18:25:00 16.8 C 67 % 10.64 C
2682 25-07-2015 18:30:00 16.8 C 67 % 10.64 C
2683 25-07-2015 18:35:00 16.8 C 68 % 10.87 C
2684 25-07-2015 18:40:00 16.9 C 67 % 10.74 C
2685 25-07-2015 18:45:00 16.9 C 68 % 10.96 C
2686 25-07-2015 18:50:00 16.8 C 68 % 10.87 C
2687 25-07-2015 18:55:00 16.8 C 67 % 10.64 C
2688 25-07-2015 19:00:00 16.8 C 67 % 10.64 C
2689 25-07-2015 19:05:00 16.8 C 66 % 10.42 C
2690 25-07-2015 19:10:00 16.8 C 67 % 10.64 C
2691 25-07-2015 19:15:00 16.8 C 67 % 10.64 C
2692 25-07-2015 19:20:00 16.7 C 67 % 10.55 C
2693 25-07-2015 19:25:00 16.6 C 67 % 10.45 C
2694 25-07-2015 19:30:00 16.6 C 68 % 10.67 C
2695 25-07-2015 19:35:00 16.5 C 68 % 10.58 C
2696 25-07-2015 19:40:00 16.4 C 69 % 10.7 C
2697 25-07-2015 19:45:00 16.4 C 68 % 10.48 C
2698 25-07-2015 19:50:00 16.4 C 68 % 10.48 C
2699 25-07-2015 19:55:00 16.4 C 68 % 10.48 C
2700 25-07-2015 20:00:00 16.4 C 68 % 10.48 C
Sensor: Nr:Datum:Temp:Feuchte:Taupunkt:
Aussen-T/F 2701 25-07-2015 20:05:00 16.4 C 68 % 10.48 C
2702 25-07-2015 20:10:00 16.3 C 68 % 10.39 C
2703 25-07-2015 20:15:00 16.2 C 68 % 10.29 C
2704 25-07-2015 20:20:00 16.2 C 68 % 10.29 C
2705 25-07-2015 20:25:00 16.1 C 67 % 9.98 C
2706 25-07-2015 20:30:00 16 C 66 % 9.66 C
2707 25-07-2015 20:35:00 16 C 67 % 9.88 C
2708 25-07-2015 20:40:00 16 C 67 % 9.88 C
2709 25-07-2015 20:45:00 16.1 C 66 % 9.75 C
2710 25-07-2015 20:50:00 16 C 65 % 9.43 C
2711 25-07-2015 20:55:00 15.9 C 65 % 9.34 C
2712 25-07-2015 21:00:00 15.8 C 66 % 9.47 C
2713 25-07-2015 21:05:00 15.7 C 66 % 9.37 C
2714 25-07-2015 21:10:00 15.6 C 66 % 9.28 C
2715 25-07-2015 21:15:00 15.4 C 67 % 9.31 C
2716 25-07-2015 21:20:00 15.3 C 67 % 9.21 C
2717 25-07-2015 21:25:00 15.2 C 69 % 9.56 C
2718 25-07-2015 21:30:00 15.1 C 69 % 9.46 C
2719 25-07-2015 21:35:00 14.9 C 70 % 9.48 C
2720 25-07-2015 21:40:00 14.8 C 71 % 9.6 C
2721 25-07-2015 21:45:00 14.8 C 71 % 9.6 C
2722 25-07-2015 21:50:00 14.7 C 71 % 9.5 C
2723 25-07-2015 21:55:00 14.6 C 71 % 9.41 C
2724 25-07-2015 22:00:00 14.5 C 72 % 9.52 C
2725 25-07-2015 22:05:00 14.4 C 72 % 9.42 C
Sensor: Nr:Datum:Temp:Feuchte:Taupunkt:
Aussen-T/F 2726 25-07-2015 22:10:00 14.3 C 72 % 9.33 C
2727 25-07-2015 22:15:00 14.3 C 72 % 9.33 C
2728 25-07-2015 22:20:00 14.3 C 72 % 9.33 C
2729 25-07-2015 22:25:00 14.2 C 73 % 9.43 C
2730 25-07-2015 22:30:00 14.2 C 73 % 9.43 C
2731 25-07-2015 22:35:00 14.1 C 73 % 9.34 C
2732 25-07-2015 22:40:00 14 C 74 % 9.44 C
2733 25-07-2015 22:45:00 13.9 C 74 % 9.35 C
2734 25-07-2015 22:50:00 13.9 C 74 % 9.35 C
2735 25-07-2015 22:55:00 13.9 C 74 % 9.35 C
2736 25-07-2015 23:00:00 13.8 C 75 % 9.45 C
2737 25-07-2015 23:05:00 13.8 C 76 % 9.65 C
2738 25-07-2015 23:10:00 13.7 C 76 % 9.55 C
2739 25-07-2015 23:15:00 13.7 C 76 % 9.55 C
2740 25-07-2015 23:20:00 13.6 C 77 % 9.65 C
2741 25-07-2015 23:25:00 13.5 C 77 % 9.55 C
2742 25-07-2015 23:30:00 13.4 C 78 % 9.65 C
2743 25-07-2015 23:35:00 13.3 C 78 % 9.55 C
2744 25-07-2015 23:40:00 13.2 C 79 % 9.64 C
2745 25-07-2015 23:45:00 13.1 C 79 % 9.54 C
2746 25-07-2015 23:50:00 13.1 C 79 % 9.54 C
2747 25-07-2015 23:55:00 13 C 80 % 9.63 C
2748 26-07-2015 00:00:00 13 C 80 % 9.63 C
2749 26-07-2015 00:05:00 13 C 80 % 9.63 C
2750 26-07-2015 00:10:00 12.9 C 80 % 9.54 C
Sensor: Nr:Datum:Temp:Feuchte:Taupunkt:
Aussen-T/F 2751 26-07-2015 00:15:00 12.9 C 80 % 9.54 C
2752 26-07-2015 00:20:00 12.9 C 81 % 9.72 C
2753 26-07-2015 00:25:00 12.9 C 81 % 9.72 C
2754 26-07-2015 00:30:00 12.9 C 81 % 9.72 C
2755 26-07-2015 00:35:00 12.9 C 81 % 9.72 C
2756 26-07-2015 00:40:00 12.8 C 81 % 9.62 C
2757 26-07-2015 00:45:00 12.7 C 81 % 9.53 C
2758 26-07-2015 00:50:00 12.7 C 82 % 9.71 C
2759 26-07-2015 00:55:00 12.7 C 82 % 9.71 C
2760 26-07-2015 01:00:00 12.6 C 82 % 9.61 C
2761 26-07-2015 01:05:00 12.6 C 82 % 9.61 C
2762 26-07-2015 01:10:00 12.5 C 82 % 9.51 C
2763 26-07-2015 01:15:00 12.5 C 82 % 9.51 C
2764 26-07-2015 01:20:00 12.4 C 83 % 9.6 C
2765 26-07-2015 01:25:00 12.4 C 83 % 9.6 C
2766 26-07-2015 01:30:00 12.3 C 83 % 9.5 C
2767 26-07-2015 01:35:00 12.2 C 84 % 9.58 C
2768 26-07-2015 01:40:00 12.2 C 84 % 9.58 C
2769 26-07-2015 01:45:00 12.1 C 84 % 9.48 C
2770 26-07-2015 01:50:00 12.1 C 84 % 9.48 C
2771 26-07-2015 01:55:00 12 C 85 % 9.56 C
2772 26-07-2015 02:00:00 11.9 C 85 % 9.46 C
2773 26-07-2015 02:05:00 11.9 C 85 % 9.46 C
2774 26-07-2015 02:10:00 11.9 C 85 % 9.46 C
2775 26-07-2015 02:15:00 11.9 C 85 % 9.46 C
Sensor: Nr:Datum:Temp:Feuchte:Taupunkt:
Aussen-T/F 2776 26-07-2015 02:20:00 12 C 85 % 9.56 C
2777 26-07-2015 02:25:00 12.1 C 85 % 9.66 C
2778 26-07-2015 02:30:00 12.1 C 84 % 9.48 C
2779 26-07-2015 02:35:00 12.2 C 84 % 9.58 C
2780 26-07-2015 02:40:00 12.2 C 84 % 9.58 C
2781 26-07-2015 02:45:00 12.1 C 84 % 9.48 C
2782 26-07-2015 02:50:00 12 C 84 % 9.38 C
2783 26-07-2015 02:55:00 12 C 85 % 9.56 C
2784 26-07-2015 03:00:00 11.9 C 85 % 9.46 C
2785 26-07-2015 03:05:00 11.9 C 85 % 9.46 C
2786 26-07-2015 03:10:00 11.9 C 85 % 9.46 C
2787 26-07-2015 03:15:00 11.9 C 85 % 9.46 C
2788 26-07-2015 03:20:00 11.9 C 85 % 9.46 C
2789 26-07-2015 03:25:00 11.9 C 85 % 9.46 C
2790 26-07-2015 03:30:00 11.9 C 85 % 9.46 C
2791 26-07-2015 03:35:00 11.8 C 85 % 9.36 C
2792 26-07-2015 03:40:00 11.8 C 85 % 9.36 C
2793 26-07-2015 03:45:00 11.8 C 85 % 9.36 C
2794 26-07-2015 03:50:00 11.8 C 85 % 9.36 C
2795 26-07-2015 04:15:00 11.1 C 87 % 9.02 C
2796 26-07-2015 04:20:00 11 C 88 % 9.09 C
2797 26-07-2015 04:25:00 11 C 88 % 9.09 C
2798 26-07-2015 04:30:00 10.7 C 89 % 8.96 C
2799 26-07-2015 04:35:00 10.7 C 89 % 8.96 C
2800 26-07-2015 04:40:00 10.6 C 89 % 8.86 C
Sensor: Nr:Datum:Temp:Feuchte:Taupunkt:
Aussen-T/F 2801 26-07-2015 04:45:00 10.5 C 90 % 8.93 C
2802 26-07-2015 04:50:00 10.4 C 90 % 8.83 C
2803 26-07-2015 04:55:00 10.4 C 90 % 8.83 C
2804 26-07-2015 05:00:00 10.4 C 90 % 8.83 C
2805 26-07-2015 05:05:00 10.3 C 91 % 8.9 C
2806 26-07-2015 05:10:00 10.3 C 91 % 8.9 C
2807 26-07-2015 05:15:00 10.3 C 91 % 8.9 C
2808 26-07-2015 05:20:00 10.3 C 91 % 8.9 C
2809 26-07-2015 05:25:00 10.3 C 91 % 8.9 C
2810 26-07-2015 05:30:00 10.3 C 91 % 8.9 C
2811 26-07-2015 05:35:00 10.2 C 91 % 8.8 C
2812 26-07-2015 05:40:00 10.2 C 91 % 8.8 C
2813 26-07-2015 05:45:00 10.1 C 91 % 8.7 C
2814 26-07-2015 05:50:00 10.1 C 91 % 8.7 C
2815 26-07-2015 05:55:00 9.9 C 91 % 8.5 C
2816 26-07-2015 06:00:00 9.8 C 91 % 8.4 C
2817 26-07-2015 06:05:00 9.8 C 92 % 8.56 C
2818 26-07-2015 06:10:00 9.8 C 92 % 8.56 C
2819 26-07-2015 06:15:00 9.8 C 92 % 8.56 C
2820 26-07-2015 06:20:00 9.9 C 92 % 8.66 C
2821 26-07-2015 06:25:00 9.9 C 92 % 8.66 C
2822 26-07-2015 06:30:00 9.9 C 92 % 8.66 C
2823 26-07-2015 06:35:00 9.9 C 92 % 8.66 C
2824 26-07-2015 06:40:00 9.9 C 92 % 8.66 C
2825 26-07-2015 06:45:00 9.9 C 92 % 8.66 C
Sensor: Nr:Datum:Temp:Feuchte:Taupunkt:
Aussen-T/F 2826 26-07-2015 06:50:00 10 C 92 % 8.76 C
2827 26-07-2015 06:55:00 10 C 92 % 8.76 C
2828 26-07-2015 07:00:00 10 C 92 % 8.76 C
2829 26-07-2015 07:05:00 10.1 C 92 % 8.86 C
2830 26-07-2015 07:10:00 10.1 C 92 % 8.86 C
2831 26-07-2015 07:15:00 10.1 C 92 % 8.86 C
2832 26-07-2015 07:20:00 10.1 C 92 % 8.86 C
2833 26-07-2015 07:25:00 10 C 92 % 8.76 C
2834 26-07-2015 07:30:00 10.1 C 92 % 8.86 C
2835 26-07-2015 07:35:00 10.2 C 93 % 9.12 C
2836 26-07-2015 07:40:00 10.2 C 93 % 9.12 C
2837 26-07-2015 07:45:00 10.3 C 93 % 9.22 C
2838 26-07-2015 07:50:00 10.3 C 93 % 9.22 C
2839 26-07-2015 07:55:00 10.3 C 93 % 9.22 C
2840 26-07-2015 08:00:00 10.4 C 92 % 9.16 C
2841 26-07-2015 08:05:00 10.4 C 92 % 9.16 C
2842 26-07-2015 08:10:00 10.4 C 93 % 9.32 C
2843 26-07-2015 08:15:00 10.4 C 93 % 9.32 C
2844 26-07-2015 08:20:00 11 C 93 % 9.91 C
2845 26-07-2015 08:25:00 11.3 C 92 % 10.05 C
2846 26-07-2015 08:30:00 11.6 C 91 % 10.18 C
2847 26-07-2015 08:35:00 11.9 C 91 % 10.48 C
2848 26-07-2015 08:40:00 12.4 C 89 % 10.64 C
2849 26-07-2015 08:45:00 12.8 C 88 % 10.86 C
2850 26-07-2015 08:50:00 13.3 C 85 % 10.83 C
Sensor: Nr:Datum:Temp:Feuchte:Taupunkt:
Aussen-T/F 2851 26-07-2015 08:55:00 13.7 C 83 % 10.87 C
2852 26-07-2015 09:00:00 13.9 C 81 % 10.7 C
2853 26-07-2015 09:05:00 14.1 C 81 % 10.89 C
2854 26-07-2015 09:10:00 14.2 C 81 % 10.99 C
2855 26-07-2015 09:15:00 14.2 C 79 % 10.61 C
2856 26-07-2015 09:20:00 14.3 C 80 % 10.9 C
2857 26-07-2015 09:25:00 14.4 C 79 % 10.81 C
2858 26-07-2015 09:30:00 14.7 C 77 % 10.71 C
2859 26-07-2015 09:35:00 14.9 C 77 % 10.91 C
2860 26-07-2015 09:40:00 15.2 C 75 % 10.8 C
2861 26-07-2015 09:45:00 15.3 C 76 % 11.1 C
2862 26-07-2015 09:50:00 15.3 C 75 % 10.9 C
2863 26-07-2015 09:55:00 15.5 C 73 % 10.69 C
2864 26-07-2015 10:00:00 15.7 C 72 % 10.67 C
2865 26-07-2015 10:05:00 15.8 C 72 % 10.77 C
2866 26-07-2015 10:10:00 16.1 C 71 % 10.84 C
2867 26-07-2015 10:15:00 16.4 C 67 % 10.26 C
2868 26-07-2015 10:20:00 16.8 C 65 % 10.19 C
2869 26-07-2015 10:25:00 17.1 C 65 % 10.47 C
2870 26-07-2015 10:30:00 17.4 C 64 % 10.53 C
2871 26-07-2015 10:35:00 17.5 C 63 % 10.38 C
2872 26-07-2015 10:40:00 17.8 C 60 % 9.94 C
2873 26-07-2015 10:45:00 17.8 C 64 % 10.9 C
2874 26-07-2015 10:50:00 17.6 C 67 % 11.4 C
2875 26-07-2015 10:55:00 17.5 C 65 % 10.85 C
Sensor: Nr:Datum:Temp:Feuchte:Taupunkt:
Aussen-T/F 2876 26-07-2015 11:00:00 17.9 C 58 % 9.53 C
2877 26-07-2015 11:05:00 18.4 C 61 % 10.75 C
2878 26-07-2015 11:10:00 18.8 C 57 % 10.11 C
2879 26-07-2015 11:15:00 19.1 C 56 % 10.12 C
2880 26-07-2015 11:20:00 19.3 C 53 % 9.49 C
2881 26-07-2015 11:25:00 19.6 C 52 % 9.48 C
2882 26-07-2015 11:30:00 19.1 C 52 % 9.02 C
2883 26-07-2015 11:35:00 18.8 C 55 % 9.58 C
2884 26-07-2015 11:40:00 18.9 C 56 % 9.94 C
2885 26-07-2015 11:45:00 19.3 C 51 % 8.92 C
2886 26-07-2015 11:50:00 19.3 C 51 % 8.92 C
2887 26-07-2015 11:55:00 19.3 C 54 % 9.77 C
2888 26-07-2015 12:00:00 19.5 C 51 % 9.1 C
2889 26-07-2015 12:05:00 19.8 C 58 % 11.3 C
2890 26-07-2015 12:10:00 20.4 C 53 % 10.51 C
2891 26-07-2015 12:15:00 20.9 C 48 % 9.49 C
2892 26-07-2015 12:20:00 20.9 C 47 % 9.17 C
2893 26-07-2015 12:25:00 20.9 C 48 % 9.49 C
2894 26-07-2015 12:30:00 21.1 C 46 % 9.04 C
2895 26-07-2015 12:35:00 21.4 C 46 % 9.31 C
2896 26-07-2015 12:40:00 21.6 C 46 % 9.49 C
2897 26-07-2015 12:45:00 21.6 C 48 % 10.13 C
2898 26-07-2015 12:50:00 21.3 C 47 % 9.54 C
2899 26-07-2015 12:55:00 20.8 C 48 % 9.4 C
2900 26-07-2015 13:00:00 20.6 C 48 % 9.21 C
Sensor: Nr:Datum:Temp:Feuchte:Taupunkt:
Aussen-T/F 2901 26-07-2015 13:05:00 20.4 C 48 % 9.03 C
2902 26-07-2015 13:10:00 20.5 C 52 % 10.31 C
2903 26-07-2015 13:15:00 21 C 47 % 9.27 C
2904 26-07-2015 13:20:00 21 C 46 % 8.95 C
2905 26-07-2015 13:25:00 21.1 C 46 % 9.04 C
2906 26-07-2015 13:30:00 21.5 C 46 % 9.4 C
2907 26-07-2015 13:35:00 21.8 C 45 % 9.35 C
2908 26-07-2015 13:40:00 21.6 C 44 % 8.83 C
2909 26-07-2015 13:45:00 21.6 C 49 % 10.44 C
2910 26-07-2015 13:50:00 22.1 C 42 % 8.6 C
2911 26-07-2015 13:55:00 21.9 C 42 % 8.42 C
2912 26-07-2015 14:00:00 21.7 C 44 % 8.92 C
2913 26-07-2015 14:05:00 21.7 C 45 % 9.26 C
2914 26-07-2015 14:10:00 22.1 C 42 % 8.6 C
2915 26-07-2015 14:15:00 22.1 C 42 % 8.6 C
2916 26-07-2015 14:20:00 21.8 C 41 % 7.97 C
2917 26-07-2015 14:25:00 21.7 C 45 % 9.26 C
2918 26-07-2015 14:30:00 21.8 C 43 % 8.67 C
2919 26-07-2015 14:35:00 21.8 C 45 % 9.35 C
2920 26-07-2015 14:40:00 21.9 C 46 % 9.77 C
2921 26-07-2015 14:45:00 22.3 C 43 % 9.13 C
2922 26-07-2015 14:50:00 22.7 C 42 % 9.14 C
2923 26-07-2015 14:55:00 23.1 C 41 % 9.14 C
2924 26-07-2015 15:00:00 23.2 C 41 % 9.23 C
2925 26-07-2015 15:05:00 23.1 C 42 % 9.5 C
Sensor: Nr:Datum:Temp:Feuchte:Taupunkt:
Aussen-T/F 2926 26-07-2015 15:10:00 23.1 C 40 % 8.77 C
2927 26-07-2015 15:15:00 23 C 41 % 9.05 C
2928 26-07-2015 15:20:00 22.9 C 43 % 9.67 C
2929 26-07-2015 15:25:00 23.4 C 40 % 9.04 C
2930 26-07-2015 15:30:00 23.7 C 38 % 8.55 C
2931 26-07-2015 15:35:00 23.7 C 38 % 8.55 C
2932 26-07-2015 15:40:00 23.6 C 37 % 8.07 C
2933 26-07-2015 15:45:00 23.3 C 37 % 7.8 C
2934 26-07-2015 15:50:00 23.2 C 38 % 8.11 C
2935 26-07-2015 15:55:00 23.6 C 38 % 8.46 C
2936 26-07-2015 16:00:00 23.8 C 37 % 8.25 C
2937 26-07-2015 16:05:00 23.7 C 37 % 8.16 C
2938 26-07-2015 16:10:00 23.4 C 37 % 7.89 C
2939 26-07-2015 16:15:00 23.3 C 40 % 8.95 C
2940 26-07-2015 16:20:00 23.3 C 39 % 8.58 C
2941 26-07-2015 16:25:00 23.3 C 41 % 9.32 C
2942 26-07-2015 16:30:00 23.3 C 39 % 8.58 C
2943 26-07-2015 16:35:00 23.4 C 36 % 7.49 C
2944 26-07-2015 16:40:00 23.3 C 38 % 8.19 C
2945 26-07-2015 16:45:00 23.1 C 39 % 8.4 C
2946 26-07-2015 16:50:00 22.8 C 39 % 8.13 C
2947 26-07-2015 16:55:00 22.5 C 41 % 8.6 C
2948 26-07-2015 17:00:00 22.4 C 40 % 8.15 C
2949 26-07-2015 17:05:00 22.4 C 40 % 8.15 C
2950 26-07-2015 17:10:00 22.3 C 42 % 8.78 C
Sensor: Nr:Datum:Temp:Feuchte:Taupunkt:
Aussen-T/F 2951 26-07-2015 17:15:00 22.3 C 42 % 8.78 C
2952 26-07-2015 17:20:00 22.2 C 39 % 7.6 C
2953 26-07-2015 17:25:00 22.1 C 40 % 7.88 C
2954 26-07-2015 17:30:00 21.9 C 40 % 7.7 C
2955 26-07-2015 17:35:00 21.8 C 42 % 8.33 C
2956 26-07-2015 17:40:00 21.6 C 50 % 10.74 C
2957 26-07-2015 17:45:00 21.4 C 54 % 11.71 C
2958 26-07-2015 17:50:00 21.1 C 49 % 9.98 C
2959 26-07-2015 17:55:00 20.7 C 61 % 12.91 C
2960 26-07-2015 18:00:00 20.2 C 62 % 12.69 C
2961 26-07-2015 18:05:00 19.7 C 67 % 13.4 C
2962 26-07-2015 18:10:00 19.2 C 69 % 13.38 C
2963 26-07-2015 18:15:00 18.7 C 72 % 13.55 C
2964 26-07-2015 18:20:00 18.3 C 73 % 13.38 C
2965 26-07-2015 18:25:00 17.8 C 75 % 13.31 C
2966 26-07-2015 18:30:00 17.5 C 76 % 13.23 C
2967 26-07-2015 18:35:00 17.2 C 77 % 13.14 C
2968 26-07-2015 18:40:00 16.8 C 80 % 13.33 C
2969 26-07-2015 18:45:00 16.6 C 82 % 13.52 C
2970 26-07-2015 18:50:00 16.3 C 84 % 13.59 C
2971 26-07-2015 18:55:00 16.2 C 84 % 13.5 C
2972 26-07-2015 19:00:00 16.1 C 84 % 13.4 C
2973 26-07-2015 19:05:00 15.8 C 85 % 13.28 C
2974 26-07-2015 19:10:00 15.7 C 85 % 13.19 C
2975 26-07-2015 19:15:00 15.5 C 87 % 13.35 C
Sensor: Nr:Datum:Temp:Feuchte:Taupunkt:
Aussen-T/F 2976 26-07-2015 19:20:00 15.3 C 88 % 13.33 C
2977 26-07-2015 19:25:00 15.2 C 89 % 13.4 C
2978 26-07-2015 19:30:00 15.1 C 90 % 13.47 C
2979 26-07-2015 19:35:00 15 C 90 % 13.37 C
2980 26-07-2015 19:40:00 14.9 C 91 % 13.44 C
2981 26-07-2015 19:45:00 14.8 C 92 % 13.51 C
2982 26-07-2015 19:50:00 14.7 C 91 % 13.25 C
2983 26-07-2015 19:55:00 14.6 C 92 % 13.32 C
2984 26-07-2015 20:00:00 14.5 C 92 % 13.22 C
2985 26-07-2015 20:05:00 14.3 C 92 % 13.02 C
2986 26-07-2015 20:10:00 14.2 C 92 % 12.92 C
2987 26-07-2015 20:15:00 14.2 C 93 % 13.08 C
2988 26-07-2015 20:20:00 14.2 C 93 % 13.08 C
2989 26-07-2015 20:25:00 14.1 C 93 % 12.99 C
2990 26-07-2015 20:30:00 14.1 C 93 % 12.99 C
2991 26-07-2015 22:45:00 13.6 C 95 % 12.81 C
2992 26-07-2015 22:50:00 13.5 C 95 % 12.72 C
2993 26-07-2015 22:55:00 13.5 C 95 % 12.72 C
2994 26-07-2015 23:00:00 13.5 C 95 % 12.72 C
2995 26-07-2015 23:05:00 13.4 C 95 % 12.62 C
2996 26-07-2015 23:10:00 13.4 C 96 % 12.78 C
2997 26-07-2015 23:15:00 13.4 C 96 % 12.78 C
2998 26-07-2015 23:20:00 13.3 C 96 % 12.68 C
2999 26-07-2015 23:25:00 13.3 C 96 % 12.68 C
3000 26-07-2015 23:30:00 13.3 C 96 % 12.68 C
Sensor: Nr:Datum:Temp:Feuchte:Taupunkt:
Aussen-T/F 3001 26-07-2015 23:35:00 13.3 C 96 % 12.68 C
3002 27-07-2015 00:05:00 13.3 C 100 % 13.3 C
3003 27-07-2015 00:10:00 13.3 C 96 % 12.68 C
3004 27-07-2015 00:15:00 13.3 C 96 % 12.68 C
3005 27-07-2015 00:20:00 13.3 C 96 % 12.68 C
3006 27-07-2015 00:25:00 13.3 C 96 % 12.68 C
3007 27-07-2015 00:30:00 13.3 C 96 % 12.68 C
3008 27-07-2015 00:35:00 13.3 C 96 % 12.68 C
3009 27-07-2015 00:40:00 13.3 C 96 % 12.68 C
3010 27-07-2015 00:45:00 13.2 C 96 % 12.58 C
3011 27-07-2015 00:50:00 13.2 C 96 % 12.58 C
3012 27-07-2015 00:55:00 13.2 C 96 % 12.58 C
3013 27-07-2015 01:50:00 12.8 C 100 % 12.8 C
3014 27-07-2015 01:55:00 12.8 C 96 % 12.18 C
3015 27-07-2015 02:00:00 12.8 C 96 % 12.18 C
3016 27-07-2015 02:05:00 12.8 C 96 % 12.18 C
3017 27-07-2015 02:10:00 12.8 C 96 % 12.18 C
3018 27-07-2015 02:15:00 12.8 C 96 % 12.18 C
3019 27-07-2015 02:20:00 12.7 C 96 % 12.08 C
3020 27-07-2015 02:25:00 12.7 C 96 % 12.08 C
3021 27-07-2015 02:30:00 12.7 C 96 % 12.08 C
3022 27-07-2015 02:35:00 12.8 C 96 % 12.18 C
3023 27-07-2015 02:40:00 12.8 C 96 % 12.18 C
3024 27-07-2015 02:45:00 12.8 C 96 % 12.18 C
3025 27-07-2015 02:50:00 12.8 C 96 % 12.18 C
Sensor: Nr:Datum:Temp:Feuchte:Taupunkt:
Aussen-T/F 3026 27-07-2015 02:55:00 12.7 C 96 % 12.08 C
3027 27-07-2015 03:00:00 12.7 C 96 % 12.08 C
3028 27-07-2015 04:05:00 13.7 C 96 % 13.07 C
3029 27-07-2015 04:10:00 13.8 C 96 % 13.17 C
3030 27-07-2015 04:15:00 13.8 C 96 % 13.17 C
3031 27-07-2015 04:20:00 13.8 C 96 % 13.17 C
3032 27-07-2015 04:25:00 13.9 C 96 % 13.27 C
3033 27-07-2015 04:30:00 13.9 C 96 % 13.27 C
3034 27-07-2015 04:35:00 13.9 C 96 % 13.27 C
3035 27-07-2015 04:40:00 14 C 96 % 13.37 C
3036 27-07-2015 04:45:00 14.1 C 96 % 13.47 C
3037 27-07-2015 04:50:00 14.1 C 96 % 13.47 C
3038 27-07-2015 04:55:00 14.2 C 96 % 13.57 C
3039 27-07-2015 05:00:00 14.2 C 96 % 13.57 C
3040 27-07-2015 05:05:00 14.2 C 96 % 13.57 C
3041 27-07-2015 05:10:00 14.2 C 96 % 13.57 C
3042 27-07-2015 05:15:00 14.2 C 96 % 13.57 C
3043 27-07-2015 05:20:00 14.3 C 96 % 13.67 C
3044 27-07-2015 05:25:00 14.2 C 96 % 13.57 C
3045 27-07-2015 05:30:00 14.2 C 96 % 13.57 C
3046 27-07-2015 05:35:00 14.2 C 96 % 13.57 C
3047 27-07-2015 05:40:00 14.2 C 96 % 13.57 C
3048 27-07-2015 05:45:00 14.2 C 96 % 13.57 C
3049 27-07-2015 05:50:00 14.3 C 96 % 13.67 C
3050 27-07-2015 05:55:00 14.3 C 96 % 13.67 C
Sensor: Nr:Datum:Temp:Feuchte:Taupunkt:
Aussen-T/F 3051 27-07-2015 06:00:00 14.3 C 96 % 13.67 C
3052 27-07-2015 06:05:00 14.4 C 96 % 13.77 C
3053 27-07-2015 06:10:00 14.5 C 97 % 14.03 C
3054 27-07-2015 06:15:00 14.6 C 97 % 14.13 C
3055 27-07-2015 06:20:00 14.8 C 97 % 14.33 C
3056 27-07-2015 06:25:00 14.8 C 97 % 14.33 C
3057 27-07-2015 06:30:00 14.9 C 97 % 14.43 C
3058 27-07-2015 06:35:00 14.9 C 96 % 14.27 C
3059 27-07-2015 06:40:00 15 C 96 % 14.37 C
3060 27-07-2015 06:45:00 15.1 C 96 % 14.47 C
3061 27-07-2015 06:50:00 15.1 C 96 % 14.47 C
3062 27-07-2015 06:55:00 15.2 C 96 % 14.57 C
3063 27-07-2015 07:00:00 15.2 C 96 % 14.57 C
3064 27-07-2015 07:05:00 15.2 C 96 % 14.57 C
3065 27-07-2015 07:10:00 15.3 C 96 % 14.67 C
3066 27-07-2015 07:15:00 15.3 C 96 % 14.67 C
3067 27-07-2015 07:20:00 15.4 C 96 % 14.77 C
3068 27-07-2015 07:25:00 15.4 C 96 % 14.77 C
3069 27-07-2015 07:30:00 15.6 C 95 % 14.8 C
3070 27-07-2015 07:35:00 15.7 C 95 % 14.9 C
3071 27-07-2015 07:40:00 15.8 C 95 % 15 C
3072 27-07-2015 07:45:00 15.9 C 95 % 15.1 C
3073 27-07-2015 07:50:00 15.9 C 95 % 15.1 C
3074 27-07-2015 07:55:00 15.9 C 95 % 15.1 C
3075 27-07-2015 08:00:00 15.9 C 95 % 15.1 C
Sensor: Nr:Datum:Temp:Feuchte:Taupunkt:
Aussen-T/F 3076 27-07-2015 08:05:00 15.9 C 95 % 15.1 C
3077 27-07-2015 08:10:00 15.8 C 95 % 15 C
3078 27-07-2015 08:15:00 15.8 C 95 % 15 C
3079 27-07-2015 08:20:00 15.8 C 95 % 15 C
3080 27-07-2015 08:25:00 15.8 C 95 % 15 C
3081 27-07-2015 08:30:00 15.9 C 95 % 15.1 C
3082 27-07-2015 08:35:00 15.9 C 95 % 15.1 C
3083 27-07-2015 08:40:00 15.9 C 95 % 15.1 C
3084 27-07-2015 08:45:00 16.1 C 95 % 15.3 C
3085 27-07-2015 08:50:00 16.1 C 95 % 15.3 C
3086 27-07-2015 08:55:00 16.2 C 95 % 15.4 C
3087 27-07-2015 09:00:00 16.2 C 95 % 15.4 C
3088 27-07-2015 09:05:00 16.2 C 94 % 15.23 C
3089 27-07-2015 09:10:00 16.2 C 94 % 15.23 C
3090 27-07-2015 09:15:00 16.1 C 93 % 14.97 C
3091 27-07-2015 09:20:00 16.1 C 93 % 14.97 C
3092 27-07-2015 09:25:00 16.1 C 94 % 15.13 C
3093 27-07-2015 09:30:00 16.1 C 94 % 15.13 C
3094 27-07-2015 09:35:00 16 C 93 % 14.87 C
3095 27-07-2015 09:40:00 16.1 C 93 % 14.97 C
3096 27-07-2015 09:45:00 16.3 C 94 % 15.33 C
3097 27-07-2015 09:50:00 16.4 C 92 % 15.1 C
3098 27-07-2015 09:55:00 16.3 C 90 % 14.66 C
3099 27-07-2015 10:00:00 16.5 C 91 % 15.03 C
3100 27-07-2015 10:05:00 16.7 C 90 % 15.05 C
Sensor: Nr:Datum:Temp:Feuchte:Taupunkt:
Aussen-T/F 3101 27-07-2015 10:10:00 16.8 C 90 % 15.15 C
3102 27-07-2015 10:15:00 16.9 C 88 % 14.9 C
3103 27-07-2015 10:20:00 17.1 C 88 % 15.1 C
3104 27-07-2015 10:25:00 17.3 C 86 % 14.94 C
3105 27-07-2015 10:30:00 17.3 C 86 % 14.94 C
3106 27-07-2015 10:35:00 17.3 C 86 % 14.94 C
3107 27-07-2015 10:40:00 17.3 C 85 % 14.76 C
3108 27-07-2015 10:45:00 17.3 C 85 % 14.76 C
3109 27-07-2015 10:50:00 17.4 C 86 % 15.03 C
3110 27-07-2015 10:55:00 17.5 C 84 % 14.77 C
3111 27-07-2015 11:00:00 17.7 C 84 % 14.96 C
3112 27-07-2015 11:05:00 17.9 C 83 % 14.97 C
3113 27-07-2015 11:10:00 18 C 81 % 14.69 C
3114 27-07-2015 11:15:00 18.2 C 81 % 14.89 C
3115 27-07-2015 11:20:00 18.3 C 79 % 14.6 C
3116 27-07-2015 11:25:00 18.4 C 81 % 15.08 C
3117 27-07-2015 11:30:00 18.6 C 79 % 14.89 C
3118 27-07-2015 11:35:00 18.8 C 79 % 15.08 C
3119 27-07-2015 11:40:00 18.9 C 78 % 14.98 C
3120 27-07-2015 11:45:00 18.9 C 76 % 14.58 C
3121 27-07-2015 11:50:00 18.8 C 77 % 14.68 C
3122 27-07-2015 11:55:00 18.4 C 79 % 14.69 C
3123 27-07-2015 12:00:00 18.2 C 80 % 14.69 C
3124 27-07-2015 12:05:00 18.2 C 79 % 14.5 C
3125 27-07-2015 12:10:00 17.9 C 79 % 14.21 C
Sensor: Nr:Datum:Temp:Feuchte:Taupunkt:
Aussen-T/F 3126 27-07-2015 12:15:00 17.7 C 83 % 14.78 C
3127 27-07-2015 12:20:00 17.4 C 83 % 14.48 C
3128 27-07-2015 12:25:00 17.6 C 84 % 14.87 C
3129 27-07-2015 12:30:00 17.9 C 83 % 14.97 C
3130 27-07-2015 12:35:00 18.2 C 81 % 14.89 C
3131 27-07-2015 12:40:00 18.3 C 79 % 14.6 C
3132 27-07-2015 12:45:00 18.3 C 79 % 14.6 C
3133 27-07-2015 12:50:00 18.4 C 79 % 14.69 C
3134 27-07-2015 12:55:00 18.4 C 80 % 14.89 C
3135 27-07-2015 13:00:00 18.7 C 79 % 14.99 C
3136 27-07-2015 13:05:00 18.9 C 78 % 14.98 C
3137 27-07-2015 13:10:00 19.1 C 78 % 15.18 C
3138 27-07-2015 13:15:00 19.2 C 77 % 15.07 C
3139 27-07-2015 13:20:00 19.3 C 77 % 15.17 C
3140 27-07-2015 13:25:00 19.1 C 76 % 14.77 C
3141 27-07-2015 13:30:00 19.2 C 75 % 14.66 C
3142 27-07-2015 13:35:00 19.2 C 75 % 14.66 C
3143 27-07-2015 13:40:00 19.2 C 74 % 14.46 C
3144 27-07-2015 13:45:00 19.3 C 75 % 14.76 C
3145 27-07-2015 13:50:00 19.3 C 75 % 14.76 C
3146 27-07-2015 13:55:00 19.3 C 75 % 14.76 C
3147 27-07-2015 14:00:00 19.1 C 75 % 14.57 C
3148 27-07-2015 14:05:00 18.8 C 78 % 14.88 C
3149 27-07-2015 14:10:00 18.3 C 81 % 14.98 C
3150 27-07-2015 14:15:00 17.9 C 81 % 14.59 C
Sensor: Nr:Datum:Temp:Feuchte:Taupunkt:
Aussen-T/F 3151 27-07-2015 14:20:00 18 C 82 % 14.88 C
3152 27-07-2015 14:25:00 18.2 C 81 % 14.89 C
3153 27-07-2015 14:30:00 18.3 C 80 % 14.79 C
3154 27-07-2015 14:35:00 18.7 C 78 % 14.79 C
3155 27-07-2015 14:40:00 18.8 C 78 % 14.88 C
3156 27-07-2015 14:45:00 19.1 C 76 % 14.77 C
3157 27-07-2015 14:50:00 19.3 C 77 % 15.17 C
3158 27-07-2015 14:55:00 19.7 C 74 % 14.94 C
3159 27-07-2015 15:00:00 20.1 C 71 % 14.68 C
3160 27-07-2015 15:05:00 20.3 C 72 % 15.09 C
3161 27-07-2015 15:10:00 20.4 C 70 % 14.75 C
3162 27-07-2015 15:15:00 20.4 C 70 % 14.75 C
3163 27-07-2015 15:20:00 20.4 C 68 % 14.3 C
3164 27-07-2015 15:25:00 20.3 C 68 % 14.2 C
3165 27-07-2015 15:30:00 20.2 C 68 % 14.11 C
3166 27-07-2015 15:35:00 19.9 C 72 % 14.7 C
3167 27-07-2015 15:40:00 20 C 72 % 14.8 C
3168 27-07-2015 15:45:00 20.2 C 71 % 14.78 C
3169 27-07-2015 15:50:00 20.1 C 71 % 14.68 C
3170 27-07-2015 15:55:00 19.9 C 70 % 14.27 C
3171 27-07-2015 16:00:00 19.9 C 71 % 14.49 C
3172 27-07-2015 16:05:00 19.9 C 71 % 14.49 C
3173 27-07-2015 16:10:00 20.1 C 71 % 14.68 C
3174 27-07-2015 16:15:00 20.7 C 70 % 15.03 C
3175 27-07-2015 16:20:00 21.1 C 68 % 14.97 C
Sensor: Nr:Datum:Temp:Feuchte:Taupunkt:
Aussen-T/F 3176 27-07-2015 16:25:00 20.9 C 69 % 15 C
3177 27-07-2015 16:30:00 20.8 C 68 % 14.68 C
3178 27-07-2015 16:35:00 20.6 C 69 % 14.71 C
3179 27-07-2015 16:40:00 20.7 C 69 % 14.81 C
3180 27-07-2015 16:45:00 21 C 68 % 14.87 C
3181 27-07-2015 16:50:00 21 C 69 % 15.1 C
3182 27-07-2015 16:55:00 20.9 C 68 % 14.77 C
3183 27-07-2015 17:00:00 20.5 C 69 % 14.62 C
3184 27-07-2015 17:05:00 20.1 C 71 % 14.68 C
3185 27-07-2015 17:10:00 19.9 C 72 % 14.7 C
3186 27-07-2015 17:15:00 20.2 C 72 % 14.99 C
3187 27-07-2015 17:20:00 20.8 C 72 % 15.57 C
3188 27-07-2015 17:25:00 21.3 C 69 % 15.38 C
3189 27-07-2015 17:30:00 21.2 C 69 % 15.29 C
3190 27-07-2015 17:35:00 20.8 C 69 % 14.91 C
3191 27-07-2015 17:40:00 20.4 C 69 % 14.52 C
3192 27-07-2015 17:45:00 20.4 C 69 % 14.52 C
3193 27-07-2015 17:50:00 20.3 C 70 % 14.65 C
3194 27-07-2015 17:55:00 20.2 C 72 % 14.99 C
3195 27-07-2015 18:00:00 20 C 75 % 15.43 C
3196 27-07-2015 18:05:00 19.8 C 76 % 15.45 C
3197 27-07-2015 18:10:00 19.7 C 78 % 15.76 C
3198 27-07-2015 18:15:00 20 C 75 % 15.43 C
3199 27-07-2015 18:20:00 20.2 C 74 % 15.42 C
3200 27-07-2015 18:25:00 20.3 C 74 % 15.51 C
Sensor: Nr:Datum:Temp:Feuchte:Taupunkt:
Aussen-T/F 3201 27-07-2015 18:30:00 20.4 C 74 % 15.61 C
3202 27-07-2015 18:35:00 20.7 C 70 % 15.03 C
3203 27-07-2015 18:40:00 21.4 C 67 % 15.02 C
3204 27-07-2015 18:45:00 22.1 C 65 % 15.21 C
3205 27-07-2015 18:50:00 22.3 C 61 % 14.42 C
3206 27-07-2015 18:55:00 22.2 C 61 % 14.32 C
3207 27-07-2015 19:00:00 22.1 C 62 % 14.48 C
3208 27-07-2015 19:05:00 22.2 C 62 % 14.58 C
3209 27-07-2015 19:10:00 21.6 C 62 % 14.01 C
3210 27-07-2015 19:15:00 21 C 64 % 13.93 C
3211 27-07-2015 19:20:00 20.6 C 65 % 13.79 C
3212 27-07-2015 19:25:00 20.4 C 67 % 14.07 C
3213 27-07-2015 19:30:00 20.4 C 67 % 14.07 C
3214 27-07-2015 19:35:00 20.4 C 66 % 13.84 C
3215 27-07-2015 19:40:00 20.5 C 66 % 13.93 C
3216 27-07-2015 19:45:00 20.5 C 66 % 13.93 C
3217 27-07-2015 19:50:00 20.6 C 66 % 14.03 C
3218 27-07-2015 19:55:00 20.5 C 66 % 13.93 C
3219 27-07-2015 20:00:00 20.4 C 66 % 13.84 C
3220 27-07-2015 20:05:00 20.4 C 66 % 13.84 C
3221 27-07-2015 20:10:00 20.4 C 65 % 13.6 C
3222 27-07-2015 20:15:00 20.4 C 66 % 13.84 C
3223 27-07-2015 20:20:00 20.4 C 67 % 14.07 C
3224 27-07-2015 20:25:00 20.2 C 68 % 14.11 C
3225 27-07-2015 20:30:00 20.1 C 68 % 14.01 C
Sensor: Nr:Datum:Temp:Feuchte:Taupunkt:
Aussen-T/F 3226 27-07-2015 20:35:00 19.9 C 68 % 13.82 C
3227 27-07-2015 20:40:00 19.9 C 67 % 13.59 C
3228 27-07-2015 20:45:00 19.9 C 67 % 13.59 C
3229 27-07-2015 20:50:00 19.9 C 67 % 13.59 C
3230 27-07-2015 20:55:00 19.9 C 67 % 13.59 C
3231 27-07-2015 21:00:00 19.9 C 67 % 13.59 C
3232 27-07-2015 21:05:00 19.9 C 67 % 13.59 C
3233 27-07-2015 21:10:00 19.8 C 68 % 13.73 C
3234 27-07-2015 21:15:00 19.7 C 67 % 13.4 C
3235 27-07-2015 21:20:00 19.6 C 68 % 13.54 C
3236 27-07-2015 21:25:00 19.6 C 68 % 13.54 C
3237 27-07-2015 21:30:00 19.7 C 67 % 13.4 C
3238 27-07-2015 21:35:00 19.7 C 67 % 13.4 C
3239 27-07-2015 21:40:00 19.7 C 67 % 13.4 C
3240 27-07-2015 21:45:00 19.7 C 67 % 13.4 C
3241 27-07-2015 21:50:00 19.6 C 68 % 13.54 C
3242 27-07-2015 21:55:00 19.5 C 67 % 13.21 C
3243 27-07-2015 22:00:00 19.6 C 67 % 13.31 C
3244 27-07-2015 22:05:00 19.6 C 67 % 13.31 C
3245 27-07-2015 22:10:00 19.4 C 67 % 13.12 C
3246 27-07-2015 22:15:00 19.3 C 69 % 13.47 C
3247 27-07-2015 22:20:00 19.1 C 68 % 13.06 C
3248 27-07-2015 22:25:00 18.9 C 70 % 13.31 C
3249 27-07-2015 22:30:00 18.6 C 72 % 13.46 C
3250 27-07-2015 22:35:00 18.3 C 72 % 13.17 C
Sensor: Nr:Datum:Temp:Feuchte:Taupunkt:
Aussen-T/F 3251 27-07-2015 22:40:00 18.3 C 70 % 12.74 C
3252 27-07-2015 22:45:00 18.6 C 69 % 12.8 C
3253 27-07-2015 22:50:00 18.7 C 69 % 12.9 C
3254 27-07-2015 22:55:00 18.9 C 68 % 12.87 C
3255 27-07-2015 23:00:00 19.1 C 68 % 13.06 C
3256 27-07-2015 23:05:00 19.2 C 68 % 13.15 C
3257 27-07-2015 23:10:00 19.1 C 68 % 13.06 C
3258 27-07-2015 23:15:00 19.1 C 69 % 13.28 C
3259 27-07-2015 23:20:00 18.9 C 69 % 13.09 C
3260 27-07-2015 23:25:00 19 C 68 % 12.96 C
3261 27-07-2015 23:30:00 19.1 C 71 % 13.72 C
3262 27-07-2015 23:35:00 18.8 C 73 % 13.86 C
3263 27-07-2015 23:40:00 18.4 C 73 % 13.48 C
3264 27-07-2015 23:45:00 18.3 C 73 % 13.38 C
3265 27-07-2015 23:50:00 17.9 C 74 % 13.2 C
3266 27-07-2015 23:55:00 17.4 C 76 % 13.13 C
3267 28-07-2015 00:00:00 17.2 C 77 % 13.14 C
3268 28-07-2015 00:05:00 16.9 C 78 % 13.04 C
3269 28-07-2015 00:10:00 16.8 C 78 % 12.94 C
3270 28-07-2015 00:15:00 16.8 C 80 % 13.33 C
3271 28-07-2015 00:20:00 16.7 C 80 % 13.23 C
3272 28-07-2015 00:25:00 16.7 C 80 % 13.23 C
3273 28-07-2015 00:30:00 16.7 C 80 % 13.23 C
3274 28-07-2015 00:35:00 16.7 C 80 % 13.23 C
3275 28-07-2015 00:40:00 16.7 C 81 % 13.43 C
Sensor: Nr:Datum:Temp:Feuchte:Taupunkt:
Aussen-T/F 3276 28-07-2015 00:45:00 16.7 C 81 % 13.43 C
3277 28-07-2015 00:50:00 16.7 C 81 % 13.43 C
3278 28-07-2015 00:55:00 16.6 C 81 % 13.33 C
3279 28-07-2015 01:00:00 16.4 C 82 % 13.32 C
3280 28-07-2015 01:05:00 16.3 C 82 % 13.22 C
3281 28-07-2015 01:10:00 16.2 C 83 % 13.31 C
3282 28-07-2015 01:15:00 16.1 C 83 % 13.21 C
3283 28-07-2015 01:20:00 16.1 C 84 % 13.4 C
3284 28-07-2015 01:25:00 15.9 C 84 % 13.2 C
3285 28-07-2015 01:30:00 16 C 83 % 13.12 C
3286 28-07-2015 01:35:00 16 C 85 % 13.48 C
3287 28-07-2015 01:40:00 16 C 85 % 13.48 C
3288 28-07-2015 01:45:00 15.9 C 86 % 13.56 C
3289 28-07-2015 01:50:00 15.9 C 86 % 13.56 C
3290 28-07-2015 01:55:00 15.8 C 87 % 13.64 C
3291 28-07-2015 02:00:00 15.8 C 87 % 13.64 C
3292 28-07-2015 02:05:00 15.7 C 87 % 13.54 C
3293 28-07-2015 02:10:00 15.7 C 87 % 13.54 C
3294 28-07-2015 02:15:00 15.7 C 87 % 13.54 C
3295 28-07-2015 02:20:00 15.7 C 87 % 13.54 C
3296 28-07-2015 02:25:00 15.7 C 88 % 13.72 C
3297 28-07-2015 02:30:00 15.6 C 88 % 13.62 C
3298 28-07-2015 02:35:00 15.6 C 88 % 13.62 C
3299 28-07-2015 02:40:00 15.6 C 87 % 13.45 C
3300 28-07-2015 02:45:00 15.6 C 87 % 13.45 C
Sensor: Nr:Datum:Temp:Feuchte:Taupunkt:
Aussen-T/F 3301 28-07-2015 02:50:00 15.6 C 82 % 12.54 C
3302 28-07-2015 02:55:00 15.7 C 78 % 11.88 C
3303 28-07-2015 03:00:00 15.9 C 74 % 11.28 C
3304 28-07-2015 03:05:00 16.1 C 73 % 11.26 C
3305 28-07-2015 03:10:00 16.1 C 72 % 11.06 C
3306 28-07-2015 03:15:00 16.1 C 72 % 11.06 C
3307 28-07-2015 03:20:00 16.1 C 73 % 11.26 C
3308 28-07-2015 03:25:00 15.9 C 74 % 11.28 C
3309 28-07-2015 03:30:00 15.7 C 75 % 11.28 C
3310 28-07-2015 03:35:00 15.4 C 76 % 11.19 C
3311 28-07-2015 03:40:00 15.3 C 77 % 11.3 C
3312 28-07-2015 03:45:00 15.1 C 78 % 11.3 C
3313 28-07-2015 03:50:00 14.9 C 78 % 11.1 C
3314 28-07-2015 03:55:00 14.8 C 78 % 11 C
3315 28-07-2015 04:00:00 14.7 C 79 % 11.1 C
3316 28-07-2015 04:05:00 14.6 C 78 % 10.81 C
3317 28-07-2015 04:10:00 14.6 C 79 % 11 C
3318 28-07-2015 04:15:00 14.6 C 79 % 11 C
3319 28-07-2015 04:20:00 14.6 C 80 % 11.19 C
3320 28-07-2015 04:25:00 14.4 C 79 % 10.81 C
3321 28-07-2015 04:30:00 14.4 C 79 % 10.81 C
3322 28-07-2015 04:35:00 14.3 C 80 % 10.9 C
3323 28-07-2015 04:40:00 14.2 C 80 % 10.8 C
3324 28-07-2015 04:45:00 14.2 C 81 % 10.99 C
3325 28-07-2015 04:50:00 14.2 C 79 % 10.61 C
Sensor: Nr:Datum:Temp:Feuchte:Taupunkt:
Aussen-T/F 3326 28-07-2015 04:55:00 14.2 C 79 % 10.61 C
3327 28-07-2015 05:00:00 14.3 C 79 % 10.71 C
3328 28-07-2015 05:05:00 14.2 C 79 % 10.61 C
3329 28-07-2015 05:10:00 14 C 80 % 10.61 C
3330 28-07-2015 05:15:00 13.9 C 80 % 10.51 C
3331 28-07-2015 05:20:00 13.8 C 80 % 10.41 C
3332 28-07-2015 05:25:00 13.9 C 79 % 10.32 C
3333 28-07-2015 05:30:00 13.9 C 79 % 10.32 C
3334 28-07-2015 05:35:00 13.9 C 79 % 10.32 C
3335 28-07-2015 05:40:00 13.7 C 79 % 10.13 C
3336 28-07-2015 05:45:00 13.7 C 81 % 10.5 C
3337 28-07-2015 05:50:00 13.6 C 79 % 10.03 C
3338 28-07-2015 05:55:00 13.6 C 77 % 9.65 C
3339 28-07-2015 06:00:00 13.7 C 78 % 9.94 C
3340 28-07-2015 06:05:00 13.7 C 77 % 9.75 C
3341 28-07-2015 06:10:00 13.6 C 78 % 9.84 C
3342 28-07-2015 06:15:00 13.5 C 78 % 9.74 C
3343 28-07-2015 06:20:00 13.7 C 78 % 9.94 C
3344 28-07-2015 06:25:00 13.8 C 78 % 10.03 C
3345 28-07-2015 06:30:00 13.8 C 78 % 10.03 C
3346 28-07-2015 06:35:00 13.8 C 78 % 10.03 C
3347 28-07-2015 06:40:00 13.8 C 79 % 10.22 C
3348 28-07-2015 06:45:00 13.8 C 79 % 10.22 C
3349 28-07-2015 06:50:00 13.7 C 79 % 10.13 C
3350 28-07-2015 06:55:00 13.7 C 80 % 10.32 C
Sensor: Nr:Datum:Temp:Feuchte:Taupunkt:
Aussen-T/F 3351 28-07-2015 07:00:00 13.7 C 80 % 10.32 C
3352 28-07-2015 07:05:00 13.7 C 80 % 10.32 C
3353 28-07-2015 07:10:00 13.8 C 79 % 10.22 C
3354 28-07-2015 07:15:00 13.9 C 79 % 10.32 C
3355 28-07-2015 07:20:00 14.1 C 78 % 10.33 C
3356 28-07-2015 07:25:00 14.2 C 78 % 10.42 C
3357 28-07-2015 07:30:00 14.3 C 77 % 10.33 C
3358 28-07-2015 07:35:00 14.3 C 77 % 10.33 C
3359 28-07-2015 07:40:00 14.4 C 77 % 10.42 C
3360 28-07-2015 07:45:00 14.5 C 76 % 10.32 C
3361 28-07-2015 07:50:00 14.6 C 76 % 10.42 C
3362 28-07-2015 07:55:00 14.7 C 76 % 10.52 C
3363 28-07-2015 08:00:00 14.7 C 75 % 10.32 C
3364 28-07-2015 08:05:00 14.8 C 75 % 10.42 C
3365 28-07-2015 08:10:00 14.8 C 75 % 10.42 C
3366 28-07-2015 08:15:00 14.9 C 75 % 10.51 C
3367 28-07-2015 08:20:00 15 C 74 % 10.41 C
3368 28-07-2015 08:25:00 15.1 C 73 % 10.3 C
3369 28-07-2015 08:30:00 15.3 C 73 % 10.49 C
3370 28-07-2015 08:35:00 15.4 C 72 % 10.38 C
3371 28-07-2015 08:40:00 15.5 C 71 % 10.27 C
3372 28-07-2015 08:45:00 15.6 C 70 % 10.15 C
3373 28-07-2015 08:50:00 15.7 C 69 % 10.03 C
3374 28-07-2015 08:55:00 15.7 C 70 % 10.25 C
3375 28-07-2015 09:00:00 15.8 C 69 % 10.13 C
Sensor: Nr:Datum:Temp:Feuchte:Taupunkt:
Aussen-T/F 3376 28-07-2015 09:05:00 15.8 C 69 % 10.13 C
3377 28-07-2015 09:10:00 15.8 C 69 % 10.13 C
3378 28-07-2015 09:15:00 15.9 C 68 % 10.01 C
3379 28-07-2015 09:20:00 16 C 68 % 10.1 C
3380 28-07-2015 09:25:00 16.1 C 68 % 10.2 C
3381 28-07-2015 09:30:00 16.2 C 66 % 9.85 C
3382 28-07-2015 09:35:00 16.4 C 66 % 10.04 C
3383 28-07-2015 09:40:00 16.6 C 64 % 9.77 C
3384 28-07-2015 09:45:00 16.7 C 64 % 9.86 C
3385 28-07-2015 09:50:00 16.7 C 63 % 9.63 C
3386 28-07-2015 09:55:00 16.7 C 63 % 9.63 C
3387 28-07-2015 10:00:00 16.8 C 63 % 9.72 C
3388 28-07-2015 10:05:00 16.9 C 62 % 9.58 C
3389 28-07-2015 10:10:00 17.1 C 62 % 9.77 C
3390 28-07-2015 10:15:00 17.2 C 62 % 9.86 C
3391 28-07-2015 10:20:00 17.4 C 61 % 9.81 C
3392 28-07-2015 10:25:00 17.6 C 62 % 10.24 C
3393 28-07-2015 10:30:00 17.8 C 60 % 9.94 C
3394 28-07-2015 10:35:00 17.8 C 60 % 9.94 C
3395 28-07-2015 10:40:00 17.9 C 61 % 10.28 C
3396 28-07-2015 10:45:00 17.9 C 60 % 10.03 C
3397 28-07-2015 10:50:00 17.8 C 61 % 10.18 C
3398 28-07-2015 10:55:00 17.8 C 60 % 9.94 C
3399 28-07-2015 11:00:00 17.7 C 61 % 10.09 C
3400 28-07-2015 11:05:00 17.8 C 60 % 9.94 C
Sensor: Nr:Datum:Temp:Feuchte:Taupunkt:
Aussen-T/F 3401 28-07-2015 11:10:00 18 C 61 % 10.37 C
3402 28-07-2015 11:15:00 18.1 C 59 % 9.97 C
3403 28-07-2015 11:20:00 18.1 C 60 % 10.22 C
3404 28-07-2015 11:25:00 18.1 C 58 % 9.71 C
3405 28-07-2015 11:30:00 17.9 C 59 % 9.78 C
3406 28-07-2015 11:35:00 17.8 C 59 % 9.69 C
3407 28-07-2015 11:40:00 18 C 59 % 9.88 C
3408 28-07-2015 11:45:00 18.2 C 58 % 9.81 C
3409 28-07-2015 11:50:00 18.3 C 58 % 9.9 C
3410 28-07-2015 11:55:00 18.3 C 57 % 9.64 C
3411 28-07-2015 12:00:00 18.2 C 57 % 9.55 C
3412 28-07-2015 12:05:00 18.3 C 57 % 9.64 C
3413 28-07-2015 12:10:00 18.4 C 57 % 9.74 C
3414 28-07-2015 12:15:00 18.5 C 56 % 9.57 C
3415 28-07-2015 12:20:00 18.6 C 55 % 9.39 C
3416 28-07-2015 12:25:00 18.8 C 55 % 9.58 C
3417 28-07-2015 12:30:00 18.8 C 55 % 9.58 C
3418 28-07-2015 12:35:00 18.7 C 55 % 9.48 C
3419 28-07-2015 12:40:00 18.9 C 55 % 9.67 C
3420 28-07-2015 12:45:00 19.1 C 52 % 9.02 C
3421 28-07-2015 12:50:00 19.1 C 53 % 9.3 C
3422 28-07-2015 12:55:00 18.8 C 54 % 9.3 C
3423 28-07-2015 13:00:00 19.2 C 55 % 9.95 C
3424 28-07-2015 13:05:00 19.3 C 54 % 9.77 C
3425 28-07-2015 13:10:00 19.6 C 53 % 9.77 C
Sensor: Nr:Datum:Temp:Feuchte:Taupunkt:
Aussen-T/F 3426 28-07-2015 13:15:00 19.4 C 50 % 8.72 C
3427 28-07-2015 13:20:00 19.3 C 51 % 8.92 C
3428 28-07-2015 13:25:00 19.8 C 50 % 9.09 C
3429 28-07-2015 13:30:00 19.7 C 48 % 8.39 C
3430 28-07-2015 13:35:00 19.5 C 49 % 8.51 C
3431 28-07-2015 13:40:00 19.6 C 49 % 8.6 C
3432 28-07-2015 13:45:00 19.8 C 48 % 8.48 C
3433 28-07-2015 13:50:00 19.8 C 49 % 8.79 C
3434 28-07-2015 13:55:00 20.1 C 47 % 8.45 C
3435 28-07-2015 14:00:00 19.9 C 47 % 8.26 C
3436 28-07-2015 14:05:00 19.7 C 49 % 8.7 C
3437 28-07-2015 14:10:00 19.6 C 49 % 8.6 C
3438 28-07-2015 14:15:00 19.7 C 49 % 8.7 C
3439 28-07-2015 14:20:00 19.8 C 49 % 8.79 C
3440 28-07-2015 14:25:00 19.8 C 48 % 8.48 C
3441 28-07-2015 14:30:00 19.8 C 47 % 8.17 C
3442 28-07-2015 14:35:00 19.8 C 48 % 8.48 C
3443 28-07-2015 14:40:00 19.7 C 48 % 8.39 C
3444 28-07-2015 14:45:00 19.7 C 48 % 8.39 C
3445 28-07-2015 14:50:00 19.7 C 47 % 8.08 C
3446 28-07-2015 14:55:00 19.8 C 46 % 7.86 C
3447 28-07-2015 15:00:00 20.3 C 47 % 8.63 C
3448 28-07-2015 15:05:00 20.6 C 47 % 8.9 C
3449 28-07-2015 15:10:00 21.1 C 43 % 8.04 C
3450 28-07-2015 15:15:00 21.5 C 43 % 8.4 C
Sensor: Nr:Datum:Temp:Feuchte:Taupunkt:
Aussen-T/F 3451 28-07-2015 15:20:00 21.7 C 43 % 8.58 C
3452 28-07-2015 15:25:00 21.7 C 43 % 8.58 C
3453 28-07-2015 15:30:00 21.8 C 43 % 8.67 C
3454 28-07-2015 15:35:00 21.4 C 43 % 8.31 C
3455 28-07-2015 15:40:00 20.9 C 44 % 8.2 C
3456 28-07-2015 15:45:00 20.6 C 46 % 8.58 C
3457 28-07-2015 15:50:00 20.3 C 45 % 7.99 C
3458 28-07-2015 15:55:00 20.3 C 47 % 8.63 C
3459 28-07-2015 16:00:00 20.4 C 46 % 8.4 C
3460 28-07-2015 16:05:00 20.4 C 45 % 8.08 C
3461 28-07-2015 16:10:00 20.3 C 46 % 8.31 C
3462 28-07-2015 16:15:00 20.2 C 46 % 8.22 C
3463 28-07-2015 16:20:00 20.1 C 47 % 8.45 C
3464 28-07-2015 16:25:00 20.1 C 47 % 8.45 C
3465 28-07-2015 16:30:00 20.1 C 47 % 8.45 C
3466 28-07-2015 16:35:00 19.9 C 47 % 8.26 C
3467 28-07-2015 16:40:00 19.8 C 46 % 7.86 C
3468 28-07-2015 16:45:00 19.7 C 48 % 8.39 C
3469 28-07-2015 16:50:00 19.7 C 48 % 8.39 C
3470 28-07-2015 16:55:00 19.7 C 48 % 8.39 C
3471 28-07-2015 17:00:00 19.7 C 48 % 8.39 C
3472 28-07-2015 17:05:00 19.7 C 48 % 8.39 C
3473 28-07-2015 17:10:00 19.7 C 48 % 8.39 C
3474 28-07-2015 17:15:00 19.7 C 48 % 8.39 C
3475 28-07-2015 17:20:00 19.6 C 49 % 8.6 C
Sensor: Nr:Datum:Temp:Feuchte:Taupunkt:
Aussen-T/F 3476 28-07-2015 17:25:00 19.6 C 49 % 8.6 C
3477 28-07-2015 17:30:00 19.5 C 49 % 8.51 C
3478 28-07-2015 17:35:00 19.4 C 50 % 8.72 C
3479 28-07-2015 17:40:00 19.3 C 49 % 8.33 C
3480 28-07-2015 17:45:00 19.3 C 50 % 8.63 C
3481 28-07-2015 17:50:00 19.2 C 51 % 8.83 C
3482 28-07-2015 17:55:00 19.2 C 51 % 8.83 C
3483 28-07-2015 18:00:00 19.3 C 52 % 9.21 C
3484 28-07-2015 18:05:00 19.3 C 50 % 8.63 C
3485 28-07-2015 18:10:00 19.2 C 51 % 8.83 C
3486 28-07-2015 18:15:00 19.2 C 51 % 8.83 C
3487 28-07-2015 18:20:00 19.1 C 50 % 8.44 C
3488 28-07-2015 18:25:00 19 C 50 % 8.35 C
3489 28-07-2015 18:30:00 18.9 C 51 % 8.55 C
3490 28-07-2015 18:35:00 18.9 C 50 % 8.26 C
3491 28-07-2015 18:40:00 18.9 C 51 % 8.55 C
3492 28-07-2015 18:45:00 18.9 C 50 % 8.26 C
3493 28-07-2015 18:50:00 18.9 C 50 % 8.26 C
3494 28-07-2015 18:55:00 18.9 C 50 % 8.26 C
3495 28-07-2015 19:00:00 18.8 C 50 % 8.17 C
3496 28-07-2015 19:05:00 18.8 C 51 % 8.46 C
3497 28-07-2015 19:10:00 18.8 C 51 % 8.46 C
3498 28-07-2015 19:15:00 18.8 C 52 % 8.75 C
3499 28-07-2015 19:20:00 18.8 C 51 % 8.46 C
3500 28-07-2015 19:25:00 18.8 C 51 % 8.46 C
Sensor: Nr:Datum:Temp:Feuchte:Taupunkt:
Aussen-T/F 3501 28-07-2015 19:30:00 18.8 C 51 % 8.46 C
3502 28-07-2015 19:35:00 18.7 C 52 % 8.65 C
3503 28-07-2015 19:40:00 18.6 C 50 % 7.98 C
3504 28-07-2015 19:45:00 18.6 C 51 % 8.27 C
3505 28-07-2015 19:50:00 18.6 C 51 % 8.27 C
3506 28-07-2015 19:55:00 18.5 C 53 % 8.75 C
3507 28-07-2015 20:00:00 18.4 C 53 % 8.66 C
3508 28-07-2015 20:05:00 18.3 C 52 % 8.28 C
3509 28-07-2015 20:10:00 18.3 C 52 % 8.28 C
3510 28-07-2015 20:15:00 18.2 C 53 % 8.47 C
3511 28-07-2015 20:20:00 18.2 C 53 % 8.47 C
3512 28-07-2015 20:25:00 18.1 C 53 % 8.38 C
3513 28-07-2015 20:30:00 18.1 C 52 % 8.1 C
3514 28-07-2015 20:35:00 18 C 52 % 8.01 C
3515 28-07-2015 20:40:00 18 C 53 % 8.29 C
3516 28-07-2015 20:45:00 18 C 53 % 8.29 C
3517 28-07-2015 20:50:00 18 C 53 % 8.29 C
3518 28-07-2015 20:55:00 18 C 53 % 8.29 C
3519 28-07-2015 21:00:00 18 C 54 % 8.56 C
3520 28-07-2015 21:05:00 17.9 C 54 % 8.47 C
3521 28-07-2015 21:10:00 17.9 C 54 % 8.47 C
3522 28-07-2015 21:15:00 17.9 C 54 % 8.47 C
3523 28-07-2015 21:20:00 17.8 C 55 % 8.65 C
3524 28-07-2015 21:25:00 17.8 C 55 % 8.65 C
3525 28-07-2015 21:30:00 17.7 C 56 % 8.82 C
Sensor: Nr:Datum:Temp:Feuchte:Taupunkt:
Aussen-T/F 3526 28-07-2015 21:35:00 17.7 C 58 % 9.34 C
3527 28-07-2015 21:40:00 17.6 C 57 % 8.99 C
3528 28-07-2015 21:45:00 17.5 C 57 % 8.9 C
3529 28-07-2015 21:50:00 17.4 C 57 % 8.8 C
3530 28-07-2015 21:55:00 17.4 C 57 % 8.8 C
3531 28-07-2015 22:00:00 17.3 C 57 % 8.71 C
3532 28-07-2015 22:05:00 17.3 C 57 % 8.71 C
3533 28-07-2015 22:10:00 17.3 C 58 % 8.97 C
3534 28-07-2015 22:15:00 17.3 C 59 % 9.22 C
3535 28-07-2015 22:20:00 17.2 C 61 % 9.62 C
3536 28-07-2015 22:25:00 16.9 C 62 % 9.58 C
3537 28-07-2015 22:30:00 16.8 C 63 % 9.72 C
3538 28-07-2015 22:35:00 16.7 C 64 % 9.86 C
3539 28-07-2015 22:40:00 16.6 C 64 % 9.77 C
3540 28-07-2015 22:45:00 16.4 C 66 % 10.04 C
3541 28-07-2015 22:50:00 16.3 C 66 % 9.94 C
3542 28-07-2015 22:55:00 16.2 C 68 % 10.29 C
3543 28-07-2015 23:00:00 16.1 C 69 % 10.42 C
3544 28-07-2015 23:05:00 15.9 C 69 % 10.23 C
3545 28-07-2015 23:10:00 15.7 C 70 % 10.25 C
3546 28-07-2015 23:15:00 15.6 C 72 % 10.57 C
3547 28-07-2015 23:20:00 15.3 C 72 % 10.29 C
3548 28-07-2015 23:25:00 15.2 C 73 % 10.4 C
3549 28-07-2015 23:30:00 15.1 C 73 % 10.3 C
3550 28-07-2015 23:35:00 14.9 C 74 % 10.31 C
Sensor: Nr:Datum:Temp:Feuchte:Taupunkt:
Aussen-T/F 3551 28-07-2015 23:40:00 14.7 C 75 % 10.32 C
3552 28-07-2015 23:45:00 14.7 C 75 % 10.32 C
3553 29-07-2015 03:20:00 14.3 C 74 % 9.73 C
3554 29-07-2015 03:25:00 14.3 C 74 % 9.73 C
3555 29-07-2015 03:30:00 14.2 C 75 % 9.84 C
3556 29-07-2015 03:35:00 14.2 C 75 % 9.84 C
3557 29-07-2015 03:40:00 14.2 C 75 % 9.84 C
3558 29-07-2015 05:10:00 12.3 C 83 % 9.5 C
3559 29-07-2015 05:15:00 12.3 C 83 % 9.5 C
3560 29-07-2015 05:20:00 12.3 C 83 % 9.5 C
3561 29-07-2015 05:25:00 12.3 C 83 % 9.5 C
3562 29-07-2015 05:30:00 12.3 C 83 % 9.5 C
3563 29-07-2015 05:35:00 12.3 C 83 % 9.5 C
3564 29-07-2015 05:40:00 12.7 C 83 % 9.89 C
3565 29-07-2015 05:45:00 12.7 C 83 % 9.89 C
3566 29-07-2015 05:50:00 12.7 C 83 % 9.89 C
3567 29-07-2015 07:50:00 13.6 C 100 % 13.6 C
3568 29-07-2015 07:55:00 13.6 C 100 % 13.6 C
3569 29-07-2015 08:00:00 13.6 C 79 % 10.03 C
3570 29-07-2015 08:05:00 13.6 C 79 % 10.03 C
3571 29-07-2015 08:10:00 13.8 C 78 % 10.03 C
3572 29-07-2015 08:15:00 13.9 C 78 % 10.13 C
3573 29-07-2015 08:20:00 14.2 C 77 % 10.23 C
3574 29-07-2015 08:25:00 14.4 C 75 % 10.03 C
3575 29-07-2015 08:30:00 14.6 C 75 % 10.22 C
Sensor: Nr:Datum:Temp:Feuchte:Taupunkt:
Aussen-T/F 3576 29-07-2015 08:35:00 14.7 C 75 % 10.32 C
3577 29-07-2015 08:40:00 14.8 C 74 % 10.22 C
3578 29-07-2015 08:45:00 15 C 74 % 10.41 C
3579 29-07-2015 08:50:00 15.1 C 72 % 10.09 C
3580 29-07-2015 08:55:00 15.1 C 72 % 10.09 C
3581 29-07-2015 09:00:00 15.2 C 71 % 9.98 C
3582 29-07-2015 09:05:00 15.2 C 71 % 9.98 C
3583 29-07-2015 09:10:00 15.2 C 70 % 9.77 C
3584 29-07-2015 09:15:00 15.3 C 70 % 9.87 C
3585 29-07-2015 09:20:00 15.4 C 70 % 9.96 C
3586 29-07-2015 09:25:00 15.4 C 69 % 9.75 C
3587 29-07-2015 09:30:00 15.6 C 68 % 9.72 C
3588 29-07-2015 09:35:00 15.6 C 67 % 9.5 C
3589 29-07-2015 09:40:00 15.7 C 68 % 9.82 C
3590 29-07-2015 09:45:00 15.7 C 67 % 9.6 C
3591 29-07-2015 09:50:00 15.9 C 67 % 9.79 C
3592 29-07-2015 09:55:00 16 C 66 % 9.66 C
3593 29-07-2015 10:00:00 16.2 C 64 % 9.39 C
3594 29-07-2015 10:05:00 16.3 C 65 % 9.71 C
3595 29-07-2015 10:10:00 16.4 C 65 % 9.81 C
3596 29-07-2015 10:15:00 16.7 C 63 % 9.63 C
3597 29-07-2015 10:20:00 16.8 C 61 % 9.24 C
3598 29-07-2015 10:25:00 16.8 C 61 % 9.24 C
3599 29-07-2015 10:30:00 16.9 C 62 % 9.58 C
3600 29-07-2015 10:35:00 17.2 C 60 % 9.37 C
Sensor: Nr:Datum:Temp:Feuchte:Taupunkt:
Aussen-T/F 3601 29-07-2015 10:40:00 17.4 C 58 % 9.06 C
3602 29-07-2015 10:45:00 17.4 C 57 % 8.8 C
3603 29-07-2015 10:50:00 17.6 C 54 % 8.19 C
3604 29-07-2015 10:55:00 17.7 C 54 % 8.28 C
3605 29-07-2015 11:00:00 17.9 C 55 % 8.74 C
3606 29-07-2015 11:05:00 18.3 C 55 % 9.11 C
3607 29-07-2015 11:10:00 18.4 C 55 % 9.2 C
3608 29-07-2015 11:15:00 18.6 C 51 % 8.27 C
3609 29-07-2015 11:20:00 18.6 C 52 % 8.56 C
3610 29-07-2015 11:25:00 18.7 C 50 % 8.08 C
3611 29-07-2015 11:30:00 18.9 C 49 % 7.96 C
3612 29-07-2015 11:35:00 18.8 C 48 % 7.57 C
3613 29-07-2015 11:40:00 18.4 C 47 % 6.9 C
3614 29-07-2015 11:45:00 18.2 C 48 % 7.02 C
3615 29-07-2015 11:50:00 18.3 C 47 % 6.8 C
3616 29-07-2015 11:55:00 18.6 C 47 % 7.08 C
3617 29-07-2015 12:00:00 18.9 C 44 % 6.39 C
3618 29-07-2015 12:05:00 19.1 C 43 % 6.24 C
3619 29-07-2015 12:10:00 19.1 C 44 % 6.57 C
3620 29-07-2015 12:15:00 19.3 C 44 % 6.75 C
3621 29-07-2015 12:20:00 19.4 C 44 % 6.84 C
3622 29-07-2015 12:25:00 19.6 C 44 % 7.03 C
3623 29-07-2015 12:30:00 19.7 C 43 % 6.78 C
3624 29-07-2015 12:35:00 20 C 44 % 7.39 C
3625 29-07-2015 12:40:00 20.3 C 43 % 7.32 C
Sensor: Nr:Datum:Temp:Feuchte:Taupunkt:
Aussen-T/F 3626 29-07-2015 12:45:00 20.4 C 41 % 6.72 C
3627 29-07-2015 12:50:00 20.3 C 40 % 6.27 C
3628 29-07-2015 12:55:00 20 C 41 % 6.36 C
3629 29-07-2015 13:00:00 19.8 C 42 % 6.53 C
3630 29-07-2015 13:05:00 19.7 C 42 % 6.44 C
3631 29-07-2015 13:10:00 19.7 C 43 % 6.78 C
3632 29-07-2015 13:15:00 20.1 C 43 % 7.14 C
3633 29-07-2015 13:20:00 20.1 C 42 % 6.8 C
3634 29-07-2015 13:25:00 19.8 C 44 % 7.21 C
3635 29-07-2015 13:30:00 20.4 C 44 % 7.75 C
3636 29-07-2015 13:35:00 20.7 C 41 % 6.99 C
3637 29-07-2015 13:40:00 20.3 C 42 % 6.98 C
3638 29-07-2015 13:45:00 20.2 C 42 % 6.89 C
3639 29-07-2015 13:50:00 20.4 C 43 % 7.41 C
3640 29-07-2015 13:55:00 20.2 C 42 % 6.89 C
3641 29-07-2015 14:00:00 19.8 C 43 % 6.87 C
3642 29-07-2015 14:05:00 19.7 C 44 % 7.12 C
3643 29-07-2015 14:10:00 20.3 C 45 % 7.99 C
3644 29-07-2015 14:15:00 20.9 C 41 % 7.17 C
3645 29-07-2015 14:20:00 21.1 C 39 % 6.62 C
3646 29-07-2015 14:25:00 21 C 40 % 6.9 C
3647 29-07-2015 14:30:00 21.3 C 40 % 7.16 C
3648 29-07-2015 14:35:00 21.3 C 39 % 6.8 C
3649 29-07-2015 14:40:00 20.9 C 39 % 6.44 C
3650 29-07-2015 14:45:00 20.4 C 40 % 6.36 C
Sensor: Nr:Datum:Temp:Feuchte:Taupunkt:
Aussen-T/F 3651 29-07-2015 14:50:00 20.6 C 39 % 6.17 C
3652 29-07-2015 14:55:00 21 C 40 % 6.9 C
3653 29-07-2015 15:00:00 21.5 C 38 % 6.6 C
3654 29-07-2015 15:05:00 21.7 C 36 % 5.99 C
3655 29-07-2015 15:10:00 21.9 C 36 % 6.17 C
3656 29-07-2015 15:15:00 21.6 C 35 % 5.5 C
3657 29-07-2015 15:20:00 20.8 C 38 % 5.97 C
3658 29-07-2015 15:25:00 20.6 C 40 % 6.54 C
3659 29-07-2015 15:30:00 20.8 C 41 % 7.08 C
3660 29-07-2015 15:35:00 21.3 C 40 % 7.16 C
3661 29-07-2015 15:40:00 21.8 C 37 % 6.48 C
3662 29-07-2015 15:45:00 21.6 C 37 % 6.3 C
3663 29-07-2015 15:50:00 21 C 40 % 6.9 C
3664 29-07-2015 15:55:00 21.2 C 40 % 7.08 C
3665 29-07-2015 16:00:00 21.4 C 39 % 6.89 C
3666 29-07-2015 16:05:00 21.6 C 38 % 6.69 C
3667 29-07-2015 16:10:00 21.8 C 37 % 6.48 C
3668 29-07-2015 16:15:00 21.8 C 38 % 6.86 C
3669 29-07-2015 16:20:00 22.1 C 39 % 7.51 C
3670 29-07-2015 16:25:00 21.8 C 38 % 6.86 C
3671 29-07-2015 16:30:00 21.6 C 37 % 6.3 C
3672 29-07-2015 16:35:00 21.4 C 37 % 6.12 C
3673 29-07-2015 16:40:00 21 C 38 % 6.15 C
3674 29-07-2015 16:45:00 20.7 C 38 % 5.89 C
3675 29-07-2015 16:50:00 20.3 C 40 % 6.27 C
Sensor: Nr:Datum:Temp:Feuchte:Taupunkt:
Aussen-T/F 3676 29-07-2015 16:55:00 20.1 C 41 % 6.45 C
3677 29-07-2015 17:00:00 19.8 C 42 % 6.53 C
3678 29-07-2015 17:05:00 19.9 C 43 % 6.96 C
3679 29-07-2015 17:10:00 19.9 C 44 % 7.3 C
3680 29-07-2015 17:15:00 19.8 C 45 % 7.53 C
3681 29-07-2015 17:20:00 19.7 C 46 % 7.77 C
3682 29-07-2015 17:25:00 20.2 C 46 % 8.22 C
3683 29-07-2015 17:30:00 20.9 C 42 % 7.52 C
3684 29-07-2015 17:35:00 21.2 C 41 % 7.44 C
3685 29-07-2015 17:40:00 21.2 C 40 % 7.08 C
3686 29-07-2015 17:45:00 21.4 C 41 % 7.62 C
3687 29-07-2015 17:50:00 21.3 C 42 % 7.88 C
3688 29-07-2015 17:55:00 21.4 C 42 % 7.97 C
3689 29-07-2015 18:00:00 20.9 C 44 % 8.2 C
3690 29-07-2015 18:05:00 20.3 C 44 % 7.66 C
3691 29-07-2015 18:10:00 19.2 C 55 % 9.95 C
3692 29-07-2015 18:15:00 17.8 C 62 % 10.43 C
3693 29-07-2015 18:20:00 17.1 C 69 % 11.37 C
3694 29-07-2015 18:25:00 16.7 C 71 % 11.42 C
3695 29-07-2015 18:30:00 16.8 C 77 % 12.75 C
3696 29-07-2015 18:35:00 17.3 C 68 % 11.34 C
3697 29-07-2015 18:40:00 18.1 C 68 % 12.11 C
3698 29-07-2015 18:45:00 18.8 C 61 % 11.13 C
3699 29-07-2015 18:50:00 19.3 C 56 % 10.31 C
3700 29-07-2015 18:55:00 19.7 C 50 % 8.99 C
Sensor: Nr:Datum:Temp:Feuchte:Taupunkt:
Aussen-T/F 3701 29-07-2015 19:00:00 19.9 C 49 % 8.88 C
3702 29-07-2015 19:05:00 19.8 C 47 % 8.17 C
3703 29-07-2015 19:10:00 19.3 C 49 % 8.33 C
3704 29-07-2015 19:15:00 18.9 C 50 % 8.26 C
3705 29-07-2015 19:20:00 18.8 C 51 % 8.46 C
3706 29-07-2015 19:25:00 18.8 C 56 % 9.84 C
3707 29-07-2015 19:30:00 18.8 C 56 % 9.84 C
3708 29-07-2015 19:35:00 18.8 C 54 % 9.3 C
3709 29-07-2015 19:40:00 18.9 C 56 % 9.94 C
3710 29-07-2015 19:45:00 18.9 C 56 % 9.94 C
3711 29-07-2015 19:50:00 19.1 C 55 % 9.86 C
3712 29-07-2015 19:55:00 18.9 C 53 % 9.12 C
3713 29-07-2015 20:00:00 18.8 C 52 % 8.75 C
3714 29-07-2015 20:05:00 18.8 C 54 % 9.3 C
3715 29-07-2015 20:10:00 18.8 C 52 % 8.75 C
3716 29-07-2015 20:15:00 18.8 C 52 % 8.75 C
3717 29-07-2015 20:20:00 18.8 C 53 % 9.03 C
3718 29-07-2015 20:25:00 18.7 C 52 % 8.65 C
3719 29-07-2015 20:30:00 18.7 C 52 % 8.65 C
3720 29-07-2015 20:35:00 18.6 C 53 % 8.84 C
3721 29-07-2015 20:40:00 18.4 C 53 % 8.66 C
3722 29-07-2015 20:45:00 18.4 C 54 % 8.93 C
3723 29-07-2015 20:50:00 18.3 C 54 % 8.84 C
3724 29-07-2015 20:55:00 18.2 C 54 % 8.75 C
3725 29-07-2015 21:00:00 18 C 54 % 8.56 C
Sensor: Nr:Datum:Temp:Feuchte:Taupunkt:
Aussen-T/F 3726 29-07-2015 21:05:00 17.8 C 54 % 8.38 C
3727 29-07-2015 21:10:00 17.6 C 57 % 8.99 C
3728 29-07-2015 21:15:00 17.4 C 56 % 8.54 C
3729 29-07-2015 21:20:00 17.3 C 58 % 8.97 C
3730 29-07-2015 21:25:00 17.1 C 56 % 8.26 C
3731 29-07-2015 21:30:00 16.8 C 62 % 9.49 C
3732 29-07-2015 21:35:00 16.3 C 63 % 9.25 C
3733 29-07-2015 21:40:00 15.9 C 64 % 9.11 C
3734 29-07-2015 21:45:00 15.7 C 65 % 9.15 C
3735 29-07-2015 21:50:00 15.4 C 63 % 8.4 C
3736 29-07-2015 21:55:00 15.3 C 64 % 8.54 C
3737 29-07-2015 22:00:00 15.4 C 61 % 7.93 C
3738 29-07-2015 22:05:00 15.6 C 62 % 8.35 C
3739 29-07-2015 22:10:00 15.7 C 60 % 7.97 C
3740 29-07-2015 22:15:00 15.8 C 60 % 8.06 C
3741 29-07-2015 22:20:00 15.8 C 59 % 7.81 C
3742 29-07-2015 22:25:00 15.8 C 60 % 8.06 C
3743 29-07-2015 22:30:00 15.6 C 62 % 8.35 C
3744 29-07-2015 22:35:00 15.2 C 65 % 8.67 C
3745 29-07-2015 22:40:00 14.8 C 67 % 8.74 C
3746 29-07-2015 22:45:00 14.6 C 68 % 8.77 C
3747 29-07-2015 22:50:00 14.4 C 67 % 8.36 C
3748 29-07-2015 22:55:00 14.4 C 68 % 8.58 C
3749 29-07-2015 23:00:00 14.3 C 68 % 8.48 C
3750 29-07-2015 23:05:00 14.3 C 69 % 8.7 C
Sensor: Nr:Datum:Temp:Feuchte:Taupunkt:
Aussen-T/F 3751 29-07-2015 23:10:00 14.2 C 69 % 8.6 C
3752 29-07-2015 23:15:00 14 C 69 % 8.41 C
3753 29-07-2015 23:20:00 13.9 C 70 % 8.53 C
3754 29-07-2015 23:25:00 13.7 C 71 % 8.54 C
3755 29-07-2015 23:30:00 13.6 C 71 % 8.45 C
3756 29-07-2015 23:35:00 13.3 C 73 % 8.57 C
3757 29-07-2015 23:40:00 13.2 C 73 % 8.47 C
3758 29-07-2015 23:45:00 13.1 C 73 % 8.38 C
3759 29-07-2015 23:50:00 13.1 C 73 % 8.38 C
3760 29-07-2015 23:55:00 13.1 C 72 % 8.17 C
3761 30-07-2015 00:00:00 13.1 C 73 % 8.38 C
3762 30-07-2015 00:05:00 12.9 C 73 % 8.18 C
3763 30-07-2015 00:10:00 12.8 C 75 % 8.48 C
3764 30-07-2015 00:15:00 12.6 C 76 % 8.49 C
3765 30-07-2015 00:20:00 12.3 C 77 % 8.39 C
3766 30-07-2015 00:25:00 12 C 78 % 8.29 C
3767 30-07-2015 00:30:00 11.9 C 78 % 8.19 C
3768 30-07-2015 00:35:00 11.8 C 78 % 8.09 C
3769 30-07-2015 00:40:00 11.8 C 78 % 8.09 C
3770 30-07-2015 00:45:00 11.9 C 77 % 8 C
3771 30-07-2015 00:50:00 11.9 C 77 % 8 C
3772 30-07-2015 00:55:00 11.9 C 77 % 8 C
3773 30-07-2015 01:00:00 11.9 C 78 % 8.19 C
3774 30-07-2015 01:05:00 11.8 C 78 % 8.09 C
3775 30-07-2015 01:10:00 11.8 C 78 % 8.09 C
Sensor: Nr:Datum:Temp:Feuchte:Taupunkt:
Aussen-T/F 3776 30-07-2015 01:15:00 11.7 C 79 % 8.18 C
3777 30-07-2015 01:20:00 11.4 C 79 % 7.89 C
3778 30-07-2015 01:25:00 11.3 C 80 % 7.98 C
3779 30-07-2015 01:30:00 11.2 C 80 % 7.88 C
3780 30-07-2015 01:35:00 11.2 C 80 % 7.88 C
3781 30-07-2015 01:40:00 11.2 C 80 % 7.88 C
3782 30-07-2015 01:45:00 11.2 C 80 % 7.88 C
3783 30-07-2015 01:50:00 11.2 C 80 % 7.88 C
3784 30-07-2015 01:55:00 11.2 C 81 % 8.06 C
3785 30-07-2015 02:00:00 11.1 C 81 % 7.97 C
3786 30-07-2015 02:05:00 11.2 C 81 % 8.06 C
3787 30-07-2015 02:10:00 11.2 C 81 % 8.06 C
3788 30-07-2015 02:15:00 11.2 C 81 % 8.06 C
3789 30-07-2015 02:20:00 11.1 C 81 % 7.97 C
3790 30-07-2015 02:25:00 11.1 C 81 % 7.97 C
3791 30-07-2015 02:30:00 10.9 C 82 % 7.95 C
3792 30-07-2015 02:35:00 10.9 C 82 % 7.95 C
3793 30-07-2015 02:40:00 10.9 C 82 % 7.95 C
3794 30-07-2015 02:45:00 10.8 C 83 % 8.03 C
3795 30-07-2015 02:50:00 10.7 C 83 % 7.93 C
3796 30-07-2015 02:55:00 10.6 C 83 % 7.84 C
3797 30-07-2015 03:00:00 10.5 C 84 % 7.91 C
3798 30-07-2015 03:05:00 10.5 C 84 % 7.91 C
3799 30-07-2015 03:10:00 10.6 C 84 % 8.01 C
3800 30-07-2015 03:15:00 10.5 C 84 % 7.91 C
Sensor: Nr:Datum:Temp:Feuchte:Taupunkt:
Aussen-T/F 3801 30-07-2015 03:20:00 10.4 C 84 % 7.82 C
3802 30-07-2015 03:25:00 10.4 C 84 % 7.82 C
3803 30-07-2015 03:30:00 10.4 C 84 % 7.82 C
3804 30-07-2015 03:35:00 10.4 C 84 % 7.82 C
3805 30-07-2015 03:40:00 10.4 C 84 % 7.82 C
3806 30-07-2015 03:45:00 10.4 C 84 % 7.82 C
3807 30-07-2015 03:50:00 10.4 C 84 % 7.82 C
3808 30-07-2015 03:55:00 10.4 C 84 % 7.82 C
3809 30-07-2015 04:00:00 10.3 C 85 % 7.89 C
3810 30-07-2015 04:05:00 10.3 C 85 % 7.89 C
3811 30-07-2015 04:10:00 10.3 C 85 % 7.89 C
3812 30-07-2015 04:15:00 10.2 C 85 % 7.79 C
3813 30-07-2015 04:20:00 10.2 C 85 % 7.79 C
3814 30-07-2015 04:25:00 10.2 C 85 % 7.79 C
3815 30-07-2015 04:30:00 10.2 C 85 % 7.79 C
3816 30-07-2015 04:35:00 10.2 C 85 % 7.79 C
3817 30-07-2015 04:40:00 10.2 C 85 % 7.79 C
3818 30-07-2015 04:45:00 10.1 C 86 % 7.87 C
3819 30-07-2015 04:50:00 10.1 C 86 % 7.87 C
3820 30-07-2015 04:55:00 10.1 C 86 % 7.87 C
3821 30-07-2015 05:00:00 10.1 C 86 % 7.87 C
3822 30-07-2015 05:05:00 10 C 86 % 7.77 C
3823 30-07-2015 05:10:00 10 C 86 % 7.77 C
3824 30-07-2015 05:15:00 10.1 C 86 % 7.87 C
3825 30-07-2015 05:20:00 10.1 C 86 % 7.87 C
Sensor: Nr:Datum:Temp:Feuchte:Taupunkt:
Aussen-T/F 3826 30-07-2015 05:25:00 10.1 C 86 % 7.87 C
3827 30-07-2015 05:30:00 10.2 C 86 % 7.97 C
3828 30-07-2015 05:35:00 10.2 C 86 % 7.97 C
3829 30-07-2015 05:40:00 10.2 C 86 % 7.97 C
3830 30-07-2015 05:45:00 10.2 C 86 % 7.97 C
3831 30-07-2015 05:50:00 10.2 C 86 % 7.97 C
3832 30-07-2015 05:55:00 10.2 C 86 % 7.97 C
3833 30-07-2015 06:00:00 10.1 C 86 % 7.87 C
3834 30-07-2015 06:05:00 10 C 86 % 7.77 C
3835 30-07-2015 06:10:00 9.8 C 87 % 7.74 C
3836 30-07-2015 06:15:00 9.8 C 87 % 7.74 C
3837 30-07-2015 06:20:00 9.8 C 87 % 7.74 C
3838 30-07-2015 06:25:00 9.8 C 87 % 7.74 C
3839 30-07-2015 06:30:00 9.8 C 87 % 7.74 C
3840 30-07-2015 06:35:00 9.9 C 87 % 7.84 C
3841 30-07-2015 06:40:00 9.9 C 87 % 7.84 C
3842 30-07-2015 06:45:00 9.9 C 87 % 7.84 C
3843 30-07-2015 06:50:00 9.9 C 87 % 7.84 C
3844 30-07-2015 06:55:00 10 C 87 % 7.94 C
3845 30-07-2015 07:00:00 10.1 C 87 % 8.04 C
3846 30-07-2015 07:05:00 10.3 C 87 % 8.23 C
3847 30-07-2015 07:10:00 10.4 C 86 % 8.16 C
3848 30-07-2015 07:15:00 10.6 C 85 % 8.19 C
3849 30-07-2015 07:20:00 10.7 C 85 % 8.28 C
3850 30-07-2015 07:25:00 10.8 C 85 % 8.38 C
Sensor: Nr:Datum:Temp:Feuchte:Taupunkt:
Aussen-T/F 3851 30-07-2015 07:30:00 10.9 C 85 % 8.48 C
3852 30-07-2015 07:35:00 10.9 C 85 % 8.48 C
3853 30-07-2015 07:40:00 11 C 85 % 8.58 C
3854 30-07-2015 07:45:00 11.1 C 84 % 8.5 C
3855 30-07-2015 07:50:00 11.2 C 83 % 8.42 C
3856 30-07-2015 07:55:00 11.3 C 83 % 8.52 C
3857 30-07-2015 08:00:00 11.6 C 83 % 8.81 C
3858 30-07-2015 08:05:00 11.7 C 82 % 8.73 C
3859 30-07-2015 08:10:00 11.9 C 81 % 8.75 C
3860 30-07-2015 08:15:00 12 C 81 % 8.84 C
3861 30-07-2015 08:20:00 12.1 C 82 % 9.12 C
3862 30-07-2015 08:25:00 12.2 C 81 % 9.04 C
3863 30-07-2015 08:30:00 12.4 C 81 % 9.23 C
3864 30-07-2015 08:35:00 12.5 C 80 % 9.15 C
3865 30-07-2015 08:40:00 12.6 C 80 % 9.25 C
3866 30-07-2015 08:45:00 12.7 C 79 % 9.16 C
3867 30-07-2015 08:50:00 12.7 C 79 % 9.16 C
3868 30-07-2015 08:55:00 12.8 C 78 % 9.06 C
3869 30-07-2015 09:00:00 12.9 C 78 % 9.16 C
3870 30-07-2015 09:05:00 13.1 C 77 % 9.16 C
3871 30-07-2015 09:10:00 13.2 C 77 % 9.26 C
3872 30-07-2015 09:15:00 13.3 C 77 % 9.36 C
3873 30-07-2015 09:20:00 13.3 C 76 % 9.16 C
3874 30-07-2015 09:25:00 13.3 C 76 % 9.16 C
3875 30-07-2015 09:30:00 13.3 C 77 % 9.36 C
Sensor: Nr:Datum:Temp:Feuchte:Taupunkt:
Aussen-T/F 3876 30-07-2015 09:35:00 13.4 C 78 % 9.65 C
3877 30-07-2015 09:40:00 13.6 C